[[{"header":{"parameterUnit":"m.s-1","parameterCategory":1,"la1":31.0,"la2":29.5877,"lo1":-88.7671,"lo2":-86.6584,"dy":0.0162,"dx":0.0185,"nx":115,"ny":88,"refTime":"2023-04-28T18:00:00:Z","depth":0,"parameterNumber":2,"parameterNumberName":"U-component_of_WINDS"},"data":[0.0,0.0,0.0,0.0,0.0,0.0,0.0,0.0,0.0,0.0,0.0,0.0,0.0,0.0,0.0,0.0,0.0,0.0,0.0,0.0,0.0,0.0,0.0,0.0,0.0,0.0,0.0,0.0,0.0,0.0,0.0,0.0,0.0,0.0,0.0,0.0,0.0,0.0,0.0,0.0,0.0,0.0,0.0,0.0,0.0,0.0,0.0,0.0,0.0,0.0,0.0,0.0,0.0,0.0,0.0,0.0,0.0,0.0,0.0,0.0,0.0,0.0,0.0,0.0,0.0,0.0,0.0,0.0,0.0,0.0,0.0,0.0,0.0,0.0,0.0,0.0,0.0,0.0,0.0,0.0,0.0,0.0,0.0,0.0,0.0,0.0,0.0,0.0,0.0,0.0,0.0,0.0,0.0,0.0,0.0,0.0,0.0,0.0,0.0,0.0,0.0,0.0,0.0,0.0,0.0,0.0,0.0,0.0,0.0,0.0,0.0,0.0,0.0,0.0,0.0,0.0,0.0,0.0,0.0,0.0,0.0,0.0,0.0,0.0,0.0,0.0,0.0,0.0,0.0,0.0,0.0,0.0,0.0,0.0,0.0,0.0,0.0,0.0,0.0,0.0,0.0,0.0,0.0,0.0,0.0,0.0,0.0,0.0,0.0,0.0,0.0,0.0,0.0,0.0,0.0,0.0,0.0,0.0,0.0,0.0,0.0,0.0,0.0,0.0,0.0,0.0,0.0,0.0,0.0,0.0,0.0,0.0,0.0,0.0,0.0,0.0,0.0,0.0,0.0,0.0,0.0,0.0,0.0,0.0,0.0,0.0,0.0,0.0,0.0,0.0,0.0,0.0,0.0,0.0,0.0,0.0,0.0,0.0,0.0,0.0,0.0,0.0,0.0,0.0,0.0,0.0,0.0,0.0,0.0,0.0,0.0,0.0,0.0,0.0,0.0,0.0,0.0,0.0,0.0,0.0,0.0,0.0,0.0,0.0,0.0,0.0,0.0,0.0,0.0,0.0,0.0,0.0,0.0,0.0,0.0,0.0,0.0,0.0,0.0,0.0,0.0,0.0,0.0,0.0,0.0,0.0,0.0,0.0,0.0,0.0,0.0,0.0,0.0,0.0,0.0,0.0,0.0,0.0,0.0,0.0,0.0,0.0,0.0,0.0,0.0,0.0,0.0,0.0,0.0,0.0,0.0,0.0,0.0,0.0,0.0,0.0,0.0,0.0,0.0,0.0,0.0,0.0,0.0,0.0,0.0,0.0,0.0,0.0,0.0,0.0,0.0,0.0,0.0,0.0,0.0,0.0,0.0,0.0,0.0,0.0,0.0,0.0,0.0,0.0,0.0,0.0,0.0,0.0,0.0,0.0,0.0,0.0,0.0,0.0,0.0,0.0,0.0,0.0,0.0,0.0,0.0,0.0,0.0,0.0,0.0,0.0,0.0,0.0,0.0,0.0,0.0,0.0,0.0,0.0,0.0,0.0,0.0,0.0,0.0,0.0,0.0,0.0,0.0,0.0,0.0,0.0,0.0,0.0,0.0,0.0,0.0,0.0,0.0,0.0,0.0,0.0,0.0,0.0,0.0,0.0,0.0,0.0,0.0,0.0,0.0,0.0,0.0,0.0,0.0,0.0,0.0,0.0,0.0,0.0,0.0,0.0,0.0,0.0,0.0,0.0,0.0,0.0,0.0,0.0,0.0,0.0,0.0,0.0,0.0,0.0,0.0,0.0,0.0,0.0,0.0,0.0,0.0,0.0,0.0,0.0,0.0,0.0,0.0,0.0,0.0,0.0,0.0,0.0,0.0,0.0,0.0,0.0,0.0,0.0,0.0,0.0,0.0,0.0,0.0,0.0,0.0,0.0,0.0,0.0,0.0,0.0,0.0,0.0,0.0,0.0,0.0,0.0,0.0,0.0,0.0,0.0,0.0,0.0,0.0,0.0,0.0,0.0,0.0,0.0,0.0,0.0,0.0,0.0,0.0,0.0,0.0,0.0,0.0,0.0,0.0,0.0,0.0,0.0,0.0,0.0,0.0,0.0,0.0,0.0,0.0,0.0,0.0,0.0,0.0,0.0,0.0,0.0,0.0,0.0,0.0,0.0,0.0,0.0,0.0,0.0,0.0,0.0,0.0,0.0,0.0,0.0,0.0,0.0,0.0,0.0,0.0,0.0,0.0,0.0,0.0,0.0,0.0,0.0,0.0,0.0,0.0,0.0,0.0,0.0,0.0,0.0,0.0,0.0,0.0,0.0,0.0,0.0,0.0,0.0,0.0,0.0,0.0,0.0,0.0,0.0,0.0,0.0,0.0,0.0,0.0,0.0,0.0,0.0,0.0,0.0,0.0,0.0,0.0,0.0,0.0,0.0,0.0,0.0,0.0,0.0,0.0,0.0,0.0,0.0,0.0,0.0,0.0,0.0,0.0,0.0,0.0,0.0,0.0,0.0,0.0,0.0,0.0,0.0,0.0,0.0,0.0,0.0,0.0,0.0,0.0,0.0,0.0,0.0,0.0,0.0,0.0,0.0,0.0,0.0,0.0,0.0,0.0,0.0,0.0,0.0,0.0,0.0,0.0,0.0,0.0,0.0,0.0,0.0,0.0,0.0,0.0,0.0,0.0,0.0,0.0,0.0,0.0,0.0,0.0,0.0,0.0,0.0,0.0,0.0,0.0,0.0,0.0,0.0,0.0,0.0,0.0,0.0,0.0,0.0,0.0,0.0,0.0,0.0,0.0,0.0,0.0,0.0,0.0,0.0,0.0,0.0,0.0,0.0,0.0,0.0,0.0,0.0,0.0,0.0,0.0,0.0,0.0,0.0,0.0,0.0,0.0,0.0,0.0,0.0,0.0,0.0,0.0,0.0,0.0,0.0,0.0,0.0,0.0,0.0,0.0,0.0,0.0,0.0,0.0,0.0,0.0,0.0,0.0,0.0,0.0,0.0,0.0,0.0,0.0,0.0,0.0,0.0,0.0,0.0,0.0,0.0,0.0,0.0,0.0,0.0,0.0,0.0,0.0,0.0,0.0,0.0,0.0,0.0,0.0,0.0,0.0,0.0,0.0,0.0,0.0,0.0,0.0,0.0,0.0,0.0,0.0,0.0,0.0,0.0,0.0,0.0,0.0,0.0,0.0,0.0,0.0,0.0,0.0,0.0,0.0,0.0,0.0,0.0,0.0,0.0,0.0,0.0,0.0,0.0,0.0,0.0,0.0,0.0,0.0,0.0,0.0,0.0,0.0,0.0,0.0,0.0,0.0,0.0,0.0,0.0,0.0,0.0,0.0,0.0,0.0,0.0,0.0,0.0,0.0,0.0,0.0,0.0,0.0,0.0,0.0,0.0,0.0,0.0,0.0,0.0,0.0,0.0,0.0,0.0,0.0,0.0,0.0,0.0,0.0,0.0,0.0,0.0,0.0,0.0,0.0,0.0,0.0,0.0,0.0,0.0,0.0,0.0,0.0,0.0,0.0,0.0,0.0,0.0,0.0,0.0,0.0,0.0,0.0,0.0,0.0,0.0,0.0,0.0,0.0,0.0,0.0,0.0,0.0,0.0,0.0,0.0,0.0,0.0,0.0,0.0,0.0,0.0,0.0,0.0,0.0,0.0,0.0,0.0,0.0,0.0,0.0,0.0,0.0,0.0,0.0,0.0,0.0,0.0,0.0,0.0,0.0,0.0,0.0,0.0,0.0,0.0,0.0,0.0,0.0,0.0,0.0,0.0,0.0,0.0,0.0,0.0,0.0,0.0,0.0,0.0,0.0,0.0,0.0,0.0,0.0,0.0,0.0,0.0,0.0,0.0,0.0,0.0,0.0,0.0,0.0,0.0,0.0,0.0,0.0,0.0,0.0,0.0,0.0,0.0,0.0,0.0,0.0,0.0,0.0,0.0,0.0,0.0,0.0,0.0,0.0,0.0,0.0,0.0,0.0,0.0,0.0,0.0,0.0,0.0,0.0,0.0,0.0,0.0,0.0,0.0,0.0,0.0,0.0,0.0,0.0,0.0,0.0,0.0,0.0,0.0,0.0,0.0,0.0,0.0,0.0,0.0,0.0,0.0,0.0,0.0,0.0,0.0,0.0,0.0,0.0,0.0,0.0,0.0,0.0,0.0,0.0,0.0,0.0,0.0,0.0,0.0,0.0,0.0,0.0,0.0,0.0,0.0,0.0,0.0,0.0,0.0,0.0,0.0,0.0,0.0,0.0,0.0,0.0,0.0,0.0,0.0,0.0,0.0,0.0,0.0,0.0,0.0,0.0,0.0,0.0,0.0,-0.5534,0.0,0.0,0.0,0.0,0.0,0.0,0.0,0.0,0.0,0.0,0.0,0.0,0.0,0.0,0.0,0.0,0.0,0.0,0.0,0.0,0.0,0.0,0.0,0.0,0.0,0.0,0.0,0.0,0.0,0.0,0.0,0.0,0.0,0.0,0.0,0.0,0.0,0.0,0.0,0.0,0.0,0.0,0.0,0.0,0.0,0.0,0.0,0.0,0.0,0.0,0.0,0.0,0.0,0.0,0.0,0.0,0.0,0.0,0.0,0.0,0.0,0.0,0.0,0.0,0.0,0.0,0.0,0.0,0.0,0.0,0.0,0.0,0.0,0.0,0.0,0.0,0.0,0.0,0.0,0.0,0.0,0.0,0.0,0.0,0.0,0.0,0.0,0.0,0.0,0.0,0.0,0.0,0.0,0.0,0.0,0.0,0.0,0.0,0.0,0.0,0.0,0.0,0.0,0.0,0.0,0.0,0.0,0.0,0.0,0.0,-0.4188,-0.432,-0.4535,-0.4709,-0.4884,0.0,0.0,0.0,0.0,0.0,0.0,0.0,0.0,0.0,0.0,0.0,0.0,0.0,0.0,0.0,0.0,0.0,0.0,0.0,0.0,0.0,0.0,0.0,0.0,0.0,0.0,0.0,0.0,0.0,0.0,0.0,0.0,0.0,0.0,0.0,0.0,0.0,0.0,0.0,0.0,0.0,0.0,0.0,0.0,0.0,0.0,0.0,0.0,0.0,0.0,0.0,0.0,0.0,0.0,0.0,0.0,0.0,0.0,0.0,0.0,0.0,0.0,0.0,0.0,0.0,0.0,0.0,0.0,0.0,0.0,0.0,0.0,0.0,0.0,0.0,0.0,0.0,0.0,0.0,0.0,0.0,0.0,0.0,0.0,0.0,0.0,0.0,0.0,0.0,0.0,0.0,0.0,0.0,0.0,0.0,0.0,0.0,0.0,0.0,0.0,0.0,0.0,0.0,0.0,0.0,0.0,0.0,0.0,0.0,0.0,0.0,0.0,-0.41,-0.4188,-0.4324,0.0,0.0,0.0,0.0,0.0,0.0,0.0,0.0,0.0,0.0,0.0,0.0,0.0,0.0,0.0,0.0,0.0,0.0,0.0,0.0,0.0,0.0,0.0,0.0,0.0,0.0,0.0,0.0,0.0,0.0,0.0,0.0,0.0,0.0,0.0,0.0,0.0,0.0,0.0,0.0,0.0,0.0,0.0,0.0,0.0,0.0,0.0,0.0,0.0,0.0,0.0,0.0,0.0,0.0,0.0,0.0,0.0,0.0,0.0,0.0,0.0,0.0,0.0,0.0,0.0,0.0,0.0,0.0,0.0,0.0,0.0,0.0,0.0,0.0,0.0,0.0,0.0,0.0,0.0,0.0,0.0,0.0,0.0,0.0,0.0,0.0,0.0,0.0,0.0,0.0,0.0,0.0,0.0,0.0,0.0,0.0,0.0,0.0,0.0,0.0,0.0,0.0,0.0,0.0,0.0,0.0,0.0,0.0,0.0,0.0,-0.3663,-0.3744,-0.3744,0.0,-0.412,0.0,0.0,0.0,0.0,0.0,0.0,0.0,0.0,0.0,0.0,0.0,0.0,0.0,0.0,0.0,0.0,0.0,0.0,0.0,0.0,0.0,0.0,0.0,0.0,0.0,0.0,0.0,0.0,0.0,0.0,0.0,0.0,0.0,0.0,0.0,0.0,0.0,0.0,0.0,0.0,0.0,0.0,0.0,0.0,0.0,0.0,0.0,0.0,0.0,0.0,0.0,0.0,0.0,0.0,0.0,0.0,0.0,0.0,0.0,0.0,0.0,0.0,0.0,0.0,0.0,0.0,0.0,0.0,0.0,0.0,0.0,0.0,0.0,0.0,0.0,0.0,0.0,0.0,0.0,0.0,0.0,0.0,0.0,0.0,0.0,0.0,0.0,0.0,0.0,0.0,0.0,0.0,0.0,0.0,0.0,0.0,0.0,0.0,0.0,0.0,0.0,0.0,0.0,0.0,0.0,0.0,0.0,0.0,0.0,0.0,-0.3619,-0.37,-0.3788,-0.388,0.0,0.0,0.0,0.0,0.0,0.0,0.0,0.0,0.0,0.0,0.0,0.0,0.0,0.0,0.0,0.0,0.0,0.0,0.0,0.0,0.0,0.0,0.0,0.0,0.0,0.0,0.0,0.0,0.0,0.0,0.0,0.0,0.0,0.0,0.0,0.0,0.0,0.0,0.0,0.0,0.0,0.0,0.0,0.0,0.0,0.0,0.0,0.0,0.0,0.0,0.0,0.0,0.0,0.0,0.0,0.0,0.0,0.0,0.0,0.0,0.0,0.0,0.0,0.0,0.0,0.0,0.0,0.0,0.0,0.0,0.0,0.0,0.0,0.0,0.0,0.0,0.0,0.0,0.0,0.0,0.0,0.0,0.0,0.0,0.0,0.0,0.0,0.0,0.0,0.0,0.0,0.0,0.0,0.0,0.0,0.0,0.0,0.0,0.0,0.0,0.0,0.0,0.0,0.0,0.0,0.0,0.0,0.0,0.0,0.0,-0.3775,-0.3792,-0.3918,-0.3969,-0.4059,-0.4149,0.0,0.0,0.0,0.0,0.0,0.0,0.0,0.0,0.0,0.0,0.0,0.0,0.0,0.0,0.0,0.0,0.0,0.0,0.0,0.0,0.0,0.0,0.0,0.0,0.0,0.0,0.0,0.0,0.0,0.0,0.0,0.0,0.0,0.0,0.0,0.0,0.0,0.0,0.0,0.0,0.0,0.0,0.0,0.0,0.0,0.0,0.0,0.0,0.0,0.0,0.0,0.0,0.0,0.0,0.0,0.0,0.0,0.0,0.0,0.0,0.0,0.0,0.0,0.0,0.0,0.0,0.0,0.0,0.0,0.0,0.0,0.0,0.0,0.0,0.0,0.0,0.0,0.0,0.0,0.0,0.0,0.0,0.0,0.0,0.0,0.0,0.0,0.0,0.0,0.0,0.0,0.0,0.0,0.0,0.0,0.0,0.0,0.0,0.0,0.0,0.0,0.0,0.0,0.0,0.0,0.0,0.0,0.0,-0.4167,-0.4073,-0.4147,-0.4432,-0.4384,-0.4518,0.0,0.0,0.0,0.0,0.0,0.0,0.0,0.0,0.0,0.0,0.0,0.0,0.0,0.0,0.0,0.0,0.0,0.0,0.0,0.0,0.0,0.0,0.0,0.0,0.0,0.0,0.0,0.0,0.0,0.0,0.0,0.0,0.0,0.0,0.0,0.0,0.0,0.0,0.0,0.0,0.0,0.0,0.0,0.0,0.0,0.0,0.0,0.0,0.0,0.0,0.0,0.0,0.0,0.0,0.0,0.0,0.0,0.0,0.0,0.0,0.0,0.0,0.0,0.0,0.0,0.0,0.0,0.0,0.0,0.0,0.0,0.0,0.0,0.0,0.0,0.0,0.0,0.0,0.0,0.0,0.0,0.0,0.0,0.0,0.0,0.0,0.0,0.0,0.0,0.0,0.0,0.0,0.0,0.0,0.0,0.0,0.0,0.0,0.0,0.0,0.0,0.0,0.0,0.0,0.0,0.0,0.0,0.0,0.0,-0.4393,-0.4502,-0.4664,-0.4861,-0.4942,-0.503,0.0,0.0,0.0,0.0,0.0,0.0,0.0,0.0,0.0,0.0,0.0,0.0,0.0,0.0,0.0,0.0,0.0,0.0,0.0,0.0,0.0,0.0,0.0,0.0,0.0,0.0,0.0,0.0,0.0,0.0,0.0,0.0,0.0,0.0,0.0,0.0,0.0,0.0,0.0,0.0,0.0,0.0,0.0,0.0,0.0,0.0,0.0,0.0,0.0,0.0,0.0,0.0,0.0,0.0,0.0,0.0,0.0,0.0,0.0,0.0,0.0,0.0,0.0,0.0,0.0,0.0,0.0,0.0,0.0,0.0,0.0,0.0,0.0,0.0,0.0,0.0,0.0,0.0,0.0,0.0,0.0,0.0,0.0,0.0,0.0,0.0,0.0,0.0,0.0,0.0,0.0,0.0,0.0,0.0,0.0,0.0,0.0,0.0,0.0,0.0,0.0,0.0,0.0,0.0,0.0,0.0,0.0,0.0,0.0,-0.4733,0.0,-0.5289,-0.5442,-0.548,-0.5526,0.0,0.0,0.0,0.0,0.0,0.0,0.0,0.0,0.0,0.0,0.0,0.0,0.0,0.0,0.0,0.0,0.0,0.0,0.0,0.0,0.0,0.0,0.0,0.0,0.0,0.0,0.0,0.0,0.0,0.0,0.0,0.0,0.0,0.0,0.0,0.0,0.0,0.0,0.0,0.0,0.0,0.0,0.0,0.0,0.0,0.0,0.0,0.0,0.0,0.0,0.0,0.0,0.0,0.0,0.0,0.0,0.0,0.0,0.0,0.0,0.0,0.0,0.0,0.0,0.0,0.0,0.0,0.0,0.0,0.0,0.0,0.0,0.0,0.0,0.0,0.0,0.0,0.0,0.0,0.0,0.0,0.0,0.0,0.0,0.0,0.0,0.0,0.0,0.0,0.0,0.0,0.0,0.0,0.0,0.0,0.0,0.0,0.0,0.0,0.0,0.0,0.0,0.0,0.0,0.0,0.0,0.0,0.0,-0.4908,-0.5332,-0.5651,-0.5914,-0.6199,-0.6006,-0.6058,0.0,0.0,0.0,0.0,0.0,0.0,0.0,0.0,0.0,0.0,0.0,0.0,0.0,0.0,0.0,0.0,0.0,0.0,0.0,0.0,0.0,0.0,0.0,0.0,0.0,0.0,0.0,0.0,0.0,0.0,0.0,0.0,0.0,0.0,0.0,0.0,0.0,0.0,0.0,0.0,0.0,0.0,0.0,0.0,0.0,0.0,0.0,0.0,0.0,0.0,0.0,0.0,0.0,0.0,0.0,0.0,0.0,0.0,0.0,0.0,0.0,0.0,0.0,0.0,0.0,0.0,0.0,0.0,0.0,0.0,0.0,0.0,0.0,0.0,0.0,0.0,0.0,0.0,0.0,0.0,0.0,0.0,0.0,0.0,0.0,0.0,0.0,0.0,0.0,0.0,0.0,0.0,0.0,0.0,0.0,0.0,0.0,0.0,0.0,0.0,0.0,0.0,0.0,0.0,0.0,0.0,0.0,0.0,0.0,-0.6055,-0.6322,-0.6539,-0.6804,-0.6645,-0.6587,0.0,0.0,0.0,0.0,0.0,0.0,0.0,0.0,0.0,0.0,0.0,0.0,0.0,0.0,0.0,0.0,0.0,0.0,0.0,0.0,0.0,0.0,0.0,0.0,0.0,0.0,0.0,0.0,0.0,0.0,0.0,0.0,0.0,0.0,0.0,0.0,0.0,0.0,0.0,0.0,0.0,0.0,0.0,0.0,0.0,0.0,0.0,0.0,0.0,0.0,0.0,0.0,0.0,0.0,0.0,0.0,0.0,0.0,0.0,0.0,0.0,0.0,0.0,0.0,0.0,0.0,0.0,0.0,0.0,0.0,0.0,0.0,0.0,0.0,0.0,0.0,0.0,0.0,0.0,0.0,0.0,0.0,0.0,0.0,0.0,0.0,0.0,0.0,0.0,0.0,0.0,0.0,0.0,0.0,0.0,0.0,0.0,0.0,0.0,0.0,0.0,0.0,0.0,0.0,0.0,0.0,0.0,0.0,0.0,-0.7433,-0.7406,-0.7535,-0.7937,-0.7627,-0.7366,-0.7164,0.0,0.0,0.0,0.0,0.0,0.0,0.0,0.0,0.0,0.0,0.0,0.0,0.0,0.0,0.0,0.0,0.0,0.0,0.0,0.0,0.0,0.0,0.0,0.0,0.0,0.0,0.0,0.0,0.0,0.0,0.0,0.0,0.0,0.0,0.0,0.0,0.0,0.0,0.0,0.0,0.0,0.0,0.0,0.0,0.0,0.0,0.0,0.0,0.0,0.0,0.0,0.0,0.0,0.0,0.0,0.0,0.0,0.0,0.0,0.0,0.0,0.0,0.0,0.0,0.0,0.0,0.0,0.0,0.0,0.0,0.0,0.0,0.0,0.0,0.0,0.0,0.0,0.0,0.0,0.0,0.0,0.0,0.0,0.0,0.0,0.0,0.0,0.0,0.0,0.0,0.0,0.0,0.0,0.0,0.0,0.0,0.0,0.0,0.0,0.0,0.0,0.0,0.0,0.0,0.0,0.0,0.0,0.0,-0.9233,-0.8914,-0.8912,-0.9309,-0.8807,-0.8358,0.0,0.0,0.0,0.0,0.0,0.0,0.0,0.0,0.0,0.0,0.0,0.0,0.0,0.0,0.0,0.0,0.0,0.0,0.0,0.0,0.0,0.0,0.0,0.0,0.0,0.0,0.0,0.0,0.0,0.0,0.0,0.0,0.0,0.0,0.0,0.0,0.0,0.0,0.0,0.0,0.0,0.0,0.0,0.0,0.0,0.0,0.0,0.0,0.0,0.0,0.0,0.0,0.0,0.0,0.0,0.0,0.0,0.0,0.0,0.0,0.0,0.0,0.0,0.0,0.0,0.0,0.0,0.0,0.0,0.0,0.0,0.0,0.0,0.0,0.0,0.0,0.0,0.0,0.0,0.0,0.0,0.0,0.0,0.0,0.0,0.0,0.0,0.0,0.0,0.0,0.0,0.0,0.0,0.0,0.0,0.0,0.0,0.0,0.0,0.0,0.0,0.0,0.0,0.0,0.0,0.0,0.0,0.0,0.0,-0.9968,-1.0645,-1.0736,-1.0282,-0.9787,-0.923,0.0,0.0,0.0,0.0,0.0,0.0,0.0,0.0,0.0,0.0,0.0,0.0,0.0,0.0,0.0,0.0,0.0,0.0,0.0,0.0,0.0,0.0,0.0,0.0,0.0,0.0,0.0,0.0,0.0,0.0,0.0,0.0,0.0,0.0,0.0,0.0,0.0,0.0,0.0,0.0,0.0,0.0,0.0,0.0,0.0,0.0,0.0,0.0,0.0,0.0,0.0,0.0,0.0,0.0,0.0,0.0,0.0,0.0,0.0,0.0,0.0,0.0,0.0,0.0,0.0,0.0,0.0,0.0,0.0,0.0,0.0,0.0,0.0,0.0,0.0,0.0,0.0,0.0,0.0,0.0,0.0,0.0,0.0,0.0,0.0,0.0,0.0,0.0,0.0,0.0,0.0,0.0,0.0,0.0,0.0,0.0,0.0,0.0,0.0,0.0,0.0,0.0,0.0,0.0,0.0,0.0,0.0,0.0,-0.9576,-1.0802,-1.1979,-1.2329,-1.184,-1.0927,-1.0136,0.0,0.0,0.0,0.0,0.0,0.0,0.0,0.0,0.0,0.0,0.0,0.0,0.0,0.0,0.0,0.0,0.0,0.0,0.0,0.0,0.0,0.0,0.0,0.0,0.0,0.0,0.0,0.0,0.0,0.0,0.0,0.0,0.0,0.0,0.0,0.0,0.0,0.0,0.0,0.0,0.0,0.0,0.0,0.0,0.0,0.0,0.0,0.0,0.0,0.0,0.0,0.0,0.0,0.0,0.0,0.0,0.0,0.0,0.0,0.0,0.0,0.0,0.0,0.0,0.0,0.0,0.0,0.0,0.0,0.0,0.0,0.0,0.0,0.0,0.0,0.0,0.0,0.0,0.0,0.0,0.0,0.0,0.0,0.0,0.0,0.0,0.0,0.0,0.0,0.0,0.0,0.0,0.0,0.0,0.0,0.0,0.0,0.0,0.0,0.0,0.0,0.0,0.0,0.0,0.0,0.0,0.0,0.0,-1.0402,-1.1534,-1.2883,-1.3572,-1.3647,-1.2164,-1.108,0.0,0.0,0.0,0.0,0.0,0.0,0.0,0.0,0.0,0.0,0.0,0.0,0.0,0.0,0.0,0.0,0.0,0.0,0.0,0.0,0.0,0.0,0.0,0.0,0.0,0.0,0.0,0.0,0.0,0.0,0.0,0.0,0.0,0.0,0.0,0.0,0.0,0.0,0.0,0.0,0.0,0.0,0.0,0.0,0.0,0.0,0.0,0.0,0.0,0.0,0.0,0.0,0.0,0.0,0.0,0.0,0.0,0.0,0.0,0.0,0.0,0.0,0.0,0.0,0.0,0.0,0.0,0.0,0.0,0.0,0.0,0.0,0.0,0.0,0.0,0.0,0.0,0.0,0.0,0.0,0.0,0.0,0.0,0.0,0.0,0.0,0.0,0.0,0.0,0.0,0.0,0.0,0.0,0.0,0.0,0.0,0.0,0.0,0.0,0.0,0.0,0.0,0.0,0.0,0.0,0.0,0.0,0.0,-1.0961,-1.2031,-1.3061,-1.3761,-1.3981,-1.3006,-1.2084,0.0,0.0,0.0,0.0,0.0,0.0,0.0,0.0,0.0,0.0,0.0,0.0,0.0,0.0,0.0,0.0,0.0,0.0,0.0,0.0,0.0,0.0,0.0,0.0,0.0,0.0,0.0,0.0,0.0,0.0,0.0,0.0,0.0,0.0,0.0,0.0,0.0,0.0,0.0,0.0,0.0,0.0,0.0,0.0,0.0,0.0,0.0,0.0,-0.4942,0.0,0.0,0.0,0.0,0.0,0.0,0.0,0.0,0.0,0.0,0.0,0.0,0.0,0.0,0.0,0.0,0.0,0.0,0.0,0.0,0.0,0.0,0.0,0.0,0.0,0.0,0.0,0.0,0.0,0.0,0.0,0.0,0.0,0.0,0.0,0.0,0.0,0.0,0.0,0.0,0.0,0.0,0.0,0.0,0.0,0.0,0.0,0.0,0.0,0.0,0.0,0.0,0.0,0.0,0.0,0.0,0.0,0.0,0.0,-1.1378,-1.2473,-1.3378,-1.3928,-1.4055,-1.3487,-1.2685,0.0,0.0,0.0,0.0,0.0,0.0,0.0,0.0,0.0,0.0,0.0,0.0,0.0,0.0,0.0,0.0,0.0,0.0,0.0,0.0,0.0,0.0,0.0,0.0,0.0,0.0,0.0,0.0,0.0,0.0,0.0,0.0,0.0,0.0,0.0,0.0,0.0,0.0,0.0,0.0,0.0,0.0,0.0,0.0,0.0,0.0,0.0,0.0,0.0,0.0,0.0,0.0,0.0,0.0,0.0,0.0,0.0,0.0,0.0,0.0,0.0,0.0,0.0,0.0,0.0,0.0,0.0,0.0,0.0,0.0,0.0,0.0,0.0,0.0,0.0,0.0,0.0,0.0,0.0,0.0,0.0,0.0,0.0,0.0,0.0,0.0,0.0,0.0,0.0,0.0,0.0,0.0,0.0,0.0,0.0,0.0,0.0,0.0,0.0,0.0,0.0,0.0,0.0,0.0,0.0,0.0,0.0,-1.0454,-1.1738,-1.3002,-1.3718,-1.4088,-1.4082,-1.3794,-1.3106,-1.1984,0.0,0.0,0.0,0.0,0.0,0.0,0.0,0.0,0.0,0.0,0.0,0.0,0.0,0.0,0.0,0.0,0.0,0.0,0.0,0.0,0.0,0.0,0.0,0.0,0.0,0.0,0.0,0.0,0.0,0.0,0.0,0.0,0.0,0.0,0.0,0.0,0.0,0.0,-0.5325,-0.5468,0.0,0.0,0.0,0.0,0.0,0.0,0.0,0.0,-0.6463,0.0,0.0,0.0,0.0,0.0,0.0,0.0,0.0,0.0,0.0,0.0,0.0,0.0,0.0,0.0,0.0,0.0,0.0,0.0,0.0,0.0,0.0,0.0,0.0,0.0,0.0,0.0,0.0,0.0,0.0,0.0,0.0,0.0,0.0,0.0,0.0,0.0,0.0,0.0,0.0,0.0,0.0,0.0,0.0,0.0,0.0,0.0,0.0,0.0,0.0,0.0,0.0,0.0,0.0,0.0,0.0,-0.9697,-1.0865,-1.218,-1.3473,-1.3908,-1.4088,-1.4082,-1.3794,-1.32,-1.2291,0.0,0.0,0.0,0.0,0.0,0.0,0.0,0.0,0.0,0.0,0.0,0.0,0.0,0.0,0.0,0.0,0.0,0.0,0.0,0.0,0.0,0.0,0.0,0.0,0.0,0.0,0.0,0.0,0.0,0.0,0.0,0.0,0.0,0.0,0.0,0.0,0.0,0.0,0.0,-0.6568,-0.6254,0.0,0.0,0.0,0.0,0.0,0.0,0.0,0.0,-0.9103,0.0,0.0,0.0,0.0,0.0,0.0,0.0,0.0,0.0,0.0,0.0,0.0,0.0,0.0,0.0,0.0,0.0,0.0,0.0,0.0,0.0,0.0,0.0,0.0,0.0,0.0,0.0,0.0,0.0,0.0,0.0,0.0,0.0,0.0,0.0,0.0,0.0,0.0,0.0,0.0,0.0,0.0,0.0,0.0,0.0,0.0,0.0,0.0,0.0,0.0,0.0,0.0,0.0,0.0,0.0,-1.011,-1.13,-1.2555,-1.3841,-1.4015,-1.4088,-1.4082,-1.3801,-1.322,0.0,0.0,0.0,0.0,0.0,0.0,0.0,0.0,0.0,0.0,0.0,0.0,0.0,0.0,0.0,0.0,0.0,0.0,0.0,0.0,0.0,0.0,0.0,0.0,0.0,0.0,0.0,0.0,0.0,0.0,0.0,0.0,0.0,0.0,0.0,0.0,0.0,0.0,0.0,0.0,-0.7808,-0.8193,-0.7781,0.0,0.0,0.0,0.0,0.0,0.0,-0.8349,-0.8187,0.0,0.0,0.0,0.0,0.0,0.0,0.0,0.0,0.0,0.0,0.0,0.0,0.0,0.0,0.0,0.0,0.0,0.0,0.0,0.0,0.0,0.0,0.0,0.0,0.0,0.0,0.0,0.0,0.0,0.0,0.0,0.0,0.0,0.0,0.0,0.0,0.0,0.0,0.0,0.0,0.0,0.0,0.0,0.0,0.0,0.0,0.0,0.0,0.0,0.0,0.0,0.0,0.0,0.0,0.0,-1.0534,-1.1768,-1.2901,-1.4048,-1.4088,-1.4088,-1.4082,-1.3741,-1.3193,0.0,0.0,0.0,0.0,0.0,0.0,0.0,0.0,0.0,0.0,0.0,0.0,0.0,0.0,0.0,0.0,0.0,0.0,0.0,0.0,0.0,0.0,0.0,0.0,0.0,0.0,0.0,0.0,0.0,0.0,0.0,0.0,0.0,0.0,0.0,0.0,0.0,0.0,0.0,0.0,0.0,-0.982,-0.9852,-0.9438,0.0,0.0,0.0,0.0,-0.9303,-0.8269,0.0,0.0,0.0,0.0,0.0,0.0,0.0,0.0,0.0,0.0,0.0,0.0,0.0,0.0,0.0,0.0,0.0,0.0,0.0,0.0,0.0,0.0,0.0,0.0,0.0,0.0,0.0,0.0,0.0,0.0,0.0,0.0,0.0,0.0,0.0,0.0,0.0,0.0,0.0,0.0,0.0,0.0,0.0,0.0,0.0,0.0,0.0,0.0,0.0,0.0,0.0,0.0,0.0,0.0,0.0,0.0,-1.0712,-1.2221,-1.3309,-1.4062,-1.4088,-1.4088,-1.4082,-1.3547,-1.3086,0.0,0.0,0.0,0.0,0.0,0.0,0.0,0.0,0.0,0.0,0.0,0.0,0.0,0.0,0.0,0.0,0.0,0.0,0.0,0.0,0.0,0.0,0.0,0.0,0.0,0.0,0.0,0.0,0.0,0.0,0.0,0.0,0.0,0.0,0.0,0.0,0.0,0.0,0.0,0.0,0.0,-0.9806,-1.3694,-1.4596,-1.3311,0.0,0.0,-1.4008,-1.1859,-1.0656,0.0,0.0,0.0,0.0,0.0,0.0,0.0,0.0,0.0,0.0,0.0,0.0,0.0,0.0,0.0,0.0,0.0,0.0,0.0,0.0,0.0,0.0,0.0,0.0,0.0,0.0,0.0,0.0,0.0,0.0,0.0,0.0,0.0,0.0,0.0,0.0,0.0,0.0,0.0,0.0,0.0,0.0,0.0,0.0,0.0,0.0,0.0,0.0,0.0,0.0,0.0,0.0,0.0,0.0,0.0,-0.9748,-1.0931,-1.2532,-1.3622,-1.4075,-1.4088,-1.4088,-1.4082,-1.352,-1.3066,0.0,0.0,0.0,0.0,0.0,0.0,0.0,0.0,0.0,0.0,0.0,0.0,0.0,0.0,0.0,0.0,0.0,0.0,0.0,0.0,0.0,0.0,0.0,0.0,0.0,0.0,0.0,0.0,0.0,0.0,0.0,0.0,0.0,0.0,0.0,0.0,0.0,0.0,0.0,0.0,0.0,0.0,-1.3239,-1.4956,0.0,0.0,0.0,-1.5383,-1.4289,0.0,0.0,0.0,0.0,0.0,0.0,0.0,0.0,0.0,0.0,0.0,0.0,0.0,0.0,0.0,0.0,0.0,0.0,0.0,0.0,0.0,0.0,0.0,0.0,0.0,0.0,0.0,0.0,0.0,0.0,0.0,0.0,0.0,0.0,0.0,0.0,0.0,0.0,0.0,0.0,0.0,0.0,0.0,0.0,0.0,0.0,0.0,0.0,0.0,0.0,0.0,0.0,0.0,0.0,0.0,0.0,0.0,-1.118,-1.282,-1.3861,-1.4082,-1.4088,-1.4088,-1.4075,-1.3581,0.0,0.0,0.0,0.0,0.0,0.0,0.0,0.0,0.0,0.0,0.0,0.0,0.0,0.0,0.0,0.0,0.0,0.0,0.0,0.0,0.0,0.0,0.0,0.0,0.0,0.0,0.0,-0.5176,0.0,0.0,0.0,0.0,0.0,0.0,0.0,0.0,0.0,0.0,0.0,0.0,0.0,0.0,-0.8873,-1.2272,-1.4522,-1.4581,0.0,0.0,-1.5535,-1.5791,-1.3068,-1.0611,0.0,0.0,0.0,0.0,0.0,0.0,0.0,0.0,0.0,0.0,0.0,0.0,0.0,0.0,0.0,0.0,0.0,0.0,0.0,0.0,0.0,0.0,0.0,0.0,0.0,0.0,0.0,0.0,0.0,0.0,0.0,0.0,0.0,0.0,0.0,0.0,0.0,0.0,0.0,0.0,0.0,0.0,0.0,0.0,0.0,0.0,0.0,0.0,0.0,0.0,0.0,0.0,0.0,0.0,0.0,-1.1427,-1.3176,-1.4068,-1.4088,-1.4088,-1.4088,-1.4082,-1.3781,-1.3607,0.0,0.0,0.0,0.0,0.0,0.0,0.0,0.0,0.0,0.0,0.0,0.0,0.0,0.0,0.0,0.0,0.0,0.0,0.0,0.0,0.0,0.0,0.0,0.0,0.0,0.0,0.0,0.0,0.0,0.0,0.0,0.0,0.0,0.0,0.0,0.0,0.0,0.0,0.0,0.0,0.0,-0.8716,-1.1876,-1.4346,-1.5021,0.0,0.0,-1.475,-1.5624,-1.4553,-1.2703,-1.0111,0.0,0.0,0.0,0.0,0.0,0.0,0.0,0.0,0.0,0.0,0.0,0.0,0.0,0.0,0.0,0.0,0.0,0.0,0.0,0.0,0.0,0.0,0.0,0.0,0.0,0.0,0.0,0.0,0.0,0.0,0.0,0.0,0.0,0.0,0.0,0.0,0.0,0.0,0.0,0.0,0.0,0.0,0.0,0.0,0.0,0.0,0.0,0.0,0.0,0.0,0.0,0.0,0.0,-1.067,-1.1583,-1.3284,-1.4175,-1.4342,-1.4355,-1.4442,-1.4623,-1.4335,-1.4102,0.0,0.0,0.0,0.0,0.0,0.0,0.0,0.0,0.0,0.0,0.0,0.0,0.0,0.0,0.0,0.0,0.0,0.0,0.0,0.0,0.0,0.0,0.0,0.0,0.0,0.0,0.0,0.0,-0.5897,-0.5914,-0.6343,0.0,0.0,0.0,0.0,0.0,0.0,0.0,0.0,0.0,0.0,-0.9386,-1.1965,-1.4327,0.0,0.0,-1.2808,-1.3179,-1.4223,-1.3077,-1.1708,-1.078,-0.9488,0.0,0.0,0.0,0.0,0.0,0.0,0.0,0.0,0.0,0.0,0.0,0.0,0.0,0.0,0.0,0.0,0.0,0.0,0.0,0.0,0.0,0.0,0.0,0.0,0.0,0.0,0.0,0.0,0.0,0.0,0.0,0.0,0.0,0.0,0.0,0.0,0.0,0.0,0.0,0.0,0.0,0.0,0.0,0.0,0.0,0.0,0.0,0.0,0.0,0.0,0.0,0.0,-1.1094,-1.1925,-1.347,-1.4355,-1.4643,-1.4649,-1.4756,-1.495,-1.4763,-1.4556,0.0,0.0,0.0,0.0,0.0,0.0,0.0,0.0,0.0,0.0,0.0,0.0,0.0,0.0,0.0,0.0,0.0,0.0,0.0,0.0,0.0,0.0,0.0,0.0,0.0,0.0,0.0,0.0,-0.6106,-0.6106,-0.6507,0.0,0.0,0.0,0.0,0.0,0.0,0.0,0.0,0.0,0.0,-1.0605,-1.2395,-1.4487,-1.5311,-1.3786,-1.2974,-1.2329,-1.2004,-1.1733,-1.1744,-1.2104,0.0,0.0,0.0,0.0,0.0,0.0,0.0,0.0,0.0,0.0,0.0,0.0,0.0,0.0,0.0,0.0,0.0,0.0,0.0,0.0,0.0,0.0,0.0,0.0,0.0,0.0,0.0,0.0,0.0,0.0,-0.6069,0.0,0.0,0.0,0.0,0.0,0.0,0.0,0.0,0.0,0.0,0.0,0.0,0.0,0.0,0.0,0.0,0.0,0.0,0.0,0.0,0.0,0.0,-1.1524,-1.2448,-1.3844,-1.4656,-1.4943,-1.4957,-1.4963,-1.4977,-1.4963,-1.4957,-1.4937,0.0,0.0,0.0,0.0,0.0,0.0,0.0,0.0,0.0,0.0,0.0,0.0,0.0,0.0,0.0,0.0,0.0,0.0,0.0,0.0,0.0,0.0,0.0,0.0,0.0,0.0,-0.6364,-0.6288,-0.6324,0.0,0.0,0.0,0.0,0.0,0.0,0.0,0.0,0.0,0.0,-1.1905,-1.2536,-1.3447,-1.4843,-1.5673,-1.5604,-1.4371,-1.2331,-0.882,-1.1141,-1.3713,0.0,0.0,0.0,0.0,0.0,0.0,0.0,0.0,0.0,0.0,0.0,0.0,0.0,0.0,0.0,0.0,0.0,0.0,0.0,0.0,0.0,0.0,0.0,0.0,0.0,0.0,0.0,-0.8538,-0.8328,0.0,0.0,0.0,0.0,0.0,0.0,0.0,0.0,0.0,0.0,0.0,-1.1758,-1.1755,0.0,0.0,0.0,0.0,0.0,0.0,0.0,0.0,0.0,0.0,0.0,0.0,-1.2176,-1.2952,-1.4216,-1.4957,-1.5237,-1.5251,-1.5344,-1.5531,-1.5538,-1.5444,-1.5257,0.0,0.0,0.0,0.0,0.0,0.0,0.0,0.0,0.0,0.0,0.0,0.0,0.0,0.0,0.0,0.0,0.0,0.0,0.0,0.0,0.0,0.0,0.0,0.0,0.0,-0.7613,0.0,0.0,0.0,0.0,0.0,0.0,0.0,0.0,0.0,0.0,0.0,-1.0598,-1.2655,-1.2754,-1.3317,-1.486,-1.4302,-1.3761,0.0,0.0,0.0,0.0,0.0,0.0,0.0,0.0,0.0,0.0,0.0,0.0,0.0,0.0,-0.656,-0.6554,-0.6452,-0.6461,-0.7173,0.0,0.0,0.0,0.0,0.0,0.0,0.0,0.0,0.0,0.0,0.0,0.0,0.0,0.0,-1.0253,0.0,-0.9879,0.0,0.0,0.0,0.0,0.0,0.0,0.0,0.0,-1.2301,-1.2898,-1.333,-1.3248,-1.3385,0.0,-1.3019,-1.2365,0.0,0.0,0.0,0.0,0.0,0.0,0.0,0.0,-1.2875,-1.3484,-1.4597,-1.5251,-1.5531,-1.5551,-1.5638,-1.5818,-1.5825,-1.5691,-1.5411,-1.5023,-1.4689,0.0,0.0,0.0,0.0,0.0,0.0,0.0,0.0,0.0,0.0,0.0,0.0,0.0,0.0,0.0,0.0,0.0,0.0,0.0,0.0,0.0,0.0,0.0,-0.8484,0.0,0.0,0.0,0.0,0.0,0.0,0.0,0.0,0.0,-1.0149,-1.0711,-1.1706,-1.3465,-1.3686,-1.407,-1.5342,0.0,0.0,0.0,0.0,0.0,0.0,0.0,-1.1849,-1.2246,-1.2059,-1.1136,-0.8993,-0.8591,-0.8391,-0.7858,0.0,0.0,-0.6864,-0.6834,-0.7111,-0.758,-0.7768,-0.7674,-0.7299,-0.7299,-0.7299,0.0,0.0,0.0,0.0,0.0,0.0,0.0,0.0,-1.219,-1.1991,0.0,-1.1827,0.0,0.0,0.0,0.0,0.0,-1.1373,0.0,0.0,-1.452,-1.5153,-1.4746,-1.4989,-1.5127,-1.5107,-1.428,-1.4063,-1.4212,-1.3256,0.0,0.0,0.0,0.0,0.0,0.0,-1.3777,-1.4321,-1.4983,-1.5545,-1.5805,-1.5818,-1.5825,-1.5825,-1.5825,-1.5698,-1.5431,-1.5404,-1.5271,-1.499,-1.4696,0.0,0.0,0.0,0.0,0.0,0.0,0.0,0.0,0.0,0.0,0.0,0.0,0.0,0.0,0.0,0.0,0.0,0.0,0.0,0.0,-1.0048,0.0,0.0,0.0,0.0,0.0,0.0,0.0,0.0,0.0,0.0,-1.0824,-1.2159,-1.3296,-1.3832,0.0,0.0,0.0,0.0,-1.2732,-1.2795,-1.4045,-1.417,-1.1774,-1.2406,-1.3389,-1.405,0.0,0.0,-0.8794,-0.9366,-0.9668,-0.8284,-0.7723,-0.7531,-0.7161,-0.7612,-0.79,-0.8001,-0.8001,-0.7907,-0.7708,-0.7611,-0.7614,-1.3076,0.0,0.0,0.0,0.0,-1.2128,-1.2823,-1.3623,-1.3891,-1.386,-1.3523,-1.3508,0.0,0.0,0.0,0.0,0.0,0.0,-1.3181,-1.4101,-1.4812,-1.5272,-1.5491,-1.5571,-1.5611,-1.5611,-1.5337,-1.5291,-1.5384,-1.5034,-1.4321,-1.3305,0.0,0.0,0.0,0.0,-1.433,-1.4884,-1.5365,-1.5745,-1.5825,-1.5825,-1.5825,-1.5825,-1.5825,-1.5785,-1.5705,-1.5698,-1.5571,-1.5284,-1.519,0.0,0.0,0.0,0.0,0.0,0.0,0.0,0.0,0.0,0.0,0.0,0.0,0.0,0.0,0.0,0.0,0.0,0.0,0.0,-1.3039,-1.2492,-1.1145,0.0,0.0,0.0,0.0,0.0,0.0,0.0,0.0,0.0,-1.2963,-1.2595,-1.275,0.0,0.0,-1.4148,-1.4885,-1.4265,-1.3698,-1.3724,0.0,0.0,0.0,-1.3519,-1.3411,-1.2694,-1.2218,-1.2107,-1.2412,-1.0338,-0.8496,-0.8014,-0.7946,-0.7841,-0.7774,-0.7882,-0.8007,-0.8017,-0.8014,-0.8014,-0.7916,-0.7913,-0.7909,-1.4786,-1.3843,-1.3279,-1.3254,-1.3447,-1.3709,-1.4216,-1.495,-1.5113,-1.4935,-1.4682,-1.4701,-1.4069,-1.2925,-1.275,0.0,0.0,0.0,-1.4189,-1.5091,-1.5284,-1.5564,-1.5818,-1.5825,-1.5825,-1.5825,-1.5825,-1.5825,-1.5825,-1.5825,-1.5318,-1.4423,0.0,0.0,-1.4248,-1.4537,-1.4856,-1.5206,-1.5591,-1.5825,-1.5825,-1.5825,-1.5825,-1.5825,-1.5825,-1.5825,-1.5825,-1.5825,-1.5752,-1.5578,-1.5458,-1.5231,0.0,0.0,0.0,0.0,0.0,0.0,0.0,0.0,0.0,0.0,0.0,-0.9303,0.0,0.0,0.0,0.0,-1.2331,-1.3039,-1.4469,-1.3693,0.0,0.0,0.0,0.0,0.0,0.0,0.0,-1.2273,-1.2967,-1.3671,-1.4109,-1.344,-1.3284,-1.4397,-1.3768,-1.3309,-1.3951,0.0,-1.479,-1.48,-1.511,-1.5187,-1.4839,-1.4617,-1.4245,-1.3618,-1.2964,-1.2689,-1.3084,-1.0757,-0.873,-0.8137,-0.8038,-0.8038,-0.8038,-0.8038,-0.8038,-0.8038,-0.8038,-0.8038,-0.8038,-0.8038,-0.8038,-1.5825,-1.5684,-1.4786,-1.4532,-1.4763,-1.5054,-1.5398,-1.5825,-1.5825,-1.5584,-1.5173,-1.5617,-1.5145,-1.4016,-1.3828,0.0,-1.4763,-1.4769,-1.5091,-1.5825,-1.5825,-1.5825,-1.5825,-1.5825,-1.5825,-1.5825,-1.5825,-1.5825,-1.5825,-1.5825,-1.5698,-1.5438,-1.5431,-1.5284,-1.5023,-1.5257,-1.5404,-1.5438,-1.5698,-1.5825,-1.5825,-1.5825,-1.5825,-1.5825,-1.5825,-1.5825,-1.5825,-1.5825,-1.5825,-1.5818,-1.5571,-1.5424,-1.5384,0.0,0.0,0.0,0.0,0.0,0.0,0.0,0.0,0.0,0.0,0.0,0.0,0.0,0.0,0.0,-1.4027,0.0,-1.4963,-1.4014,0.0,0.0,0.0,-1.0651,-1.142,-1.3195,-1.4326,-1.3985,0.0,0.0,-1.4624,0.0,-1.4559,-1.5147,-1.3791,-1.286,-1.2846,-1.4519,-1.5831,-1.5729,-1.577,-1.577,-1.5665,-1.5521,-1.5332,-1.5253,-1.4561,-1.3,-1.175,-1.0587,-0.9316,-0.8237,-0.8038,-0.8038,-0.8038,-0.8038,-0.8038,-0.8038,-0.8038,-0.8038,-0.8038,-0.8038,-0.8038,-1.5825,-1.5812,-1.5584,-1.547,-1.553,-1.5631,-1.567,-1.5825,-1.5825,-1.569,-1.5637,-1.5704,-1.5651,-1.5337,-1.5337,-1.5376,-1.5536,-1.553,-1.5664,-1.5825,-1.5825,-1.5825,-1.5825,-1.5825,-1.5825,-1.5825,-1.5825,-1.5825,-1.5825,-1.5825,-1.5798,-1.5732,-1.5725,-1.5578,-1.5304,-1.5364,-1.5504,-1.5725,-1.5792,-1.5825,-1.5825,-1.5825,-1.5825,-1.5825,-1.5825,-1.5825,-1.5825,-1.5825,-1.5825,-1.5825,-1.5765,-1.5625,-1.5404,-1.505,0.0,0.0,0.0,0.0,0.0,0.0,0.0,0.0,0.0,-1.1018,-1.2863,0.0,-1.4154,0.0,-1.495,-1.5271,-1.5021,-1.4826,0.0,0.0,-1.3613,-1.3314,-1.3579,-1.4715,-1.5192,-1.4643,-1.4884,-1.5101,-1.5199,-1.5199,-1.5299,-1.5876,-1.5006,-1.4248,-1.4056,-1.4963,-1.579,-1.5805,-1.5825,-1.5832,-1.5745,-1.5765,-1.5445,-1.4465,-1.2522,-1.0462,-0.9151,-0.8693,-0.8336,-0.8038,-0.8038,-0.8038,-0.8035,-0.8038,-0.8038,-0.8038,-0.8038,-0.8038,-0.8038,-0.8038,-0.8038,-1.6292,-1.592,-1.7016,-1.7117,-1.6574,-1.6015,-1.5825,-1.5825,-1.5825,-1.5825,-1.5825,-1.5825,-1.5825,-1.5825,-1.5825,-1.5825,-1.5825,-1.5825,-1.5825,-1.5825,-1.5825,-1.5825,-1.5825,-1.5825,-1.5825,-1.5825,-1.5825,-1.5825,-1.5825,-1.5825,-1.5825,-1.5825,-1.5825,-1.5752,-1.5598,-1.5591,-1.5671,-1.5825,-1.5825,-1.5825,-1.5825,-1.5825,-1.592,-1.6116,-1.6021,-1.6055,-1.6113,-1.5919,-1.5765,-1.5643,-1.5565,-1.5565,-1.5398,-1.5124,-1.489,0.0,0.0,0.0,0.0,0.0,0.0,0.0,0.0,0.0,0.0,0.0,-1.5075,0.0,-1.5458,-1.5571,-1.5332,-1.5192,-1.4917,-1.4695,-1.4598,-1.4649,-1.4976,-1.5665,-1.6075,-1.5691,-1.5698,-1.5832,-1.5959,-1.5865,-1.5945,-1.6406,-1.5969,-1.5461,-1.5145,-1.5481,-1.5852,-1.5787,-1.5807,-1.5615,-1.5133,-1.5473,-1.5358,-1.4128,-1.2786,-1.1327,-0.9994,-0.9751,-0.9702,-0.9702,-0.878,-0.7963,-0.8065,-1.0109,-1.0847,-0.8707,-0.8616,-0.8832,-0.8137,-0.8038,-0.8038,-1.7318,-1.6473,-1.858,-1.8864,-1.787,-1.6756,-1.6197,-1.6015,-1.6015,-1.592,-1.5825,-1.592,-1.5927,-1.5825,-1.6015,-1.592,-1.5825,-1.5825,-1.5825,-1.5825,-1.5825,-1.5825,-1.5825,-1.5825,-1.5825,-1.5825,-1.5825,-1.5825,-1.5825,-1.5825,-1.5825,-1.5825,-1.5825,-1.5825,-1.5825,-1.592,-1.592,-1.5825,-1.5825,-1.5825,-1.5832,-1.5927,-1.6109,-1.6683,-1.6501,-1.6455,-1.6613,-1.6141,-1.572,-1.5452,-1.5511,-1.549,-1.5391,-1.5248,-1.5113,0.0,-1.4502,0.0,0.0,0.0,0.0,0.0,0.0,0.0,0.0,-1.4308,-1.4702,-1.5688,-1.5636,-1.5564,-1.5769,-1.542,-1.5164,-1.5219,-1.5166,-1.5297,-1.5757,-1.6359,-1.6765,-1.6772,-1.6542,-1.6426,-1.6627,-1.648,-1.6433,-1.67,-1.6673,-1.6441,-1.6098,-1.5901,-1.5869,-1.5986,-1.5856,-1.5505,-1.4704,-1.4678,-1.4567,-1.4205,-1.4231,-1.3776,-1.2651,-1.1813,-1.156,-1.1575,-1.0028,-0.8691,-0.8481,-1.2494,-1.3992,-1.0181,-1.019,-1.0117,-0.8535,-0.8038,-0.8038,-1.9039,-1.8848,-1.9314,-1.9314,-1.9131,-1.8856,-1.8218,-1.7318,-1.7318,-1.6756,-1.592,-1.685,-1.6756,-1.592,-1.685,-1.6763,-1.5825,-1.5825,-1.5825,-1.5825,-1.5825,-1.5825,-1.5825,-1.5825,-1.5825,-1.5825,-1.5825,-1.5825,-1.5825,-1.5825,-1.5825,-1.5825,-1.5825,-1.5825,-1.5825,0.0,0.0,0.0,-1.5825,-1.5927,-1.6123,-1.6305,-1.6676,-1.7138,-1.7326,0.0,-1.7061,-1.6766,-1.6342,-1.5885,-1.6154,0.0,0.0,0.0,0.0,0.0,0.0,0.0,0.0,0.0,0.0,0.0,-1.4622,-1.4519,-1.4501,-1.4891,-1.5337,-1.5715,-1.5718,-1.5752,-1.5752,-1.5705,-1.5685,-1.5651,-1.5639,-1.5693,-1.5758,-1.6334,-1.6853,-1.7406,-1.6959,-1.664,-1.6707,-1.6653,-1.674,-1.7001,-1.686,-1.6908,-1.7184,-1.6426,-1.6182,-1.6953,-1.646,-1.5862,-1.5869,-1.2871,-1.2215,-1.4238,-1.5466,-1.5294,-1.4849,-1.2396,-1.0927,-1.1697,-1.1476,-1.1105,-1.1208,-1.3693,-1.546,-1.4412,-1.2818,-1.0881,-0.8528,-0.8038,-0.8038,-2.0212,0.0,-2.0773,-2.0944,0.0,-2.1033,-2.0584,-1.9405,-1.8864,-1.8226,-1.7662,-1.8311,-1.8218,-1.7662,-1.8319,-1.8218,-1.7576,-1.703,-1.6756,-1.6669,-1.6109,-1.6103,-1.6756,-1.6763,-1.6763,-1.6756,-1.6756,-1.6834,-1.6975,-1.7077,-1.7428,-1.8243,-1.7587,-1.7209,-1.7209,-1.7875,-1.7728,-1.6763,-1.6763,-1.6487,-1.6035,-1.6918,-1.7574,-1.7893,0.0,0.0,0.0,0.0,0.0,0.0,0.0,0.0,0.0,0.0,0.0,-1.6615,-1.6472,-1.6169,-1.5471,-1.5511,-1.5671,-1.5818,-1.5927,-1.5738,-1.5231,-1.5444,-1.5611,-1.5825,-1.598,-1.6046,-1.6059,-1.6179,-1.6259,-1.6273,-1.5954,-1.5927,-1.6282,-1.6747,-1.7265,-1.7502,-1.7265,-1.6974,-1.7121,-1.7001,-1.7054,-1.7301,-1.7241,-1.7298,-1.7418,-1.6869,-1.6583,-1.7387,-1.7157,-1.64,-1.5626,-1.4166,-1.2614,-1.4765,-1.548,-1.5761,-1.58,-1.4244,-1.2721,-1.2139,-1.1905,-1.2185,-1.3647,-1.4986,-1.5827,-1.5667,-1.4075,-1.2646,-1.1742,-1.0829,-0.9895,-2.1642,-2.0511,-2.2532,-2.2761,-2.1857,-2.2792,-2.2656,-2.148,0.0,0.0,0.0,-1.967,-1.967,-1.9488,-1.9761,-1.9679,-1.9405,-1.8503,-1.8056,-1.7956,-1.6936,-1.7052,-1.8132,-1.814,-1.817,-1.8224,-1.8224,-1.8361,-1.8716,-1.8724,-1.9431,-2.0545,-1.961,-1.9228,-1.9423,-1.9423,-1.9143,-1.8629,-1.8318,-1.7762,-1.6831,-1.811,-1.8981,-1.9079,-2.028,-2.075,-2.0369,-1.8978,-1.8548,-1.9075,-1.8322,-1.8269,-1.9337,-1.977,-1.9393,-1.8092,-1.8209,-1.7844,-1.6628,-1.6884,-1.7127,-1.7079,-1.7,-1.6701,-1.5879,-1.5852,-1.5979,-1.5979,-1.6213,-1.6353,-1.6458,-1.656,-1.6707,-1.6707,-1.6293,-1.6212,-1.6686,-1.7272,-1.7578,-1.7571,-1.7441,-1.7308,-1.7515,-1.7368,-1.7308,-1.7522,-1.7542,-1.7589,-1.7555,-1.714,-1.6995,-1.7455,-1.7483,-1.7038,-1.5912,-1.5758,-1.5748,-1.5163,-1.5439,-1.5728,-1.5817,-1.558,-1.4702,-1.3098,-1.2316,-1.2824,-1.4589,-1.5337,-1.5763,-1.585,-1.4694,-1.4088,-1.5158,-1.4104,-1.264,-2.3909,-2.376,-2.4055,-2.3933,-2.3502,-2.3602,-2.3388,-2.2687,-2.0494,-1.9497,-1.9588,-2.0576,-2.0486,-1.9588,-2.0576,-2.0486,-1.9488,-1.9314,-1.9222,0.0,-1.9039,-1.9285,-1.9755,-1.9764,-1.9927,-2.0309,-2.0325,-2.035,-2.0391,-2.0495,-2.0616,-2.0762,-2.057,-2.0971,-2.1933,-2.2028,-2.1975,-2.1869,-2.0906,-2.0429,-2.0446,-2.087,-2.1251,-2.1707,-2.2043,-2.2003,-2.1329,-2.081,-2.0447,-2.0097,-2.0243,-2.0317,-2.0441,-2.0985,-2.0537,-1.9145,-1.9845,-2.0006,-1.9278,-1.9758,-1.9652,-1.8543,-1.8459,-1.7682,-1.5965,-1.6328,-1.658,-1.6587,-1.6613,-1.664,-1.6653,-1.67,-1.6747,-1.674,-1.6596,-1.6619,-1.6734,-1.7211,-1.762,-1.7613,-1.7634,-1.7522,-1.7555,-1.7535,-1.7515,-1.7575,-1.7589,-1.7589,-1.7575,-1.7549,-1.7522,-1.76,-1.7646,-1.7407,-1.6942,-1.713,-1.6934,-1.6493,-1.5999,-1.5868,-1.5804,-1.5107,-1.461,-1.5049,-1.3471,-1.2486,-1.2885,-1.4303,-1.5534,-1.5763,-1.5439,-1.5458,-1.581,-1.5287,-1.5127,-2.4629,-2.4424,-2.4424,-2.4307,-2.4111,-2.3887,-2.3535,-2.3057,-2.1952,-2.1489,-2.1498,-2.2041,-2.1943,-2.1498,-2.2041,-2.1943,-2.14,-2.0755,-2.0598,-2.0815,-2.0163,-2.0441,-2.1344,-2.1473,-2.156,-2.1735,-2.1735,-2.1831,-2.2119,-2.2145,-2.2645,-2.3335,-2.2753,-2.2345,-2.2149,-2.285,-2.3247,-2.3141,-2.224,-2.1544,-2.0971,-2.1944,-2.244,-2.2443,-2.3409,-2.3636,-2.3133,-2.2355,-2.2071,-2.2541,-2.2071,-2.2068,-2.2704,-2.3185,-2.3017,-2.204,-2.2231,-2.2547,-2.2947,-2.1858,-2.1057,-2.0369,-2.0369,-1.9345,-1.6914,-1.6747,-1.682,-1.7168,-1.7069,-1.6947,-1.6954,-1.7088,-1.7181,-1.7181,-1.7191,-1.7147,-1.7264,-1.737,-1.7582,-1.7589,-1.7589,-1.7589,-1.7589,-1.7589,-1.7589,-1.7589,-1.7589,-1.7589,-1.7589,-1.7589,-1.7589,-1.7575,-1.7586,-1.7526,-1.7479,-1.7483,-1.736,-1.6847,-1.6466,-1.6142,-1.5932,-1.5223,-1.5217,-1.5665,-1.4669,-1.4112,-1.3993,-1.4905,-1.5629,-1.5825,-1.5825,-1.5825,-1.5838,-1.6054,-1.6222,-2.5029,-2.4717,-2.4717,-2.4658,-2.4521,-2.4111,-2.374,-2.3447,-2.3349,-2.3428,-2.3408,-2.3232,-2.3144,-2.3057,-2.3242,-2.3291,-2.3115,-2.2354,-2.2216,-2.241,-2.1569,-2.1866,-2.2997,-2.3128,-2.3174,-2.3257,-2.3266,-2.3432,-2.3689,-2.3832,-2.4494,-2.5509,-2.4609,-2.3592,-2.2659,-2.3592,-2.4196,-2.415,-2.3588,-2.2876,-2.1996,-2.3175,-2.3684,-2.3416,-2.4555,-2.501,-2.4497,-2.3702,-2.3608,-2.4468,-2.3702,-2.3636,-2.4614,-2.5029,-2.5092,-2.4745,-2.4408,-2.4569,-2.5462,-2.3817,-2.2449,-2.203,-2.2148,-2.0841,-1.803,-1.7729,-1.7694,-1.7649,-1.7435,-1.7241,-1.7268,-1.7435,-1.7589,-1.7589,-1.7589,-1.7569,-1.7582,-1.7589,-1.7589,-1.7589,-1.7589,-1.7589,-1.7589,-1.7589,-1.7589,-1.7589,-1.7589,-1.7589,-1.7589,-1.7589,-1.7589,-1.7589,-1.7589,-1.7575,-1.7575,-1.763,-1.7407,-1.6927,-1.6787,-1.6538,-1.6179,-1.6012,-1.5885,-1.5783,-1.5838,-1.5527,-1.5724,-1.5825,-1.5825,-1.5832,-1.579,-1.5863,-1.6079,-1.6522,-1.6796,-2.5635,-2.5615,-2.5586,-2.5381,-2.4961,-2.4541,-2.4316,-2.4277,-2.4297,-2.4297,-2.418,-2.3486,-2.3164,-2.3193,-2.3564,-2.373,-2.376,-2.403,-2.4113,-2.4161,-2.4069,-2.4301,-2.4791,-2.4811,-2.5024,-2.5344,-2.5266,-2.5257,-2.5324,-2.5344,-2.5499,-2.5732,-2.5538,-2.5421,-2.5323,-2.543,-2.5538,-2.5528,-2.546,-2.5315,-2.5315,-2.545,-2.546,-2.5421,-2.5538,-2.5469,-2.5029,-2.4905,-2.4915,-2.501,-2.4915,-2.509,-2.5547,-2.5654,-2.5577,-2.5596,-2.5518,-2.5567,-2.5703,-2.5459,-2.4571,-2.3079,-2.334,-2.1962,-1.8455,-1.9907,-2.0147,-1.854,-1.7735,-1.7711,-1.7542,-1.7667,-1.7793,-1.7996,-1.7674,-1.7589,-1.7575,-1.7589,-1.7589,-1.7589,-1.7589,-1.7589,-1.7589,-1.7589,-1.7589,-1.7589,-1.7589,-1.7589,-1.7589,-1.7589,-1.7589,-1.7589,-1.7589,-1.7589,-1.7575,-1.7575,-1.7573,-1.7422,-1.6995,-1.6739,-1.6533,-1.639,-1.6256,-1.5865,-1.5825,-1.5825,-1.5825,-1.5825,-1.5825,-1.5865,-1.5909,-1.6058,-1.6553,-1.7035,-1.7313,-2.5732,-2.5732,-2.5732,-2.5478,-2.5068,-2.4873,-2.4648,-2.4424,-2.4424,-2.4424,-2.4385,-2.4043,-2.3896,-2.3906,-2.4092,-2.416,-2.417,-2.4346,-2.456,-2.4775,-2.4805,-2.5029,-2.543,-2.5459,-2.5566,-2.5723,-2.5732,-2.5732,-2.5732,-2.5732,-2.5732,-2.5732,-2.5732,-2.5732,-2.5732,-2.5732,-2.5732,-2.5732,-2.5732,-2.5732,-2.5732,-2.5732,-2.5732,-2.5732,-2.5732,-2.5664,-2.5488,-2.5469,-2.5469,-2.5459,-2.5459,-2.5547,-2.5723,-2.5732,-2.5732,-2.5732,-2.5732,-2.5732,-2.5732,-2.5732,-2.5411,-2.4651,-2.4786,-2.4095,-2.2597,-2.2754,-2.2676,-2.2333,-2.0971,-2.0025,-1.993,-1.931,-1.9117,-1.9605,-1.8601,-1.7624,-1.7624,-1.7624,-1.7657,-1.7562,-1.7589,-1.7589,-1.7589,-1.7589,-1.7589,-1.7589,-1.7589,-1.7589,-1.7589,-1.7589,-1.7589,-1.7589,-1.7589,-1.7589,-1.7589,-1.7589,-1.7522,-1.7335,-1.6965,-1.6673,-1.6632,-1.631,-1.5959,-1.5845,-1.5832,-1.5825,-1.5825,-1.5825,-1.5832,-1.5919,-1.6532,-1.6959,-1.7204,-1.7408,-1.7537,-2.5732,-2.5732,-2.5732,-2.5557,-2.5254,-2.5254,-2.5068,-2.4795,-2.4775,-2.4775,-2.4775,-2.4785,-2.4775,-2.4766,-2.4648,-2.459,-2.4609,-2.4717,-2.4941,-2.5234,-2.5254,-2.543,-2.5713,-2.5732,-2.5801,-2.5908,-2.5928,-2.5918,-2.5928,-2.6055,-2.6035,-2.5947,-2.6025,-2.6035,-2.5928,-2.5918,-2.5859,-2.5742,-2.5732,-2.5732,-2.5732,-2.5732,-2.5732,-2.5732,-2.5732,-2.5732,-2.5732,-2.5732,-2.5732,-2.5732,-2.5732,-2.5732,-2.5732,-2.5732,-2.5732,-2.5732,-2.5732,-2.5732,-2.5732,-2.5732,-2.5732,-2.5732,-2.5732,-2.5732,-2.5528,-2.4815,-2.4693,-2.5239,-2.389,-2.2667,-2.1651,-2.0743,-2.0743,-2.1432,-1.9778,-1.8693,-1.8796,-1.8252,-1.7556,-1.7586,-1.7654,-1.7589,-1.7589,-1.7589,-1.7589,-1.7589,-1.7589,-1.7589,-1.7589,-1.7589,-1.7589,-1.7589,-1.7589,-1.7589,-1.7589,-1.7589,-1.7468,-1.7308,-1.7054,-1.6673,-1.667,-1.6263,-1.5879,-1.5905,-1.5858,-1.5838,-1.5858,-1.5852,-1.5956,-1.6082,-1.6708,-1.7462,-1.751,-1.7605,-1.759,-2.5732,-2.5752,-2.5742,-2.5771,-2.5713,-2.5723,-2.5703,-2.5635,-2.5654,-2.5664,-2.5615,-2.5625,-2.5654,-2.5605,-2.5205,-2.5039,-2.5098,-2.5439,-2.5615,-2.5664,-2.5693,-2.5723,-2.5732,-2.5742,-2.5967,-2.6328,-2.6357,-2.6367,-2.6377,-2.6738,-2.6758,-2.6396,-2.6709,-2.6728,-2.6406,-2.6338,-2.6152,-2.583,-2.5752,-2.5732,-2.5732,-2.5732,-2.5732,-2.5732,-2.5732,-2.5732,-2.5732,-2.5732,-2.5732,-2.5732,-2.5732,-2.5732,-2.5732,-2.5732,-2.5732,-2.5732,-2.5732,-2.5732,-2.5732,-2.5732,-2.5732,-2.5732,-2.5732,-2.5732,-2.5732,-2.5528,-2.5547,-2.5655,-2.545,-2.4304,-2.2357,-2.1862,-2.176,-2.1954,-2.1634,-2.1298,-2.1525,-1.9668,-1.7826,-1.7763,-1.7998,-1.8087,-1.7786,-1.7589,-1.7786,-1.7786,-1.7687,-1.7575,-1.7589,-1.7589,-1.7589,-1.7589,-1.7589,-1.7589,-1.7589,-1.7589,-1.7575,-1.7448,-1.7105,-1.6751,-1.6727,-1.6572,-1.6276,-1.6034,-1.5865,-1.5845,-1.5885,-1.5996,-1.6131,-1.6347,-1.6962,-1.7503,-1.7617,-1.7634,-1.7589,-2.6553,-2.6553,-2.6553,-2.6553,-2.6553,-2.6553,-2.6406,-2.6172,-2.6152,-2.5996,-2.5762,-2.5732,-2.5732,-2.5723,-2.5566,-2.5488,-2.5508,-2.5674,-2.5732,-2.5771,-2.6025,-2.6162,-2.6182,-2.6416,-2.6621,-2.6768,-2.6797,-2.6787,-2.6807,-2.6953,-2.6943,-2.6836,-2.6934,-2.6934,-2.6768,-2.6523,-2.6299,-2.6143,-2.5889,-2.5732,-2.5742,-2.5732,-2.5732,-2.5732,-2.5732,-2.5732,-2.5732,-2.5732,-2.5732,-2.5732,-2.5732,-2.5732,-2.5732,-2.5732,-2.5732,-2.5732,-2.5732,-2.5732,-2.5732,-2.5732,-2.5732,-2.5732,-2.5732,-2.5732,-2.5732,-2.5732,-2.5732,-2.5732,-2.5732,-2.5118,-2.4501,-2.3484,-2.3285,-2.3872,-2.2746,-2.2472,-2.3636,-2.3335,-2.2207,-2.0672,-2.0184,-2.0223,-2.0017,-2.0231,-1.9826,-1.9005,-1.8199,-1.7664,-1.7654,-1.7582,-1.7562,-1.7582,-1.7589,-1.7589,-1.7589,-1.7589,-1.7569,-1.7607,-1.7328,-1.7027,-1.6867,-1.6381,-1.5985,-1.5992,-1.5899,-1.5923,-1.6029,-1.6603,-1.6647,-1.6649,-1.7181,-1.7542,-1.7634,-1.7629,-1.7662,-2.7012,-2.7012,-2.7012,-2.7012,-2.7012,-2.7012,-2.6855,-2.6602,-2.6592,-2.6348,-2.6016,-2.6094,-2.6084,-2.5996,-2.6084,-2.6152,-2.6123,-2.6025,-2.6016,-2.6162,-2.6445,-2.6592,-2.6641,-2.6885,-2.71,-2.7236,-2.7373,-2.7373,-2.7256,-2.7363,-2.7363,-2.7236,-2.7344,-2.7353,-2.7197,-2.6934,-2.6748,-2.6562,-2.6299,-2.6094,-2.5977,-2.5947,-2.5947,-2.5918,-2.582,-2.5732,-2.5732,-2.5732,-2.5732,-2.5732,-2.5732,-2.5732,-2.5732,-2.5732,-2.5732,-2.5732,-2.5732,-2.5732,-2.5732,-2.5732,-2.5732,-2.5732,-2.5732,-2.5732,-2.5732,-2.5732,-2.5732,-2.5732,-2.5732,-2.5732,-2.5528,-2.4815,-2.4716,-2.5411,-2.4049,-2.3664,-2.5338,-2.5669,-2.4236,-2.2198,-2.1533,-2.1643,-2.1744,-2.1643,-2.1143,-2.0333,-1.8788,-1.7674,-1.7563,-1.759,-1.7596,-1.7825,-1.9591,-2.0431,-2.02,-1.9502,-1.8094,-1.7711,-1.7479,-1.719,-1.6935,-1.6328,-1.5993,-1.6092,-1.6092,-1.6155,-1.6466,-1.7048,-1.7177,-1.6975,-1.7211,-1.756,-1.7602,-1.7716,-1.7769,-2.7051,-2.709,-2.7031,-2.7109,-2.7139,-2.7139,-2.706,-2.7031,-2.7031,-2.6787,-2.6465,-2.6777,-2.6689,-2.6523,-2.6719,-2.6953,-2.6904,-2.6611,-2.6602,-2.6885,-2.6982,-2.7021,-2.7031,-2.7119,-2.7344,-2.7676,-2.8057,-2.8037,-2.7705,-2.7978,-2.7988,-2.7793,-2.8008,-2.7969,-2.7666,-2.7578,-2.7393,-2.708,-2.6924,-2.6748,-2.6455,-2.6387,-2.6387,-2.6348,-2.6035,-2.585,-2.5801,-2.5762,-2.5732,-2.5732,-2.5732,-2.5742,-2.5781,-2.583,-2.5791,-2.5801,-2.5762,-2.5752,-2.5732,-2.5732,-2.5732,-2.5732,-2.5732,-2.5732,-2.5732,-2.5732,-2.5732,-2.5732,-2.5732,-2.5732,-2.5732,-2.5528,-2.5528,-2.5732,-2.5285,-2.5411,-2.5586,-2.5672,-2.469,-2.2627,-2.2156,-2.1853,-2.1853,-2.2156,-2.2156,-2.1476,-2.0054,-1.8542,-1.8506,-1.8644,-1.8195,-1.9021,-2.1404,-2.3502,-2.2732,-2.1526,-1.9457,-1.7816,-1.7452,-1.7141,-1.7171,-1.6707,-1.6474,-1.6505,-1.6493,-1.6547,-1.6794,-1.7258,-1.7434,-1.7408,-1.7607,-1.7681,-1.7842,-1.797,-1.7943,-2.79,-2.7891,-2.79,-2.79,-2.79,-2.7891,-2.7744,-2.7471,-2.7471,-2.7217,-2.6894,-2.6953,-2.6943,-2.6865,-2.6973,-2.7178,-2.7441,-2.7314,-2.7197,-2.71,-2.7334,-2.7471,-2.7519,-2.7754,-2.7959,-2.8096,-2.8223,-2.8232,-2.8135,-2.8223,-2.8213,-2.8154,-2.8223,-2.8232,-2.8066,-2.7822,-2.7578,-2.7461,-2.7158,-2.6934,-2.6826,-2.6826,-2.6826,-2.6807,-2.6689,-2.6611,-2.6592,-2.6055,-2.5752,-2.5742,-2.5732,-2.5869,-2.6152,-2.6465,-2.6484,-2.623,-2.6191,-2.6025,-2.5781,-2.5742,-2.5742,-2.5732,-2.5732,-2.5732,-2.5732,-2.5732,-2.5732,-2.5732,-2.5732,-2.5732,-2.5732,-2.5732,-2.5732,-2.5732,-2.5732,-2.5732,-2.5742,-2.5713,-2.5312,-2.4745,-2.4412,-2.4412,-2.4412,-2.4402,-2.389,-2.3294,-2.2824,-2.2381,-2.1075,-2.1702,-2.3129,-2.3631,-2.5459,-2.5632,-2.4363,-2.312,-2.1444,-1.9826,-1.8964,-1.7661,-1.7394,-1.7225,-1.6988,-1.6901,-1.6894,-1.7007,-1.7264,-1.7378,-1.7519,-1.7705,-1.7837,-1.7993,-1.811,-1.8326,-1.8381,-2.8301,-2.8301,-2.8301,-2.8301,-2.8301,-2.8301,-2.8144,-2.792,-2.79,-2.7656,-2.7334,-2.7432,-2.7393,-2.7314,-2.7402,-2.7637,-2.7881,-2.79,-2.7754,-2.7549,-2.7734,-2.79,-2.793,-2.8154,-2.8301,-2.8301,-2.8291,-2.8301,-2.8301,-2.8301,-2.8291,-2.8291,-2.8301,-2.8291,-2.8281,-2.8047,-2.7891,-2.7861,-2.7637,-2.7422,-2.7285,-2.7246,-2.7256,-2.7236,-2.71,-2.71,-2.7187,-2.6572,-2.6143,-2.6016,-2.5977,-2.6123,-2.6396,-2.6878,-2.7035,-2.6829,-2.6731,-2.6575,-2.6064,-2.6006,-2.5889,-2.5781,-2.5732,-2.5732,-2.5732,-2.5732,-2.5732,-2.5732,-2.5732,-2.5732,-2.5732,-2.5732,-2.5732,-2.5732,-2.5732,-2.5732,-2.5732,-2.5732,-2.5635,-2.5528,-2.5528,-2.5732,-2.5732,-2.5635,-2.5421,-2.4745,-2.5163,-2.5446,-2.389,-2.4553,-2.5348,-2.5633,-2.5666,-2.5647,-2.5576,-2.4509,-2.3335,-2.2038,-2.0837,-1.913,-1.7931,-1.7468,-1.7218,-1.7258,-1.7264,-1.7867,-1.8116,-1.766,-1.7617,-1.7782,-1.8485,-1.8814,-1.9204,-1.9106,-1.9132,-2.8301,-2.8301,-2.8301,-2.8301,-2.8301,-2.8301,-2.8271,-2.8271,-2.8271,-2.8037,-2.7832,-2.8229,-2.8219,-2.8042,-2.8315,-2.8483,-2.8378,-2.8242,-2.8213,-2.829,-2.8436,-2.8426,-2.8232,-2.8271,-2.8291,-2.8301,-2.8301,-2.8301,-2.8301,-2.8301,-2.8301,-2.8301,-2.8301,-2.8301,-2.8281,-2.8388,-2.8455,-2.8213,-2.8329,-2.8219,-2.781,-2.7695,-2.7695,-2.7685,-2.7383,-2.7344,-2.7578,-2.7236,-2.6826,-2.6484,-2.6475,-2.6543,-2.6682,-2.7117,-2.7432,-2.7294,-2.7314,-2.7058,-2.6653,-2.6416,-2.6279,-2.5878,-2.5781,-2.5801,-2.5928,-2.5918,-2.5898,-2.5937,-2.5869,-2.581,-2.581,-2.5742,-2.5742,-2.5732,-2.5732,-2.5732,-2.5732,-2.5732,-2.5732,-2.5732,-2.5732,-2.5732,-2.5732,-2.5732,-2.5635,-2.5635,-2.5664,-2.545,-2.545,-2.541,-2.5655,-2.5703,-2.5693,-2.5712,-2.5573,-2.5239,-2.418,-2.3863,-2.2702,-2.1195,-1.9629,-1.9194,-1.8687,-1.8525,-1.7826,-1.8469,-1.9206,-1.9265,-1.9133,-1.9502,-1.9983,-2.0243,-2.0534,-2.0811,-2.0483,-2.8301,-2.8301,-2.8301,-2.8301,-2.8301,-2.8301,-2.8291,-2.8291,-2.8291,-2.8426,-2.8357,-2.9252,-2.9745,-2.9662,-2.9745,-2.9807,-2.9608,-2.8794,-2.8301,-2.8504,-2.9408,-2.9102,-2.8495,-2.8301,-2.8291,-2.8398,-2.8398,-2.8301,-2.8301,-2.8398,-2.8291,-2.8301,-2.8417,-2.8408,-2.8398,-2.9323,-2.9207,-2.8591,-2.9408,-2.9262,-2.8347,-2.8202,-2.8125,-2.8105,-2.8094,-2.8084,-2.8076,-2.7715,-2.7295,-2.6914,-2.7178,-2.7334,-2.7314,-2.777,-2.7741,-2.731,-2.7408,-2.728,-2.6741,-2.668,-2.6627,-2.641,-2.6238,-2.6377,-2.692,-2.6506,-2.6406,-2.6514,-2.6426,-2.6221,-2.6172,-2.5937,-2.5781,-2.5732,-2.5742,-2.5732,-2.5732,-2.5732,-2.5732,-2.5732,-2.5732,-2.5732,-2.5732,-2.5732,-2.5732,-2.5732,-2.5732,-2.5732,-2.5732,-2.5732,-2.5732,-2.5732,-2.5684,-2.5664,-2.5655,-2.5459,-2.5245,-2.5245,-2.452,-2.3565,-2.2689,-2.2443,-2.1777,-2.1379,-1.9147,-1.8964,-2.1081,-2.2265,-2.2037,-2.173,-2.3143,-2.4068,-2.3504,-2.3461,-2.2816,-2.8301,-2.8301,-2.8301,-2.8301,-2.8398,-2.891,-2.8794,-2.8601,-2.9503,-2.9608,-2.9503,-3.0514,-3.1133,-3.1122,-3.1122,-3.1122,-3.1019,-3.0317,-3.0016,-3.012,-3.0824,-3.0421,-2.9408,-2.9112,-2.9102,-2.9102,-2.9102,-2.9217,-2.9207,-2.9102,-2.891,-2.8544,-2.908,-2.9399,-2.9323,-3.0632,-3.1006,-3.0359,-3.0721,-3.0732,-3.0016,-3.0005,-3.0005,-3.0005,-3.0016,-2.9807,-2.9262,-2.8965,-2.8321,-2.7639,-2.7529,-2.7676,-2.7695,-2.7891,-2.7783,-2.7305,-2.7373,-2.7139,-2.6836,-2.6894,-2.688,-2.6832,-2.6637,-2.6807,-2.7035,-2.6768,-2.6657,-2.6894,-2.6878,-2.681,-2.6582,-2.626,-2.5917,-2.5751,-2.5723,-2.5742,-2.5732,-2.5732,-2.5732,-2.5732,-2.5732,-2.5732,-2.5732,-2.5732,-2.5732,-2.5732,-2.5732,-2.5732,-2.5732,-2.5732,-2.5732,-2.5732,-2.5732,-2.5732,-2.5732,-2.5538,-2.5538,-2.5538,-2.543,-2.4707,-2.4631,-2.4546,-2.4199,-2.2963,-2.0817,-1.9914,-2.2181,-2.4061,-2.4555,-2.4951,-2.6763,-2.676,-2.5718,-2.528,-2.468,-2.8591,-2.8495,-2.8708,-2.8601,-2.8794,-2.9922,-2.9911,-2.9408,-3.1122,-3.152,-3.1019,-3.1938,-3.2543,-3.2532,-3.2543,-3.2543,-3.2532,-3.2039,-3.2241,-3.223,-3.2443,-3.1971,-3.1273,-3.066,-3.0525,-3.0535,-3.0557,-3.063,-3.0673,-3.0641,-3.0005,-2.9813,-3.0716,-3.0969,-3.1102,-3.2447,-3.2915,-3.2341,-3.2488,-3.2398,-3.2104,-3.1991,-3.2013,-3.1991,-3.1858,-3.1235,-3.0421,-3.0057,-2.9393,-2.7849,-2.7734,-2.7783,-2.7764,-2.7754,-2.7695,-2.7637,-2.7432,-2.7266,-2.7119,-2.7178,-2.7207,-2.7226,-2.7168,-2.7129,-2.7197,-2.7026,-2.6875,-2.7285,-2.7393,-2.7324,-2.7035,-2.6621,-2.6219,-2.5846,-2.5722,-2.5655,-2.5732,-2.5732,-2.5732,-2.5732,-2.5732,-2.5732,-2.5732,-2.5732,-2.5732,-2.5732,-2.5732,-2.5732,-2.5732,-2.5732,-2.5732,-2.5732,-2.5732,-2.5732,-2.5732,-2.5635,-2.5635,-2.5635,-2.5635,-2.5333,-2.5352,-2.5309,-2.5513,-2.4669,-2.2845,-2.2404,-2.3211,-2.4774,-2.5863,-2.6681,-2.7408,-2.695,-2.6259,-2.6347,-2.6027,-3.0824,-2.9911,-3.1019,-3.0824,-3.0224,-3.1327,-3.1735,-3.1429,-3.2028,-3.2331,-3.2241,-3.3353,-3.3871,-3.397,-3.397,-3.397,-3.3761,-3.3044,-3.2844,-3.3871,-3.397,-3.4117,-3.3657,-3.2791,-3.1971,-3.207,-3.2369,-3.2513,-3.2627,-3.2513,-3.2421,-3.2246,-3.2367,-3.2738,-3.29,-3.4003,-3.4182,-3.3447,-3.4032,-3.402,-3.3288,-3.3175,-3.3175,-3.3119,-3.2724,-3.1746,-3.0628,-3.0328,-2.9567,-2.8579,-2.8231,-2.8318,-2.8105,-2.8105,-2.7949,-2.7754,-2.7861,-2.7812,-2.7646,-2.7734,-2.7998,-2.79,-2.7685,-2.7666,-2.7959,-2.7532,-2.7561,-2.7851,-2.8022,-2.7831,-2.7402,-2.68,-2.6326,-2.5952,-2.5761,-2.5732,-2.5732,-2.5732,-2.5732,-2.5732,-2.5732,-2.5732,-2.5732,-2.5732,-2.5732,-2.5732,-2.5732,-2.5732,-2.5732,-2.5732,-2.5732,-2.5732,-2.5732,-2.5732,-2.5732,-2.5732,-2.5732,-2.5732,-2.5732,-2.5723,-2.5742,-2.5762,-2.5898,-2.5741,-2.5245,-2.4988,-2.4607,-2.5233,-2.6348,-2.709,-2.7821,-2.7515,-2.7372,-2.737,-2.7292,-3.1825,-3.1327,-3.2028,-3.1927,-3.1531,-3.2644,-3.2944,-3.2632,-3.3737,-3.3836,-3.365,-3.4775,-3.5367,-3.5367,-3.5379,-3.5367,-3.5162,-3.4666,-3.4798,-3.5588,-3.577,-3.6039,-3.6307,-3.5553,-3.4763,-3.4295,-3.4312,-3.4451,-3.4565,-3.4462,-3.4142,-3.3774,-3.4348,-3.4693,-3.4783,-3.6009,-3.6214,-3.5577,-3.5997,-3.6021,-3.5194,-3.5035,-3.4869,-3.4703,-3.4296,-3.3639,-3.2454,-3.2241,-3.1531,-3.0421,-2.9608,-2.89,-2.8339,-2.8115,-2.7891,-2.7754,-2.7607,-2.7764,-2.7715,-2.7871,-2.8047,-2.8281,-2.8076,-2.8115,-2.8203,-2.7931,-2.7941,-2.8193,-2.8231,-2.8121,-2.7865,-2.7133,-2.6598,-2.6294,-2.5867,-2.5762,-2.5732,-2.5732,-2.5732,-2.5732,-2.5732,-2.5732,-2.5732,-2.5732,-2.5732,-2.5732,-2.5732,-2.5732,-2.5732,-2.5732,-2.5732,-2.5732,-2.5732,-2.5732,-2.5732,-2.5732,-2.5732,-2.5732,-2.5732,-2.5683,-2.571,-2.5917,-2.6035,-2.5869,-2.5741,-2.5602,-2.5448,-2.6203,-2.6832,-2.7609,-2.8117,-2.8259,-2.8184,-2.7844,-2.7854,-3.2844,-3.2632,-3.2844,-3.2833,-3.2844,-3.4068,-3.4068,-3.354,-3.5343,-3.5559,-3.5078,-3.5966,-3.6168,-3.637,-3.6263,-3.637,-3.6383,-3.6438,-3.6472,-3.6843,-3.7055,-3.7417,-3.7792,-3.7668,-3.7304,-3.6621,-3.6471,-3.6459,-3.6447,-3.6447,-3.6026,-3.5248,-3.6291,-3.6759,-3.6933,-3.7876,-3.8191,-3.7456,-3.7643,-3.7779,-3.7344,-3.7244,-3.6983,-3.641,-3.6028,-3.5367,-3.4276,-3.397,-3.3575,-3.2342,-3.1224,-3.012,-2.9116,-2.8104,-2.7764,-2.7764,-2.7578,-2.7607,-2.7803,-2.7851,-2.7978,-2.8281,-2.8281,-2.8281,-2.8281,-2.8262,-2.8252,-2.8262,-2.8242,-2.8242,-2.8223,-2.7588,-2.7139,-2.6773,-2.616,-2.5752,-2.5742,-2.5732,-2.5732,-2.5732,-2.5732,-2.5732,-2.5732,-2.5732,-2.5732,-2.5732,-2.5732,-2.5732,-2.5732,-2.5732,-2.5732,-2.5732,-2.5732,-2.5732,-2.5732,-2.5781,-2.5771,-2.5918,-2.5879,-2.5867,-2.5862,-2.6297,-2.6526,-2.6141,-2.5904,-2.591,-2.629,-2.6958,-2.7678,-2.8147,-2.8335,-2.83,-2.8262,-2.8291,-2.8301,-3.5054,-3.4166,-3.5259,-3.5066,-3.4362,-3.5463,-3.5858,-3.5846,-3.6156,-3.6263,-3.6073,-3.6263,-3.637,-3.637,-3.637,-3.637,-3.6445,-3.6734,-3.7073,-3.7324,-3.7651,-3.8178,-3.863,-3.873,-3.8728,-3.8966,-3.855,-3.8187,-3.8301,-3.8403,-3.7959,-3.8098,-3.8299,-3.8351,-3.8351,-3.8831,-3.8831,-3.8454,-3.8592,-3.8605,-3.8467,-3.8366,-3.7914,-3.7073,-3.6646,-3.5837,-3.4884,-3.4385,-3.3761,-3.2431,-3.2118,-3.1836,-3.1214,-2.9505,-2.8559,-2.8519,-2.843,-2.8495,-2.8404,-2.8251,-2.831,-2.8281,-2.8301,-2.8301,-2.8301,-2.8301,-2.8301,-2.8301,-2.8301,-2.8291,-2.8281,-2.7793,-2.7412,-2.691,-2.6313,-2.573,-2.5732,-2.5742,-2.5732,-2.5732,-2.5732,-2.5732,-2.5732,-2.5732,-2.5732,-2.5732,-2.5732,-2.5732,-2.5732,-2.5732,-2.5732,-2.5732,-2.5732,-2.5732,-2.5732,-2.5801,-2.5879,-2.6182,-2.6269,-2.6135,-2.6338,-2.6855,-2.6875,-2.6734,-2.6454,-2.6168,-2.6737,-2.7672,-2.8042,-2.8268,-2.83,-2.8291,-2.8301,-2.8301,-2.8301,-3.6061,-3.5571,-3.6156,-3.6061,-3.5571,-3.6061,-3.637,-3.637,-3.637,-3.637,-3.637,-3.637,-3.637,-3.637,-3.637,-3.637,-3.6508,-3.6923,-3.7324,-3.7638,-3.8191,-3.8755,-3.9233,-3.9283,-3.9433,-3.9559,-3.9408,-3.9283,-3.9308,-3.9295,-3.927,-3.9295,-3.9295,-3.9295,-3.9295,-3.9308,-3.912,-3.9019,-3.912,-3.9145,-3.8906,-3.8881,-3.8266,-3.7425,-3.6948,-3.636,-3.5692,-3.5475,-3.5162,-3.4447,-3.3749,-3.3464,-3.2744,-3.1724,-3.0421,-3.0411,-3.0317,-2.9911,-2.9503,-2.9303,-2.9102,-2.8398,-2.8281,-2.8301,-2.8301,-2.8301,-2.8301,-2.8301,-2.8301,-2.8301,-2.8281,-2.792,-2.7731,-2.7447,-2.6546,-2.5843,-2.571,-2.5752,-2.5723,-2.581,-2.5801,-2.5801,-2.5732,-2.5732,-2.5732,-2.5732,-2.5732,-2.5732,-2.5732,-2.5732,-2.5732,-2.5655,-2.5664,-2.5723,-2.5889,-2.6055,-2.6182,-2.6455,-2.668,-2.6643,-2.6856,-2.7305,-2.7653,-2.7666,-2.7246,-2.6664,-2.6912,-2.7649,-2.8018,-2.8339,-2.8271,-2.8301,-2.8301,-2.8301,-2.831,-3.637,-3.637,-3.637,-3.637,-3.637,-3.637,-3.637,-3.637,-3.637,-3.637,-3.637,-3.637,-3.637,-3.637,-3.637,-3.637,-3.6433,-3.7023,-3.76,-3.8027,-3.8718,-3.9295,-3.9559,-3.9697,-3.9685,-3.9659,-3.9659,-3.9697,-3.9634,-3.9622,-3.9672,-3.9634,-3.9672,-3.9697,-3.9659,-3.9597,-3.9371,-3.9333,-3.9408,-3.9421,-3.9145,-3.8881,-3.8492,-3.76,-3.7412,-3.7098,-3.6551,-3.6405,-3.6388,-3.5908,-3.5367,-3.4775,-3.4569,-3.3749,-3.3143,-3.3032,-3.2632,-3.1724,-3.1122,-3.0721,-3.0317,-2.9608,-2.8625,-2.8539,-2.8601,-2.8601,-2.8301,-2.8301,-2.8301,-2.8301,-2.8262,-2.8008,-2.8042,-2.7939,-2.708,-2.6203,-2.6087,-2.6071,-2.6083,-2.6024,-2.5888,-2.5898,-2.585,-2.5732,-2.5732,-2.5732,-2.5732,-2.5732,-2.5732,-2.5732,-2.5742,-2.5664,-2.5713,-2.58,-2.6084,-2.6516,-2.6712,-2.6894,-2.7109,-2.7182,-2.7415,-2.7773,-2.7969,-2.8086,-2.7853,-2.7419,-2.7535,-2.7699,-2.8019,-2.8271,-2.8291,-2.8301,-2.8301,-2.834,-2.8369,-3.637,-3.637,-3.637,-3.637,-3.637,-3.637,-3.637,-3.637,-3.637,-3.637,-3.637,-3.637,-3.637,-3.637,-3.637,-3.637,-3.6659,-3.7349,-3.7877,-3.814,-3.9007,-3.9546,-3.9672,-3.9697,-3.9697,-3.9697,-3.9697,-3.9697,-3.9697,-3.9697,-3.9697,-3.9697,-3.9697,-3.9697,-3.9697,-3.9697,-3.9659,-3.9609,-3.9659,-3.9659,-3.9509,-3.9132,-3.8831,-3.8517,-3.814,-3.76,-3.7098,-3.696,-3.6822,-3.6395,-3.6263,-3.6156,-3.6156,-3.6061,-3.5953,-3.5234,-3.3934,-3.223,-3.2264,-3.2151,-3.1836,-3.1003,-2.9814,-2.925,-2.9176,-2.9061,-2.8688,-2.8301,-2.8398,-2.8291,-2.8291,-2.8242,-2.8288,-2.8216,-2.791,-2.732,-2.7012,-2.6829,-2.6731,-2.6611,-2.6643,-2.6211,-2.6016,-2.5859,-2.5732,-2.5732,-2.5742,-2.5693,-2.5732,-2.5712,-2.5996,-2.5985,-2.5807,-2.5884,-2.6426,-2.6839,-2.7104,-2.7305,-2.751,-2.7685,-2.7871,-2.8047,-2.8144,-2.8203,-2.8009,-2.798,-2.7999,-2.8058,-2.8271,-2.8301,-2.8301,-2.8301,-2.8301,-2.8359,-2.8506,-3.637,-3.637,-3.637,-3.637,-3.637,-3.637,-3.637,-3.637,-3.637,-3.637,-3.637,-3.637,-3.637,-3.637,-3.637,-3.637,-3.6609,-3.75,-3.799,-3.8253,-3.9094,-3.9685,-3.9697,-3.9697,-3.9697,-3.9697,-3.9697,-3.9697,-3.9697,-3.9697,-3.9697,-3.9697,-3.9697,-3.9697,-3.9697,-3.9697,-3.9697,-3.9685,-3.9697,-3.9697,-3.9634,-3.9446,-3.9182,-3.8894,-3.8617,-3.8052,-3.745,-3.7186,-3.691,-3.6483,-3.637,-3.637,-3.637,-3.6358,-3.6358,-3.625,-3.5355,-3.4688,-3.4596,-3.3889,-3.3289,-3.2409,-3.1138,-3.0322,-2.9824,-3.0055,-2.9683,-2.8371,-2.9096,-2.9092,-2.8495,-2.8291,-2.8329,-2.8308,-2.8256,-2.8088,-2.7811,-2.7799,-2.763,-2.7518,-2.7275,-2.6888,-2.6562,-2.6533,-2.6435,-2.6338,-2.6248,-2.6158,-2.5968,-2.5676,-2.6064,-2.6562,-2.6251,-2.5939,-2.6744,-2.7353,-2.755,-2.7721,-2.7861,-2.8027,-2.8135,-2.8271,-2.8301,-2.8301,-2.8232,-2.8242,-2.8301,-2.8301,-2.8301,-2.8301,-2.8301,-2.8272,-2.8369,-2.8691,-2.8916,-3.637,-3.637,-3.637,-3.637,-3.637,-3.637,-3.637,-3.637,-3.637,-3.637,-3.637,-3.637,-3.637,-3.637,-3.6383,-3.6458,-3.6659,-3.7575,-3.804,-3.853,-3.9107,-3.9634,-3.9697,-3.9697,-3.9697,-3.9697,-3.9697,-3.9697,-3.9697,-3.9697,-3.9697,-3.9697,-3.9697,-3.9697,-3.9697,-3.9697,-3.9697,-3.9697,-3.9697,-3.9697,-3.9685,-3.9685,-3.9446,-3.922,-3.8981,-3.8605,-3.7764,-3.745,-3.7149,-3.6722,-3.642,-3.637,-3.637,-3.637,-3.637,-3.6358,-3.5966,-3.6077,-3.5817,-3.5248,-3.4397,-3.365,-3.2844,-3.2184,-3.1373,-3.1929,-3.1858,-2.9746,-2.9673,-2.9513,-2.8698,-2.8291,-2.8271,-2.83,-2.8308,-2.8315,-2.8311,-2.8123,-2.8034,-2.7979,-2.7731,-2.7519,-2.7353,-2.7344,-2.7226,-2.7021,-2.6861,-2.6628,-2.6497,-2.6263,-2.6599,-2.7196,-2.71,-2.6763,-2.702,-2.7614,-2.7829,-2.7986,-2.8125,-2.8252,-2.8281,-2.8301,-2.8301,-2.8301,-2.832,-2.8301,-2.8301,-2.8301,-2.8301,-2.834,-2.8408,-2.8456,-2.8503,-2.8875,-2.9307,-3.637,-3.637,-3.637,-3.637,-3.637,-3.637,-3.637,-3.637,-3.637,-3.637,-3.637,-3.637,-3.637,-3.637,-3.6408,-3.6609,-3.7098,-3.7726,-3.8191,-3.8743,-3.9371,-3.9647,-3.9697,-3.9697,-3.9697,-3.9697,-3.9697,-3.9697,-3.9697,-3.9697,-3.9697,-3.9697,-3.9697,-3.9697,-3.9697,-3.9697,-3.9697,-3.9697,-3.9697,-3.9697,-3.9697,-3.9697,-3.9647,-3.9634,-3.9572,-3.9346,-3.8755,-3.8216,-3.7626,-3.7073,-3.6684,-3.6383,-3.6383,-3.637,-3.637,-3.637,-3.637,-3.6445,-3.6256,-3.6173,-3.6193,-3.5763,-3.5066,-3.4433,-3.4421,-3.3021,-3.2285,-3.2042,-3.1581,-3.0214,-2.9207,-2.8398,-2.9006,-2.8946,-2.8846,-2.8344,-2.8335,-2.8241,-2.8192,-2.829,-2.8221,-2.8035,-2.8091,-2.8022,-2.7676,-2.7471,-2.7516,-2.7289,-2.7599,-2.7467,-2.7653,-2.8041,-2.8034,-2.7865,-2.7646,-2.7947,-2.8123,-2.8182,-2.8213,-2.8271,-2.8291,-2.8301,-2.8301,-2.8379,-2.8418,-2.835,-2.835,-2.8476,-2.8643,-2.8467,-2.8545,-2.867,-2.9098,-2.9619,-2.9863,-3.637,-3.637,-3.637,-3.637,-3.637,-3.637,-3.637,-3.637,-3.637,-3.637,-3.637,-3.637,-3.637,-3.637,-3.637,-3.6458,-3.681,-3.7638,-3.809,-3.858,-3.9145,-3.9609,-3.9697,-3.9697,-3.9697,-3.9697,-3.9697,-3.9697,-3.9697,-3.9697,-3.9697,-3.9697,-3.9697,-3.9697,-3.9697,-3.9697,-3.9697,-3.9697,-3.9697,-3.9697,-3.9697,-3.9697,-3.9697,-3.9697,-3.9697,-3.9408,-3.8919,-3.868,-3.8027,-3.74,-3.701,-3.6709,-3.6433,-3.6395,-3.637,-3.637,-3.637,-3.637,-3.637,-3.637,-3.637,-3.6358,-3.5883,-3.5861,-3.641,-3.5235,-3.4918,-3.441,-3.3419,-3.1858,-3.1019,-3.0824,-3.0916,-3.0358,-2.9673,-2.886,-2.842,-2.8519,-2.9363,-2.9784,-2.9122,-2.8608,-2.8714,-2.8734,-2.8374,-2.791,-2.7976,-2.8052,-2.8232,-2.8336,-2.8296,-2.8287,-2.8246,-2.8325,-2.7998,-2.8135,-2.8301,-2.8301,-2.8301,-2.833,-2.834,-2.8301,-2.832,-2.8428,-2.8584,-2.8505,-2.8573,-2.8878,-2.8859,-2.8505,-2.8799,-2.9101,-2.9609,-3.0299,-3.0361,-3.637,-3.637,-3.637,-3.637,-3.637,-3.637,-3.637,-3.637,-3.637,-3.637,-3.637,-3.637,-3.637,-3.637,-3.637,-3.6671,-3.7048,-3.7676,-3.8178,-3.8743,-3.9346,-3.9659,-3.9697,-3.9697,-3.9697,-3.9697,-3.9697,-3.9697,-3.9697,-3.9697,-3.9697,-3.9697,-3.9697,-3.9697,-3.9697,-3.9697,-3.9697,-3.9697,-3.9697,-3.9697,-3.9697,-3.9697,-3.9697,-3.9697,-3.9697,-3.9559,-3.9195,-3.8919,-3.8504,-3.7877,-3.7387,-3.6998,-3.6697,-3.6471,-3.6383,-3.637,-3.637,-3.637,-3.637,-3.637,-3.637,-3.6358,-3.637,-3.6275,-3.637,-3.6383,-3.5985,-3.5978,-3.4978,-3.3871,-3.2532,-3.2028,-3.1825,-3.1385,-3.0901,-3.0087,-2.9384,-2.9198,-3.0483,-3.1451,-3.0745,-3.012,-3.012,-3.0214,-2.9242,-2.872,-2.8086,-2.8182,-2.8202,-2.8318,-2.8251,-2.8251,-2.83,-2.8242,-2.8281,-2.8301,-2.8301,-2.8301,-2.832,-2.8291,-2.8301,-2.8408,-2.8623,-2.9055,-2.9053,-2.8645,-2.8804,-2.903,-2.8855,-2.8503,-2.9001,-2.9852,-3.0049,-3.0576,-3.0684,-3.6358,-3.637,-3.6358,-3.637,-3.637,-3.637,-3.637,-3.637,-3.637,-3.637,-3.637,-3.637,-3.637,-3.637,-3.637,-3.6797,-3.7513,-3.7889,-3.8429,-3.9207,-3.9496,-3.9672,-3.9697,-3.9697,-3.9697,-3.9697,-3.9697,-3.9697,-3.9697,-3.9697,-3.9697,-3.9697,-3.9697,-3.9697,-3.9697,-3.9697,-3.9697,-3.9697,-3.9697,-3.9697,-3.9697,-3.9697,-3.9697,-3.9697,-3.9697,-3.9597,-3.9484,-3.9195,-3.8843,-3.8492,-3.7814,-3.7387,-3.7061,-3.6659,-3.6471,-3.637,-3.637,-3.637,-3.637,-3.637,-3.637,-3.637,-3.637,-3.637,-3.637,-3.6408,-3.6413,-3.6257,-3.543,-3.4091,-3.3044,-3.2532,-3.2733,-3.2733,-3.2353,-3.2085,-3.1392,-3.1186,-3.2689,-3.3028,-3.2589,-3.2129,-3.2129,-3.1825,-3.0525,-2.9587,-2.8688,-2.8271,-2.8329,-2.8291,-2.8291,-2.8301,-2.8301,-2.8301,-2.8301,-2.8301,-2.8301,-2.8301,-2.8389,-2.8535,-2.8583,-2.869,-2.9072,-2.9574,-2.9473,-2.9365,-2.9201,-2.9288,-2.9259,-2.9308,-3.0049,-3.0606,-3.077,-3.085,-3.0879,-3.6144,-3.5868,-3.6207,-3.637,-3.637,-3.637,-3.637,-3.637,-3.637,-3.637,-3.637,-3.637,-3.637,-3.637,-3.6445,-3.681,-3.7437,-3.7952,-3.853,-3.9132,-3.9521,-3.9659,-3.9697,-3.9697,-3.9697,-3.9697,-3.9697,-3.9697,-3.9697,-3.9697,-3.9697,-3.9697,-3.9697,-3.9697,-3.9697,-3.9697,-3.9697,-3.9697,-3.9697,-3.9697,-3.9697,-3.9697,-3.9697,-3.9697,-3.9697,-3.9697,-3.9697,-3.9408,-3.9245,-3.8969,-3.8291,-3.7952,-3.7437,-3.6948,-3.6722,-3.6483,-3.637,-3.637,-3.637,-3.637,-3.637,-3.637,-3.637,-3.637,-3.637,-3.637,-3.6388,-3.638,-3.5911,-3.5162,-3.515,-3.5054,-3.5174,-3.5247,-3.4981,-3.4927,-3.4568,-3.4687,-3.5183,-3.4557,-3.4053,-3.3024,-3.2632,-3.3132,-3.223,-3.1338,-3.0525,-2.887,-2.8466,-2.828,-2.8291,-2.8291,-2.8301,-2.8301,-2.8301,-2.8272,-2.8467,-2.8516,-2.876,-2.8937,-2.8975,-2.9069,-2.9551,-3.0187,-3.0089,-2.999,-2.9971,-3.0052,-3.0227,-3.0508,-3.0738,-3.0892,-3.0878,-3.0869,-3.0889,-3.5881,-3.5617,-3.6132,-3.637,-3.637,-3.637,-3.637,-3.637,-3.637,-3.637,-3.637,-3.637,-3.637,-3.6408,-3.6596,-3.6935,-3.7487,-3.8052,-3.8617,-3.9145,-3.9509,-3.9659,-3.9697,-3.9697,-3.9697,-3.9697,-3.9697,-3.9697,-3.9697,-3.9697,-3.9697,-3.9697,-3.9697,-3.9697,-3.9697,-3.9697,-3.9697,-3.9697,-3.9697,-3.9697,-3.9697,-3.9697,-3.9697,-3.9697,-3.9697,-3.9697,-3.9697,-3.9634,-3.9546,-3.9195,-3.8881,-3.8555,-3.7914,-3.7362,-3.7086,-3.6734,-3.6433,-3.6408,-3.637,-3.637,-3.637,-3.637,-3.637,-3.637,-3.637,-3.637,-3.637,-3.6395,-3.637,-3.6358,-3.6358,-3.637,-3.6395,-3.6376,-3.6248,-3.6183,-3.6172,-3.6137,-3.6136,-3.5649,-3.5356,-3.4233,-3.361,-3.3836,-3.4032,-3.3243,-3.2342,-3.0681,-2.896,-2.843,-2.8349,-2.8262,-2.834,-2.8398,-2.8349,-2.8427,-2.8515,-2.8721,-2.9055,-2.942,-2.9424,-2.9443,-3.0172,-3.063,-3.0571,-3.0486,-3.076,-3.083,-3.0752,-3.0713,-3.0809,-3.0878,-3.0879,-3.0898,-3.0898,-3.5424,-3.5604,-3.6107,-3.6332,-3.637,-3.637,-3.637,-3.637,-3.637,-3.637,-3.637,-3.637,-3.637,-3.6471,-3.6897,-3.7412,-3.7939,-3.8517,-3.9069,-3.9471,-3.9659,-3.9697,-3.9697,-3.9697,-3.9697,-3.9697,-3.9697,-3.9697,-3.9697,-3.9697,-3.9697,-3.9697,-3.9697,-3.9697,-3.9697,-3.9697,-3.9697,-3.9697,-3.9697,-3.9697,-3.9697,-3.9697,-3.9697,-3.9697,-3.9697,-3.9697,-3.9697,-3.9672,-3.9672,-3.9471,-3.9195,-3.8969,-3.8504,-3.7814,-3.7437,-3.7086,-3.6734,-3.6571,-3.6609,-3.6659,-3.6458,-3.6483,-3.6395,-3.6383,-3.637,-3.637,-3.637,-3.637,-3.637,-3.637,-3.637,-3.637,-3.637,-3.6383,-3.6383,-3.6363,-3.6363,-3.6488,-3.6589,-3.6443,-3.6434,-3.5975,-3.5915,-3.595,-3.5442,-3.5416,-3.4575,-3.3536,-3.15,-2.86,-2.8473,-2.831,-2.831,-2.8516,-2.8505,-2.875,-2.9004,-2.939,-2.9545,-2.98,-2.9799,-2.986,-3.0391,-3.075,-3.0907,-3.0898,-3.0898,-3.0898,-3.0879,-3.0966,-3.0917,-3.0937,-3.0898,-3.0898,-3.0898,-3.4964,-3.5014,-3.5554,-3.5994,-3.6332,-3.637,-3.637,-3.637,-3.637,-3.637,-3.637,-3.637,-3.6383,-3.642,-3.6935,-3.7487,-3.8065,-3.8605,-3.9145,-3.9496,-3.9697,-3.9697,-3.9697,-3.9697,-3.9697,-3.9697,-3.9697,-3.9697,-3.9697,-3.9697,-3.9697,-3.9697,-3.9697,-3.9697,-3.9697,-3.9697,-3.9697,-3.9697,-3.9697,-3.9697,-3.9697,-3.9697,-3.9697,-3.9697,-3.9697,-3.9697,-3.9697,-3.9697,-3.9697,-3.9609,-3.9534,-3.9346,-3.8806,-3.853,-3.8291,-3.7751,-3.7362,-3.7098,-3.7374,-3.7161,-3.6764,-3.6468,-3.6426,-3.6383,-3.637,-3.637,-3.637,-3.637,-3.6458,-3.6508,-3.6571,-3.6584,-3.6621,-3.6659,-3.6621,-3.6451,-3.6526,-3.6968,-3.7069,-3.7278,-3.7245,-3.7224,-3.7236,-3.6989,-3.6601,-3.696,-3.6789,-3.5657,-3.4472,-3.1722,-3.0474,-3.0462,-2.9952,-3.0591,-2.949,-2.9372,-2.9688,-2.9974,-3.0181,-3.0133,-3.0032,-3.0112,-3.0538,-3.082,-3.0879,-3.0898,-3.0898,-3.0898,-3.0898,-3.0898,-3.0859,-3.0879,-3.0898,-3.0898,-3.0898,-3.4525,-3.4788,-3.5316,-3.5855,-3.632,-3.637,-3.637,-3.637,-3.637,-3.637,-3.637,-3.637,-3.6483,-3.6734,-3.7086,-3.7613,-3.8404,-3.8705,-3.9157,-3.9584,-3.9697,-3.9697,-3.9697,-3.9697,-3.9697,-3.9697,-3.9697,-3.9697,-3.9697,-3.9697,-3.9697,-3.9697,-3.9697,-3.9697,-3.9697,-3.9697,-3.9697,-3.9697,-3.9697,-3.9697,-3.9697,-3.9697,-3.9697,-3.9697,-3.9697,-3.9697,-3.9697,-3.9697,-3.9697,-3.9697,-3.9697,-3.9572,-3.9069,-3.8818,-3.804,-3.7462,-3.7299,-3.7543,-3.7931,-3.7748,-3.719,-3.6684,-3.6568,-3.6596,-3.6433,-3.637,-3.637,-3.6383,-3.6571,-3.6722,-3.6797,-3.6872,-3.6973,-3.7048,-3.673,-3.64,-3.6868,-3.7374,-3.7648,-3.7871,-3.7874,-3.7864,-3.7814,-3.7626,-3.755,-3.764,-3.763,-3.7231,-3.6783,-3.5836,-3.497,-3.4898,-3.3872,-3.32,-3.1898,-3.0628,-3.0903,-3.1035,-3.0585,-3.0527,-3.0217,-3.0402,-3.0752,-3.084,-3.0889,-3.0898,-3.0898,-3.0898,-3.0898,-3.0898,-3.0898,-3.0898,-3.0898,-3.0898,-3.0898,-3.4186,-3.4788,-3.5366,-3.5918,-3.6332,-3.637,-3.637,-3.637,-3.637,-3.637,-3.637,-3.637,-3.6596,-3.6872,-3.7236,-3.7826,-3.8467,-3.8868,-3.927,-3.9697,-3.9697,-3.9697,-3.9697,-3.9697,-3.9697,-3.9697,-3.9697,-3.9697,-3.9697,-3.9697,-3.9697,-3.9697,-3.9697,-3.9697,-3.9697,-3.9697,-3.9697,-3.9697,-3.9697,-3.9697,-3.9697,-3.9697,-3.9697,-3.9697,-3.9697,-3.9697,-3.9697,-3.9697,-3.9697,-3.9697,-3.9697,-3.9672,-3.9346,-3.863,-3.7613,-3.7321,-3.7358,-3.788,-3.8295,-3.8174,-3.7739,-3.723,-3.7077,-3.6826,-3.6614,-3.642,-3.637,-3.6471,-3.6646,-3.6897,-3.7023,-3.7337,-3.7525,-3.7525,-3.723,-3.7045,-3.7242,-3.7852,-3.8477,-3.8591,-3.8592,-3.8567,-3.8492,-3.8329,-3.8253,-3.8191,-3.7929,-3.7902,-3.816,-3.8135,-3.8154,-3.8012,-3.705,-3.5638,-3.4296,-3.3269,-3.2731,-3.2347,-3.2014,-3.095,-3.0724,-3.0794,-3.0927,-3.1218,-3.1606,-3.1015,-3.0898,-3.0898,-3.0898,-3.0898,-3.0898,-3.0898,-3.0898,-3.0898,-3.0898,-3.3847,-3.4813,-3.5768,-3.6257,-3.6345,-3.637,-3.637,-3.637,-3.637,-3.637,-3.637,-3.6383,-3.6458,-3.6722,-3.7362,-3.7927,-3.8316,-3.8919,-3.9484,-3.9659,-3.9697,-3.9697,-3.9697,-3.9697,-3.9697,-3.9697,-3.9697,-3.9697,-3.9697,-3.9697,-3.9697,-3.9697,-3.9697,-3.9697,-3.9697,-3.9697,-3.9697,-3.9697,-3.9697,-3.9697,-3.9697,-3.9697,-3.9697,-3.9697,-3.9697,-3.9697,-3.9697,-3.9697,-3.9697,-3.9697,-3.9697,-3.9697,-3.9647,-3.8592,-3.839,-3.8589,-3.766,-3.807,-3.845,-3.8576,-3.8252,-3.8365,-3.8164,-3.7327,-3.6768,-3.6584,-3.6458,-3.6596,-3.6822,-3.7111,-3.74,-3.7789,-3.8103,-3.7941,-3.7792,-3.7754,-3.7605,-3.8304,-3.9146,-3.9183,-3.9182,-3.9157,-3.9094,-3.9057,-3.9019,-3.873,-3.8253,-3.8227,-3.8941,-3.9162,-3.9022,-3.9,-3.9185,-3.8082,-3.6719,-3.6044,-3.5597,-3.544,-3.5268,-3.3566,-3.1543,-3.221,-3.3028,-3.2539,-3.2309,-3.1662,-3.1053,-3.0898,-3.0898,-3.0898,-3.0898,-3.0898,-3.0898,-3.0898,-3.0898,-3.3571,-3.4474,-3.5542,-3.6144,-3.6345,-3.637,-3.637,-3.637,-3.637,-3.637,-3.637,-3.6383,-3.6483,-3.6584,-3.7174,-3.7914,-3.8228,-3.8693,-3.9207,-3.9521,-3.9697,-3.9697,-3.9697,-3.9697,-3.9697,-3.9697,-3.9697,-3.9697,-3.9697,-3.9697,-3.9697,-3.9697,-3.9697,-3.9697,-3.9697,-3.9697,-3.9697,-3.9697,-3.9697,-3.9697,-3.9697,-3.9697,-3.9697,-3.9697,-3.9697,-3.9697,-3.9697,-3.9697,-3.9697,-3.9697,-3.9697,-3.9471,-3.9207,-3.8467,-3.8065,-3.7864,-3.7575,-3.7623,-3.8313,-3.8679,-3.8717,-3.9094,-3.8969,-3.7941,-3.8171,-3.7927,-3.7341,-3.748,-3.7801,-3.8115,-3.8291,-3.8617,-3.8868,-3.8931,-3.8817,-3.8792,-3.8792,-3.9107,-3.9486,-3.9536,-3.9496,-3.9484,-3.9433,-3.9408,-3.9383,-3.9371,-3.8878,-3.8689,-3.9368,-3.9697,-3.9697,-3.9747,-3.9748,-3.9705,-3.8607,-3.8445,-3.85,-3.8479,-3.8083,-3.6547,-3.4692,-3.498,-3.5234,-3.443,-3.3254,-3.1836,-3.1387,-3.1216,-3.0986,-3.0898,-3.0898,-3.0898,-3.0898,-3.0898,-3.0898,-3.3458,-3.4123,-3.5127,-3.5855,-3.632,-3.637,-3.637,-3.637,-3.637,-3.637,-3.637,-3.637,-3.6671,-3.6747,-3.681,-3.7688,-3.8316,-3.8542,-3.8956,-3.9471,-3.9685,-3.9697,-3.9697,-3.9697,-3.9697,-3.9697,-3.9697,-3.9697,-3.9697,-3.9697,-3.9697,-3.9697,-3.9697,-3.9697,-3.9697,-3.9697,-3.9697,-3.9697,-3.9697,-3.9697,-3.9697,-3.9697,-3.9697,-3.9697,-3.9697,-3.9697,-3.9697,-3.9697,-3.9697,-3.9697,-3.9685,-3.9509,-3.9057,-3.8479,-3.7629,-3.7317,-3.7265,-3.7484,-3.7947,-3.8541,-3.9043,-3.9433,-3.9083,-3.9032,-3.9229,-3.8901,-3.8298,-3.83,-3.8718,-3.8818,-3.8981,-3.9207,-3.9446,-3.9597,-3.9597,-3.9597,-3.9622,-3.9634,-3.9672,-3.9697,-3.9697,-3.9697,-3.9685,-3.9672,-3.9685,-3.9697,-3.9697,-3.9697,-3.9697,-3.9697,-3.9697,-3.9697,-3.9719,-3.9706,-3.9747,-3.9678,-3.9705,-3.9588,-3.888,-3.8275,-3.7772,-3.7457,-3.6939,-3.6086,-3.4781,-3.3187,-3.2045,-3.159,-3.1377,-3.1053,-3.0935,-3.0905,-3.0898,-3.0898,-3.0898,-3.3658,-3.4625,-3.5278,-3.5843,-3.6307,-3.6358,-3.637,-3.637,-3.637,-3.637,-3.637,-3.637,-3.6458,-3.6546,-3.6948,-3.7588,-3.8153,-3.8366,-3.8994,-3.9609,-3.9685,-3.9697,-3.9697,-3.9697,-3.9697,-3.9697,-3.9697,-3.9697,-3.9697,-3.9697,-3.9697,-3.9697,-3.9697,-3.9697,-3.9697,-3.9697,-3.9697,-3.9697,-3.9697,-3.9697,-3.9697,-3.9697,-3.9697,-3.9697,-3.9697,-3.9697,-3.9697,-3.9697,-3.9697,-3.9697,-3.9697,-3.9597,-3.9245,-3.8668,-3.7953,-3.748,-3.739,-3.7538,-3.8063,-3.8604,-3.9108,-3.9385,-3.926,-3.9449,-3.9449,-3.9399,-3.9032,-3.907,-3.926,-3.9045,-3.9094,-3.9408,-3.9647,-3.9659,-3.9659,-3.9659,-3.9672,-3.9672,-3.9685,-3.9697,-3.9697,-3.9697,-3.9697,-3.9685,-3.9685,-3.9697,-3.9697,-3.9697,-3.9697,-3.9697,-3.9697,-3.9697,-3.9697,-3.9697,-3.971,-3.971,-3.9653,-3.9653,-3.9665,-3.905,-3.8961,-3.93,-3.8764,-3.7595,-3.63,-3.4759,-3.3604,-3.2455,-3.1747,-3.1496,-3.1097,-3.0859,-3.0915,-3.1112,-3.1218]},{"header":{"parameterUnit":"m.s-1","parameterCategory":1,"la1":31.0,"la2":29.5877,"lo1":-88.7671,"lo2":-86.6584,"dy":0.0162,"dx":0.0185,"nx":115,"ny":88,"refTime":"2023-04-28T18:00:00:Z","depth":0,"parameterNumber":3,"parameterNumberName":"V-component_of_WINDS"},"data":[0.0,0.0,0.0,0.0,0.0,0.0,0.0,0.0,0.0,0.0,0.0,0.0,0.0,0.0,0.0,0.0,0.0,0.0,0.0,0.0,0.0,0.0,0.0,0.0,0.0,0.0,0.0,0.0,0.0,0.0,0.0,0.0,0.0,0.0,0.0,0.0,0.0,0.0,0.0,0.0,0.0,0.0,0.0,0.0,0.0,0.0,0.0,0.0,0.0,0.0,0.0,0.0,0.0,0.0,0.0,0.0,0.0,0.0,0.0,0.0,0.0,0.0,0.0,0.0,0.0,0.0,0.0,0.0,0.0,0.0,0.0,0.0,0.0,0.0,0.0,0.0,0.0,0.0,0.0,0.0,0.0,0.0,0.0,0.0,0.0,0.0,0.0,0.0,0.0,0.0,0.0,0.0,0.0,0.0,0.0,0.0,0.0,0.0,0.0,0.0,0.0,0.0,0.0,0.0,0.0,0.0,0.0,0.0,0.0,0.0,0.0,0.0,0.0,0.0,0.0,0.0,0.0,0.0,0.0,0.0,0.0,0.0,0.0,0.0,0.0,0.0,0.0,0.0,0.0,0.0,0.0,0.0,0.0,0.0,0.0,0.0,0.0,0.0,0.0,0.0,0.0,0.0,0.0,0.0,0.0,0.0,0.0,0.0,0.0,0.0,0.0,0.0,0.0,0.0,0.0,0.0,0.0,0.0,0.0,0.0,0.0,0.0,0.0,0.0,0.0,0.0,0.0,0.0,0.0,0.0,0.0,0.0,0.0,0.0,0.0,0.0,0.0,0.0,0.0,0.0,0.0,0.0,0.0,0.0,0.0,0.0,0.0,0.0,0.0,0.0,0.0,0.0,0.0,0.0,0.0,0.0,0.0,0.0,0.0,0.0,0.0,0.0,0.0,0.0,0.0,0.0,0.0,0.0,0.0,0.0,0.0,0.0,0.0,0.0,0.0,0.0,0.0,0.0,0.0,0.0,0.0,0.0,0.0,0.0,0.0,0.0,0.0,0.0,0.0,0.0,0.0,0.0,0.0,0.0,0.0,0.0,0.0,0.0,0.0,0.0,0.0,0.0,0.0,0.0,0.0,0.0,0.0,0.0,0.0,0.0,0.0,0.0,0.0,0.0,0.0,0.0,0.0,0.0,0.0,0.0,0.0,0.0,0.0,0.0,0.0,0.0,0.0,0.0,0.0,0.0,0.0,0.0,0.0,0.0,0.0,0.0,0.0,0.0,0.0,0.0,0.0,0.0,0.0,0.0,0.0,0.0,0.0,0.0,0.0,0.0,0.0,0.0,0.0,0.0,0.0,0.0,0.0,0.0,0.0,0.0,0.0,0.0,0.0,0.0,0.0,0.0,0.0,0.0,0.0,0.0,0.0,0.0,0.0,0.0,0.0,0.0,0.0,0.0,0.0,0.0,0.0,0.0,0.0,0.0,0.0,0.0,0.0,0.0,0.0,0.0,0.0,0.0,0.0,0.0,0.0,0.0,0.0,0.0,0.0,0.0,0.0,0.0,0.0,0.0,0.0,0.0,0.0,0.0,0.0,0.0,0.0,0.0,0.0,0.0,0.0,0.0,0.0,0.0,0.0,0.0,0.0,0.0,0.0,0.0,0.0,0.0,0.0,0.0,0.0,0.0,0.0,0.0,0.0,0.0,0.0,0.0,0.0,0.0,0.0,0.0,0.0,0.0,0.0,0.0,0.0,0.0,0.0,0.0,0.0,0.0,0.0,0.0,0.0,0.0,0.0,0.0,0.0,0.0,0.0,0.0,0.0,0.0,0.0,0.0,0.0,0.0,0.0,0.0,0.0,0.0,0.0,0.0,0.0,0.0,0.0,0.0,0.0,0.0,0.0,0.0,0.0,0.0,0.0,0.0,0.0,0.0,0.0,0.0,0.0,0.0,0.0,0.0,0.0,0.0,0.0,0.0,0.0,0.0,0.0,0.0,0.0,0.0,0.0,0.0,0.0,0.0,0.0,0.0,0.0,0.0,0.0,0.0,0.0,0.0,0.0,0.0,0.0,0.0,0.0,0.0,0.0,0.0,0.0,0.0,0.0,0.0,0.0,0.0,0.0,0.0,0.0,0.0,0.0,0.0,0.0,0.0,0.0,0.0,0.0,0.0,0.0,0.0,0.0,0.0,0.0,0.0,0.0,0.0,0.0,0.0,0.0,0.0,0.0,0.0,0.0,0.0,0.0,0.0,0.0,0.0,0.0,0.0,0.0,0.0,0.0,0.0,0.0,0.0,0.0,0.0,0.0,0.0,0.0,0.0,0.0,0.0,0.0,0.0,0.0,0.0,0.0,0.0,0.0,0.0,0.0,0.0,0.0,0.0,0.0,0.0,0.0,0.0,0.0,0.0,0.0,0.0,0.0,0.0,0.0,0.0,0.0,0.0,0.0,0.0,0.0,0.0,0.0,0.0,0.0,0.0,0.0,0.0,0.0,0.0,0.0,0.0,0.0,0.0,0.0,0.0,0.0,0.0,0.0,0.0,0.0,0.0,0.0,0.0,0.0,0.0,0.0,0.0,0.0,0.0,0.0,0.0,0.0,0.0,0.0,0.0,0.0,0.0,0.0,0.0,0.0,0.0,0.0,0.0,0.0,0.0,0.0,0.0,0.0,0.0,0.0,0.0,0.0,0.0,0.0,0.0,0.0,0.0,0.0,0.0,0.0,0.0,0.0,0.0,0.0,0.0,0.0,0.0,0.0,0.0,0.0,0.0,0.0,0.0,0.0,0.0,0.0,0.0,0.0,0.0,0.0,0.0,0.0,0.0,0.0,0.0,0.0,0.0,0.0,0.0,0.0,0.0,0.0,0.0,0.0,0.0,0.0,0.0,0.0,0.0,0.0,0.0,0.0,0.0,0.0,0.0,0.0,0.0,0.0,0.0,0.0,0.0,0.0,0.0,0.0,0.0,0.0,0.0,0.0,0.0,0.0,0.0,0.0,0.0,0.0,0.0,0.0,0.0,0.0,0.0,0.0,0.0,0.0,0.0,0.0,0.0,0.0,0.0,0.0,0.0,0.0,0.0,0.0,0.0,0.0,0.0,0.0,0.0,0.0,0.0,0.0,0.0,0.0,0.0,0.0,0.0,0.0,0.0,0.0,0.0,0.0,0.0,0.0,0.0,0.0,0.0,0.0,0.0,0.0,0.0,0.0,0.0,0.0,0.0,0.0,0.0,0.0,0.0,0.0,0.0,0.0,0.0,0.0,0.0,0.0,0.0,0.0,0.0,0.0,0.0,0.0,0.0,0.0,0.0,0.0,0.0,0.0,0.0,0.0,0.0,0.0,0.0,0.0,0.0,0.0,0.0,0.0,0.0,0.0,0.0,0.0,0.0,0.0,0.0,0.0,0.0,0.0,0.0,0.0,0.0,0.0,0.0,0.0,0.0,0.0,0.0,0.0,0.0,0.0,0.0,0.0,0.0,0.0,0.0,0.0,0.0,0.0,0.0,0.0,0.0,0.0,0.0,0.0,0.0,0.0,0.0,0.0,0.0,0.0,0.0,0.0,0.0,0.0,0.0,0.0,0.0,0.0,0.0,0.0,0.0,0.0,0.0,0.0,0.0,0.0,0.0,0.0,0.0,0.0,0.0,0.0,0.0,0.0,0.0,0.0,0.0,0.0,0.0,0.0,0.0,0.0,0.0,0.0,0.0,0.0,0.0,0.0,0.0,0.0,0.0,0.0,0.0,0.0,0.0,0.0,0.0,0.0,0.0,0.0,0.0,0.0,0.0,0.0,0.0,0.0,0.0,0.0,0.0,0.0,0.0,0.0,0.0,0.0,0.0,0.0,0.0,0.0,0.0,0.0,0.0,0.0,0.0,0.0,0.0,0.0,0.0,0.0,0.0,0.0,0.0,0.0,0.0,0.0,0.0,0.0,0.0,0.0,0.0,0.0,0.0,0.0,0.0,0.0,0.0,0.0,0.0,0.0,0.0,0.0,0.0,0.0,0.0,0.0,0.0,0.0,0.0,0.0,0.0,0.0,0.0,0.0,0.0,0.0,0.0,0.0,0.0,0.0,0.0,0.0,0.0,0.0,0.0,0.0,0.0,0.0,0.0,0.0,0.0,0.0,0.0,0.0,0.0,0.0,0.0,0.0,0.0,0.0,0.0,0.0,0.0,0.0,0.0,0.0,0.0,0.0,0.0,0.0,0.0,0.0,0.0,0.0,0.0,0.0,0.0,0.0,0.0,0.0,0.0,0.0,0.0,0.0,0.0,0.0,0.0,0.0,0.0,0.0,0.0,0.0,0.0,0.0,0.0,-1.9788,0.0,0.0,0.0,0.0,0.0,0.0,0.0,0.0,0.0,0.0,0.0,0.0,0.0,0.0,0.0,0.0,0.0,0.0,0.0,0.0,0.0,0.0,0.0,0.0,0.0,0.0,0.0,0.0,0.0,0.0,0.0,0.0,0.0,0.0,0.0,0.0,0.0,0.0,0.0,0.0,0.0,0.0,0.0,0.0,0.0,0.0,0.0,0.0,0.0,0.0,0.0,0.0,0.0,0.0,0.0,0.0,0.0,0.0,0.0,0.0,0.0,0.0,0.0,0.0,0.0,0.0,0.0,0.0,0.0,0.0,0.0,0.0,0.0,0.0,0.0,0.0,0.0,0.0,0.0,0.0,0.0,0.0,0.0,0.0,0.0,0.0,0.0,0.0,0.0,0.0,0.0,0.0,0.0,0.0,0.0,0.0,0.0,0.0,0.0,0.0,0.0,0.0,0.0,0.0,0.0,0.0,0.0,0.0,0.0,0.0,-2.0135,-2.0108,-2.004,-2.0,-1.9958,0.0,0.0,0.0,0.0,0.0,0.0,0.0,0.0,0.0,0.0,0.0,0.0,0.0,0.0,0.0,0.0,0.0,0.0,0.0,0.0,0.0,0.0,0.0,0.0,0.0,0.0,0.0,0.0,0.0,0.0,0.0,0.0,0.0,0.0,0.0,0.0,0.0,0.0,0.0,0.0,0.0,0.0,0.0,0.0,0.0,0.0,0.0,0.0,0.0,0.0,0.0,0.0,0.0,0.0,0.0,0.0,0.0,0.0,0.0,0.0,0.0,0.0,0.0,0.0,0.0,0.0,0.0,0.0,0.0,0.0,0.0,0.0,0.0,0.0,0.0,0.0,0.0,0.0,0.0,0.0,0.0,0.0,0.0,0.0,0.0,0.0,0.0,0.0,0.0,0.0,0.0,0.0,0.0,0.0,0.0,0.0,0.0,0.0,0.0,0.0,0.0,0.0,0.0,0.0,0.0,0.0,0.0,0.0,0.0,0.0,0.0,0.0,-2.0153,-2.0135,-2.0127,0.0,0.0,0.0,0.0,0.0,0.0,0.0,0.0,0.0,0.0,0.0,0.0,0.0,0.0,0.0,0.0,0.0,0.0,0.0,0.0,0.0,0.0,0.0,0.0,0.0,0.0,0.0,0.0,0.0,0.0,0.0,0.0,0.0,0.0,0.0,0.0,0.0,0.0,0.0,0.0,0.0,0.0,0.0,0.0,0.0,0.0,0.0,0.0,0.0,0.0,0.0,0.0,0.0,0.0,0.0,0.0,0.0,0.0,0.0,0.0,0.0,0.0,0.0,0.0,0.0,0.0,0.0,0.0,0.0,0.0,0.0,0.0,0.0,0.0,0.0,0.0,0.0,0.0,0.0,0.0,0.0,0.0,0.0,0.0,0.0,0.0,0.0,0.0,0.0,0.0,0.0,0.0,0.0,0.0,0.0,0.0,0.0,0.0,0.0,0.0,0.0,0.0,0.0,0.0,0.0,0.0,0.0,0.0,0.0,0.0,-2.0257,-2.0203,-2.0203,0.0,-2.0249,0.0,0.0,0.0,0.0,0.0,0.0,0.0,0.0,0.0,0.0,0.0,0.0,0.0,0.0,0.0,0.0,0.0,0.0,0.0,0.0,0.0,0.0,0.0,0.0,0.0,0.0,0.0,0.0,0.0,0.0,0.0,0.0,0.0,0.0,0.0,0.0,0.0,0.0,0.0,0.0,0.0,0.0,0.0,0.0,0.0,0.0,0.0,0.0,0.0,0.0,0.0,0.0,0.0,0.0,0.0,0.0,0.0,0.0,0.0,0.0,0.0,0.0,0.0,0.0,0.0,0.0,0.0,0.0,0.0,0.0,0.0,0.0,0.0,0.0,0.0,0.0,0.0,0.0,0.0,0.0,0.0,0.0,0.0,0.0,0.0,0.0,0.0,0.0,0.0,0.0,0.0,0.0,0.0,0.0,0.0,0.0,0.0,0.0,0.0,0.0,0.0,0.0,0.0,0.0,0.0,0.0,0.0,0.0,0.0,0.0,-2.0265,-2.0211,-2.0195,-2.0197,0.0,0.0,0.0,0.0,0.0,0.0,0.0,0.0,0.0,0.0,0.0,0.0,0.0,0.0,0.0,0.0,0.0,0.0,0.0,0.0,0.0,0.0,0.0,0.0,0.0,0.0,0.0,0.0,0.0,0.0,0.0,0.0,0.0,0.0,0.0,0.0,0.0,0.0,0.0,0.0,0.0,0.0,0.0,0.0,0.0,0.0,0.0,0.0,0.0,0.0,0.0,0.0,0.0,0.0,0.0,0.0,0.0,0.0,0.0,0.0,0.0,0.0,0.0,0.0,0.0,0.0,0.0,0.0,0.0,0.0,0.0,0.0,0.0,0.0,0.0,0.0,0.0,0.0,0.0,0.0,0.0,0.0,0.0,0.0,0.0,0.0,0.0,0.0,0.0,0.0,0.0,0.0,0.0,0.0,0.0,0.0,0.0,0.0,0.0,0.0,0.0,0.0,0.0,0.0,0.0,0.0,0.0,0.0,0.0,0.0,-2.1408,-2.0968,-2.0886,-2.0657,-2.064,-2.0861,0.0,0.0,0.0,0.0,0.0,0.0,0.0,0.0,0.0,0.0,0.0,0.0,0.0,0.0,0.0,0.0,0.0,0.0,0.0,0.0,0.0,0.0,0.0,0.0,0.0,0.0,0.0,0.0,0.0,0.0,0.0,0.0,0.0,0.0,0.0,0.0,0.0,0.0,0.0,0.0,0.0,0.0,0.0,0.0,0.0,0.0,0.0,0.0,0.0,0.0,0.0,0.0,0.0,0.0,0.0,0.0,0.0,0.0,0.0,0.0,0.0,0.0,0.0,0.0,0.0,0.0,0.0,0.0,0.0,0.0,0.0,0.0,0.0,0.0,0.0,0.0,0.0,0.0,0.0,0.0,0.0,0.0,0.0,0.0,0.0,0.0,0.0,0.0,0.0,0.0,0.0,0.0,0.0,0.0,0.0,0.0,0.0,0.0,0.0,0.0,0.0,0.0,0.0,0.0,0.0,0.0,0.0,0.0,-2.3937,-2.3101,-2.2651,-2.2537,-2.179,-2.1723,0.0,0.0,0.0,0.0,0.0,0.0,0.0,0.0,0.0,0.0,0.0,0.0,0.0,0.0,0.0,0.0,0.0,0.0,0.0,0.0,0.0,0.0,0.0,0.0,0.0,0.0,0.0,0.0,0.0,0.0,0.0,0.0,0.0,0.0,0.0,0.0,0.0,0.0,0.0,0.0,0.0,0.0,0.0,0.0,0.0,0.0,0.0,0.0,0.0,0.0,0.0,0.0,0.0,0.0,0.0,0.0,0.0,0.0,0.0,0.0,0.0,0.0,0.0,0.0,0.0,0.0,0.0,0.0,0.0,0.0,0.0,0.0,0.0,0.0,0.0,0.0,0.0,0.0,0.0,0.0,0.0,0.0,0.0,0.0,0.0,0.0,0.0,0.0,0.0,0.0,0.0,0.0,0.0,0.0,0.0,0.0,0.0,0.0,0.0,0.0,0.0,0.0,0.0,0.0,0.0,0.0,0.0,0.0,0.0,-2.3996,-2.316,-2.267,-2.2628,-2.2291,-2.2231,0.0,0.0,0.0,0.0,0.0,0.0,0.0,0.0,0.0,0.0,0.0,0.0,0.0,0.0,0.0,0.0,0.0,0.0,0.0,0.0,0.0,0.0,0.0,0.0,0.0,0.0,0.0,0.0,0.0,0.0,0.0,0.0,0.0,0.0,0.0,0.0,0.0,0.0,0.0,0.0,0.0,0.0,0.0,0.0,0.0,0.0,0.0,0.0,0.0,0.0,0.0,0.0,0.0,0.0,0.0,0.0,0.0,0.0,0.0,0.0,0.0,0.0,0.0,0.0,0.0,0.0,0.0,0.0,0.0,0.0,0.0,0.0,0.0,0.0,0.0,0.0,0.0,0.0,0.0,0.0,0.0,0.0,0.0,0.0,0.0,0.0,0.0,0.0,0.0,0.0,0.0,0.0,0.0,0.0,0.0,0.0,0.0,0.0,0.0,0.0,0.0,0.0,0.0,0.0,0.0,0.0,0.0,0.0,0.0,-2.4349,0.0,-2.3374,-2.3339,-2.3049,-2.3018,0.0,0.0,0.0,0.0,0.0,0.0,0.0,0.0,0.0,0.0,0.0,0.0,0.0,0.0,0.0,0.0,0.0,0.0,0.0,0.0,0.0,0.0,0.0,0.0,0.0,0.0,0.0,0.0,0.0,0.0,0.0,0.0,0.0,0.0,0.0,0.0,0.0,0.0,0.0,0.0,0.0,0.0,0.0,0.0,0.0,0.0,0.0,0.0,0.0,0.0,0.0,0.0,0.0,0.0,0.0,0.0,0.0,0.0,0.0,0.0,0.0,0.0,0.0,0.0,0.0,0.0,0.0,0.0,0.0,0.0,0.0,0.0,0.0,0.0,0.0,0.0,0.0,0.0,0.0,0.0,0.0,0.0,0.0,0.0,0.0,0.0,0.0,0.0,0.0,0.0,0.0,0.0,0.0,0.0,0.0,0.0,0.0,0.0,0.0,0.0,0.0,0.0,0.0,0.0,0.0,0.0,0.0,0.0,-2.525,-2.5084,-2.4974,-2.4873,-2.4864,-2.4087,-2.4074,0.0,0.0,0.0,0.0,0.0,0.0,0.0,0.0,0.0,0.0,0.0,0.0,0.0,0.0,0.0,0.0,0.0,0.0,0.0,0.0,0.0,0.0,0.0,0.0,0.0,0.0,0.0,0.0,0.0,0.0,0.0,0.0,0.0,0.0,0.0,0.0,0.0,0.0,0.0,0.0,0.0,0.0,0.0,0.0,0.0,0.0,0.0,0.0,0.0,0.0,0.0,0.0,0.0,0.0,0.0,0.0,0.0,0.0,0.0,0.0,0.0,0.0,0.0,0.0,0.0,0.0,0.0,0.0,0.0,0.0,0.0,0.0,0.0,0.0,0.0,0.0,0.0,0.0,0.0,0.0,0.0,0.0,0.0,0.0,0.0,0.0,0.0,0.0,0.0,0.0,0.0,0.0,0.0,0.0,0.0,0.0,0.0,0.0,0.0,0.0,0.0,0.0,0.0,0.0,0.0,0.0,0.0,0.0,0.0,-2.498,-2.4893,-2.4837,-2.4746,-2.4586,-2.4582,0.0,0.0,0.0,0.0,0.0,0.0,0.0,0.0,0.0,0.0,0.0,0.0,0.0,0.0,0.0,0.0,0.0,0.0,0.0,0.0,0.0,0.0,0.0,0.0,0.0,0.0,0.0,0.0,0.0,0.0,0.0,0.0,0.0,0.0,0.0,0.0,0.0,0.0,0.0,0.0,0.0,0.0,0.0,0.0,0.0,0.0,0.0,0.0,0.0,0.0,0.0,0.0,0.0,0.0,0.0,0.0,0.0,0.0,0.0,0.0,0.0,0.0,0.0,0.0,0.0,0.0,0.0,0.0,0.0,0.0,0.0,0.0,0.0,0.0,0.0,0.0,0.0,0.0,0.0,0.0,0.0,0.0,0.0,0.0,0.0,0.0,0.0,0.0,0.0,0.0,0.0,0.0,0.0,0.0,0.0,0.0,0.0,0.0,0.0,0.0,0.0,0.0,0.0,0.0,0.0,0.0,0.0,0.0,0.0,-2.6578,-2.6261,-2.6062,-2.5962,-2.5749,-2.548,-2.5192,0.0,0.0,0.0,0.0,0.0,0.0,0.0,0.0,0.0,0.0,0.0,0.0,0.0,0.0,0.0,0.0,0.0,0.0,0.0,0.0,0.0,0.0,0.0,0.0,0.0,0.0,0.0,0.0,0.0,0.0,0.0,0.0,0.0,0.0,0.0,0.0,0.0,0.0,0.0,0.0,0.0,0.0,0.0,0.0,0.0,0.0,0.0,0.0,0.0,0.0,0.0,0.0,0.0,0.0,0.0,0.0,0.0,0.0,0.0,0.0,0.0,0.0,0.0,0.0,0.0,0.0,0.0,0.0,0.0,0.0,0.0,0.0,0.0,0.0,0.0,0.0,0.0,0.0,0.0,0.0,0.0,0.0,0.0,0.0,0.0,0.0,0.0,0.0,0.0,0.0,0.0,0.0,0.0,0.0,0.0,0.0,0.0,0.0,0.0,0.0,0.0,0.0,0.0,0.0,0.0,0.0,0.0,0.0,-2.9507,-2.8931,-2.8482,-2.8231,-2.7512,-2.6711,0.0,0.0,0.0,0.0,0.0,0.0,0.0,0.0,0.0,0.0,0.0,0.0,0.0,0.0,0.0,0.0,0.0,0.0,0.0,0.0,0.0,0.0,0.0,0.0,0.0,0.0,0.0,0.0,0.0,0.0,0.0,0.0,0.0,0.0,0.0,0.0,0.0,0.0,0.0,0.0,0.0,0.0,0.0,0.0,0.0,0.0,0.0,0.0,0.0,0.0,0.0,0.0,0.0,0.0,0.0,0.0,0.0,0.0,0.0,0.0,0.0,0.0,0.0,0.0,0.0,0.0,0.0,0.0,0.0,0.0,0.0,0.0,0.0,0.0,0.0,0.0,0.0,0.0,0.0,0.0,0.0,0.0,0.0,0.0,0.0,0.0,0.0,0.0,0.0,0.0,0.0,0.0,0.0,0.0,0.0,0.0,0.0,0.0,0.0,0.0,0.0,0.0,0.0,0.0,0.0,0.0,0.0,0.0,0.0,-3.1139,-3.2048,-3.1626,-2.9861,-2.904,-2.799,0.0,0.0,0.0,0.0,0.0,0.0,0.0,0.0,0.0,0.0,0.0,0.0,0.0,0.0,0.0,0.0,0.0,0.0,0.0,0.0,0.0,0.0,0.0,0.0,0.0,0.0,0.0,0.0,0.0,0.0,0.0,0.0,0.0,0.0,0.0,0.0,0.0,0.0,0.0,0.0,0.0,0.0,0.0,0.0,0.0,0.0,0.0,0.0,0.0,0.0,0.0,0.0,0.0,0.0,0.0,0.0,0.0,0.0,0.0,0.0,0.0,0.0,0.0,0.0,0.0,0.0,0.0,0.0,0.0,0.0,0.0,0.0,0.0,0.0,0.0,0.0,0.0,0.0,0.0,0.0,0.0,0.0,0.0,0.0,0.0,0.0,0.0,0.0,0.0,0.0,0.0,0.0,0.0,0.0,0.0,0.0,0.0,0.0,0.0,0.0,0.0,0.0,0.0,0.0,0.0,0.0,0.0,0.0,-3.1323,-3.2757,-3.4544,-3.4815,-3.3434,-3.1291,-2.9437,0.0,0.0,0.0,0.0,0.0,0.0,0.0,0.0,0.0,0.0,0.0,0.0,0.0,0.0,0.0,0.0,0.0,0.0,0.0,0.0,0.0,0.0,0.0,0.0,0.0,0.0,0.0,0.0,0.0,0.0,0.0,0.0,0.0,0.0,0.0,0.0,0.0,0.0,0.0,0.0,0.0,0.0,0.0,0.0,0.0,0.0,0.0,0.0,0.0,0.0,0.0,0.0,0.0,0.0,0.0,0.0,0.0,0.0,0.0,0.0,0.0,0.0,0.0,0.0,0.0,0.0,0.0,0.0,0.0,0.0,0.0,0.0,0.0,0.0,0.0,0.0,0.0,0.0,0.0,0.0,0.0,0.0,0.0,0.0,0.0,0.0,0.0,0.0,0.0,0.0,0.0,0.0,0.0,0.0,0.0,0.0,0.0,0.0,0.0,0.0,0.0,0.0,0.0,0.0,0.0,0.0,0.0,0.0,-3.2743,-3.4222,-3.638,-3.7544,-3.7496,-3.3879,-3.1072,0.0,0.0,0.0,0.0,0.0,0.0,0.0,0.0,0.0,0.0,0.0,0.0,0.0,0.0,0.0,0.0,0.0,0.0,0.0,0.0,0.0,0.0,0.0,0.0,0.0,0.0,0.0,0.0,0.0,0.0,0.0,0.0,0.0,0.0,0.0,0.0,0.0,0.0,0.0,0.0,0.0,0.0,0.0,0.0,0.0,0.0,0.0,0.0,0.0,0.0,0.0,0.0,0.0,0.0,0.0,0.0,0.0,0.0,0.0,0.0,0.0,0.0,0.0,0.0,0.0,0.0,0.0,0.0,0.0,0.0,0.0,0.0,0.0,0.0,0.0,0.0,0.0,0.0,0.0,0.0,0.0,0.0,0.0,0.0,0.0,0.0,0.0,0.0,0.0,0.0,0.0,0.0,0.0,0.0,0.0,0.0,0.0,0.0,0.0,0.0,0.0,0.0,0.0,0.0,0.0,0.0,0.0,0.0,-3.3486,-3.494,-3.6628,-3.7808,-3.8414,-3.5734,-3.3201,0.0,0.0,0.0,0.0,0.0,0.0,0.0,0.0,0.0,0.0,0.0,0.0,0.0,0.0,0.0,0.0,0.0,0.0,0.0,0.0,0.0,0.0,0.0,0.0,0.0,0.0,0.0,0.0,0.0,0.0,0.0,0.0,0.0,0.0,0.0,0.0,0.0,0.0,0.0,0.0,0.0,0.0,0.0,0.0,0.0,0.0,0.0,0.0,-2.733,0.0,0.0,0.0,0.0,0.0,0.0,0.0,0.0,0.0,0.0,0.0,0.0,0.0,0.0,0.0,0.0,0.0,0.0,0.0,0.0,0.0,0.0,0.0,0.0,0.0,0.0,0.0,0.0,0.0,0.0,0.0,0.0,0.0,0.0,0.0,0.0,0.0,0.0,0.0,0.0,0.0,0.0,0.0,0.0,0.0,0.0,0.0,0.0,0.0,0.0,0.0,0.0,0.0,0.0,0.0,0.0,0.0,0.0,0.0,-3.4253,-3.5717,-3.7261,-3.8267,-3.8615,-3.7055,-3.4853,0.0,0.0,0.0,0.0,0.0,0.0,0.0,0.0,0.0,0.0,0.0,0.0,0.0,0.0,0.0,0.0,0.0,0.0,0.0,0.0,0.0,0.0,0.0,0.0,0.0,0.0,0.0,0.0,0.0,0.0,0.0,0.0,0.0,0.0,0.0,0.0,0.0,0.0,0.0,0.0,0.0,0.0,0.0,0.0,0.0,0.0,0.0,0.0,0.0,0.0,0.0,0.0,0.0,0.0,0.0,0.0,0.0,0.0,0.0,0.0,0.0,0.0,0.0,0.0,0.0,0.0,0.0,0.0,0.0,0.0,0.0,0.0,0.0,0.0,0.0,0.0,0.0,0.0,0.0,0.0,0.0,0.0,0.0,0.0,0.0,0.0,0.0,0.0,0.0,0.0,0.0,0.0,0.0,0.0,0.0,0.0,0.0,0.0,0.0,0.0,0.0,0.0,0.0,0.0,0.0,0.0,0.0,-3.3668,-3.508,-3.6462,-3.7948,-3.8707,-3.8689,-3.79,-3.6009,-3.2926,0.0,0.0,0.0,0.0,0.0,0.0,0.0,0.0,0.0,0.0,0.0,0.0,0.0,0.0,0.0,0.0,0.0,0.0,0.0,0.0,0.0,0.0,0.0,0.0,0.0,0.0,0.0,0.0,0.0,0.0,0.0,0.0,0.0,0.0,0.0,0.0,0.0,0.0,-2.7079,-2.7807,0.0,0.0,0.0,0.0,0.0,0.0,0.0,0.0,-3.0734,0.0,0.0,0.0,0.0,0.0,0.0,0.0,0.0,0.0,0.0,0.0,0.0,0.0,0.0,0.0,0.0,0.0,0.0,0.0,0.0,0.0,0.0,0.0,0.0,0.0,0.0,0.0,0.0,0.0,0.0,0.0,0.0,0.0,0.0,0.0,0.0,0.0,0.0,0.0,0.0,0.0,0.0,0.0,0.0,0.0,0.0,0.0,0.0,0.0,0.0,0.0,0.0,0.0,0.0,0.0,0.0,-3.2999,-3.446,-3.588,-3.7268,-3.8212,-3.8707,-3.8689,-3.79,-3.6266,-3.377,0.0,0.0,0.0,0.0,0.0,0.0,0.0,0.0,0.0,0.0,0.0,0.0,0.0,0.0,0.0,0.0,0.0,0.0,0.0,0.0,0.0,0.0,0.0,0.0,0.0,0.0,0.0,0.0,0.0,0.0,0.0,0.0,0.0,0.0,0.0,0.0,0.0,0.0,0.0,-3.0572,-3.0737,0.0,0.0,0.0,0.0,0.0,0.0,0.0,0.0,-3.3391,0.0,0.0,0.0,0.0,0.0,0.0,0.0,0.0,0.0,0.0,0.0,0.0,0.0,0.0,0.0,0.0,0.0,0.0,0.0,0.0,0.0,0.0,0.0,0.0,0.0,0.0,0.0,0.0,0.0,0.0,0.0,0.0,0.0,0.0,0.0,0.0,0.0,0.0,0.0,0.0,0.0,0.0,0.0,0.0,0.0,0.0,0.0,0.0,0.0,0.0,0.0,0.0,0.0,0.0,0.0,-3.4405,-3.5039,-3.6205,-3.8028,-3.8505,-3.8707,-3.8689,-3.7918,-3.6321,0.0,0.0,0.0,0.0,0.0,0.0,0.0,0.0,0.0,0.0,0.0,0.0,0.0,0.0,0.0,0.0,0.0,0.0,0.0,0.0,0.0,0.0,0.0,0.0,0.0,0.0,0.0,0.0,0.0,0.0,0.0,0.0,0.0,0.0,0.0,0.0,0.0,0.0,0.0,0.0,-3.2212,-3.2861,-3.4044,0.0,0.0,0.0,0.0,0.0,0.0,-3.5115,-3.5113,0.0,0.0,0.0,0.0,0.0,0.0,0.0,0.0,0.0,0.0,0.0,0.0,0.0,0.0,0.0,0.0,0.0,0.0,0.0,0.0,0.0,0.0,0.0,0.0,0.0,0.0,0.0,0.0,0.0,0.0,0.0,0.0,0.0,0.0,0.0,0.0,0.0,0.0,0.0,0.0,0.0,0.0,0.0,0.0,0.0,0.0,0.0,0.0,0.0,0.0,0.0,0.0,0.0,0.0,0.0,-3.5562,-3.5688,-3.6684,-3.8597,-3.8707,-3.8707,-3.8689,-3.7753,-3.6248,0.0,0.0,0.0,0.0,0.0,0.0,0.0,0.0,0.0,0.0,0.0,0.0,0.0,0.0,0.0,0.0,0.0,0.0,0.0,0.0,0.0,0.0,0.0,0.0,0.0,0.0,0.0,0.0,0.0,0.0,0.0,0.0,0.0,0.0,0.0,0.0,0.0,0.0,0.0,0.0,0.0,-3.4529,-3.6769,-3.5849,0.0,0.0,0.0,0.0,-3.663,-3.6917,0.0,0.0,0.0,0.0,0.0,0.0,0.0,0.0,0.0,0.0,0.0,0.0,0.0,0.0,0.0,0.0,0.0,0.0,0.0,0.0,0.0,0.0,0.0,0.0,0.0,0.0,0.0,0.0,0.0,0.0,0.0,0.0,0.0,0.0,0.0,0.0,0.0,0.0,0.0,0.0,0.0,0.0,0.0,0.0,0.0,0.0,0.0,0.0,0.0,0.0,0.0,0.0,0.0,0.0,0.0,0.0,-3.5591,-3.6793,-3.7845,-3.8634,-3.8707,-3.8707,-3.8689,-3.7221,-3.5954,0.0,0.0,0.0,0.0,0.0,0.0,0.0,0.0,0.0,0.0,0.0,0.0,0.0,0.0,0.0,0.0,0.0,0.0,0.0,0.0,0.0,0.0,0.0,0.0,0.0,0.0,0.0,0.0,0.0,0.0,0.0,0.0,0.0,0.0,0.0,0.0,0.0,0.0,0.0,0.0,0.0,-3.5061,-3.6625,-3.6127,-3.5601,0.0,0.0,-3.7467,-3.8488,-3.9769,0.0,0.0,0.0,0.0,0.0,0.0,0.0,0.0,0.0,0.0,0.0,0.0,0.0,0.0,0.0,0.0,0.0,0.0,0.0,0.0,0.0,0.0,0.0,0.0,0.0,0.0,0.0,0.0,0.0,0.0,0.0,0.0,0.0,0.0,0.0,0.0,0.0,0.0,0.0,0.0,0.0,0.0,0.0,0.0,0.0,0.0,0.0,0.0,0.0,0.0,0.0,0.0,0.0,0.0,0.0,-3.4854,-3.632,-3.7183,-3.7941,-3.867,-3.8707,-3.8707,-3.8689,-3.7147,-3.5899,0.0,0.0,0.0,0.0,0.0,0.0,0.0,0.0,0.0,0.0,0.0,0.0,0.0,0.0,0.0,0.0,0.0,0.0,0.0,0.0,0.0,0.0,0.0,0.0,0.0,0.0,0.0,0.0,0.0,0.0,0.0,0.0,0.0,0.0,0.0,0.0,0.0,0.0,0.0,0.0,0.0,0.0,-3.7911,-3.8212,0.0,0.0,0.0,-3.9052,-3.9258,0.0,0.0,0.0,0.0,0.0,0.0,0.0,0.0,0.0,0.0,0.0,0.0,0.0,0.0,0.0,0.0,0.0,0.0,0.0,0.0,0.0,0.0,0.0,0.0,0.0,0.0,0.0,0.0,0.0,0.0,0.0,0.0,0.0,0.0,0.0,0.0,0.0,0.0,0.0,0.0,0.0,0.0,0.0,0.0,0.0,0.0,0.0,0.0,0.0,0.0,0.0,0.0,0.0,0.0,0.0,0.0,0.0,-3.6857,-3.7498,-3.8083,-3.8689,-3.8707,-3.8707,-3.867,-3.7312,0.0,0.0,0.0,0.0,0.0,0.0,0.0,0.0,0.0,0.0,0.0,0.0,0.0,0.0,0.0,0.0,0.0,0.0,0.0,0.0,0.0,0.0,0.0,0.0,0.0,0.0,0.0,-2.9352,0.0,0.0,0.0,0.0,0.0,0.0,0.0,0.0,0.0,0.0,0.0,0.0,0.0,0.0,-3.768,-3.9219,-3.99,-4.0336,0.0,0.0,-4.0209,-4.0088,-4.1446,-4.1779,0.0,0.0,0.0,0.0,0.0,0.0,0.0,0.0,0.0,0.0,0.0,0.0,0.0,0.0,0.0,0.0,0.0,0.0,0.0,0.0,0.0,0.0,0.0,0.0,0.0,0.0,0.0,0.0,0.0,0.0,0.0,0.0,0.0,0.0,0.0,0.0,0.0,0.0,0.0,0.0,0.0,0.0,0.0,0.0,0.0,0.0,0.0,0.0,0.0,0.0,0.0,0.0,0.0,0.0,0.0,-3.6802,-3.7995,-3.8652,-3.8707,-3.8707,-3.8707,-3.8689,-3.7863,-3.7386,0.0,0.0,0.0,0.0,0.0,0.0,0.0,0.0,0.0,0.0,0.0,0.0,0.0,0.0,0.0,0.0,0.0,0.0,0.0,0.0,0.0,0.0,0.0,0.0,0.0,0.0,0.0,0.0,0.0,0.0,0.0,0.0,0.0,0.0,0.0,0.0,0.0,0.0,0.0,0.0,0.0,-3.8518,-4.0094,-4.0233,-4.0445,0.0,0.0,-4.0524,-4.1512,-4.2871,-4.3231,-4.132,0.0,0.0,0.0,0.0,0.0,0.0,0.0,0.0,0.0,0.0,0.0,0.0,0.0,0.0,0.0,0.0,0.0,0.0,0.0,0.0,0.0,0.0,0.0,0.0,0.0,0.0,0.0,0.0,0.0,0.0,0.0,0.0,0.0,0.0,0.0,0.0,0.0,0.0,0.0,0.0,0.0,0.0,0.0,0.0,0.0,0.0,0.0,0.0,0.0,0.0,0.0,0.0,0.0,-3.6906,-3.7592,-3.8309,-3.8946,-3.9405,-3.9441,-3.968,-4.0175,-3.9386,-3.8744,0.0,0.0,0.0,0.0,0.0,0.0,0.0,0.0,0.0,0.0,0.0,0.0,0.0,0.0,0.0,0.0,0.0,0.0,0.0,0.0,0.0,0.0,0.0,0.0,0.0,0.0,0.0,0.0,-3.4321,-3.4417,-3.4222,0.0,0.0,0.0,0.0,0.0,0.0,0.0,0.0,0.0,0.0,-3.8722,-4.072,-4.1317,0.0,0.0,-4.1894,-4.18,-4.1601,-4.2772,-4.2944,-4.0585,-3.9903,0.0,0.0,0.0,0.0,0.0,0.0,0.0,0.0,0.0,0.0,0.0,0.0,0.0,0.0,0.0,0.0,0.0,0.0,0.0,0.0,0.0,0.0,0.0,0.0,0.0,0.0,0.0,0.0,0.0,0.0,0.0,0.0,0.0,0.0,0.0,0.0,0.0,0.0,0.0,0.0,0.0,0.0,0.0,0.0,0.0,0.0,0.0,0.0,0.0,0.0,0.0,0.0,-3.7454,-3.8406,-3.8844,-3.9441,-4.023,-4.0249,-4.0543,-4.1075,-4.0561,-3.9992,0.0,0.0,0.0,0.0,0.0,0.0,0.0,0.0,0.0,0.0,0.0,0.0,0.0,0.0,0.0,0.0,0.0,0.0,0.0,0.0,0.0,0.0,0.0,0.0,0.0,0.0,0.0,0.0,-3.5534,-3.5534,-3.4688,0.0,0.0,0.0,0.0,0.0,0.0,0.0,0.0,0.0,0.0,-3.958,-4.1183,-4.1778,-4.2066,-4.2117,-4.2109,-4.1957,-4.1522,-4.2309,-4.2347,-4.0536,0.0,0.0,0.0,0.0,0.0,0.0,0.0,0.0,0.0,0.0,0.0,0.0,0.0,0.0,0.0,0.0,0.0,0.0,0.0,0.0,0.0,0.0,0.0,0.0,0.0,0.0,0.0,0.0,0.0,0.0,-3.2743,0.0,0.0,0.0,0.0,0.0,0.0,0.0,0.0,0.0,0.0,0.0,0.0,0.0,0.0,0.0,0.0,0.0,0.0,0.0,0.0,0.0,0.0,-3.7692,-3.9183,-3.9644,-4.0267,-4.1056,-4.1093,-4.1111,-4.1148,-4.1111,-4.1093,-4.1038,0.0,0.0,0.0,0.0,0.0,0.0,0.0,0.0,0.0,0.0,0.0,0.0,0.0,0.0,0.0,0.0,0.0,0.0,0.0,0.0,0.0,0.0,0.0,0.0,0.0,0.0,-3.4337,-3.5661,-3.6329,0.0,0.0,0.0,0.0,0.0,0.0,0.0,0.0,0.0,0.0,-4.0514,-4.1324,-4.1386,-4.1342,-4.1369,-4.1458,-4.0867,-4.0651,-4.1495,-4.158,-4.1586,0.0,0.0,0.0,0.0,0.0,0.0,0.0,0.0,0.0,0.0,0.0,0.0,0.0,0.0,0.0,0.0,0.0,0.0,0.0,0.0,0.0,0.0,0.0,0.0,0.0,0.0,0.0,-3.4566,-3.4035,0.0,0.0,0.0,0.0,0.0,0.0,0.0,0.0,0.0,0.0,0.0,-3.7578,-3.8152,0.0,0.0,0.0,0.0,0.0,0.0,0.0,0.0,0.0,0.0,0.0,0.0,-3.8327,-3.9863,-4.0425,-4.1093,-4.1864,-4.1901,-4.2158,-4.2671,-4.269,-4.2433,-4.1919,0.0,0.0,0.0,0.0,0.0,0.0,0.0,0.0,0.0,0.0,0.0,0.0,0.0,0.0,0.0,0.0,0.0,0.0,0.0,0.0,0.0,0.0,0.0,0.0,0.0,-3.7417,0.0,0.0,0.0,0.0,0.0,0.0,0.0,0.0,0.0,0.0,0.0,-3.8874,-3.9835,-3.9844,-4.0092,-4.1107,-4.1243,-4.1427,0.0,0.0,0.0,0.0,0.0,0.0,0.0,0.0,0.0,0.0,0.0,0.0,0.0,0.0,-3.9735,-3.8647,-3.908,-3.9673,-3.9669,0.0,0.0,0.0,0.0,0.0,0.0,0.0,0.0,0.0,0.0,0.0,0.0,0.0,0.0,-3.666,0.0,-3.6236,0.0,0.0,0.0,0.0,0.0,0.0,0.0,0.0,-3.9312,-3.9695,-3.9841,-4.0177,-4.0296,0.0,-4.0067,-3.9517,0.0,0.0,0.0,0.0,0.0,0.0,0.0,0.0,-3.9045,-4.0592,-4.1222,-4.1901,-4.2671,-4.2727,-4.2965,-4.3461,-4.3479,-4.3112,-4.2341,-4.1277,-4.0359,0.0,0.0,0.0,0.0,0.0,0.0,0.0,0.0,0.0,0.0,0.0,0.0,0.0,0.0,0.0,0.0,0.0,0.0,0.0,0.0,0.0,0.0,0.0,-3.827,0.0,0.0,0.0,0.0,0.0,0.0,0.0,0.0,0.0,-3.8893,-3.9289,-3.9839,-4.0537,-4.0318,-4.029,-4.0763,0.0,0.0,0.0,0.0,0.0,0.0,0.0,-4.0652,-4.0371,-4.1038,-4.1561,-4.1418,-4.1303,-4.1245,-4.1389,0.0,0.0,-4.0477,-4.0838,-4.1386,-4.1402,-4.1407,-4.1404,-4.1393,-4.1393,-4.1393,0.0,0.0,0.0,0.0,0.0,0.0,0.0,0.0,-3.8958,-3.8917,0.0,-3.8988,0.0,0.0,0.0,0.0,0.0,-3.9021,0.0,0.0,-4.1291,-4.1915,-4.1356,-4.2036,-4.2423,-4.2368,-4.1767,-4.1428,-4.1274,-3.9907,0.0,0.0,0.0,0.0,0.0,0.0,-3.973,-4.1298,-4.2018,-4.2708,-4.3424,-4.3461,-4.3479,-4.3479,-4.3479,-4.313,-4.2396,-4.2323,-4.1956,-4.1185,-4.0377,0.0,0.0,0.0,0.0,0.0,0.0,0.0,0.0,0.0,0.0,0.0,0.0,0.0,0.0,0.0,0.0,0.0,0.0,0.0,0.0,-3.7829,0.0,0.0,0.0,0.0,0.0,0.0,0.0,0.0,0.0,0.0,-3.9703,-4.0723,-4.1537,-4.1341,0.0,0.0,0.0,0.0,-4.0691,-3.938,-3.9118,-3.9197,-3.9432,-3.9954,-4.0603,-4.1391,0.0,0.0,-4.3714,-4.3135,-4.2728,-4.3118,-4.3797,-4.383,-4.2229,-4.2626,-4.315,-4.3171,-4.3171,-4.3188,-4.3165,-4.3162,-4.3181,-3.9946,0.0,0.0,0.0,0.0,-3.9059,-3.9761,-4.0422,-4.1218,-4.1126,-4.0415,-4.0667,0.0,0.0,0.0,0.0,0.0,0.0,-4.0568,-4.1539,-4.212,-4.2537,-4.2852,-4.3073,-4.3183,-4.3183,-4.3011,-4.2883,-4.2849,-4.2456,-4.1298,-3.9478,0.0,0.0,0.0,0.0,-4.0467,-4.2032,-4.2794,-4.3259,-4.3479,-4.3479,-4.3479,-4.3479,-4.3479,-4.3369,-4.3149,-4.313,-4.2782,-4.1992,-4.1735,0.0,0.0,0.0,0.0,0.0,0.0,0.0,0.0,0.0,0.0,0.0,0.0,0.0,0.0,0.0,0.0,0.0,0.0,0.0,-3.9834,-3.962,-3.9188,0.0,0.0,0.0,0.0,0.0,0.0,0.0,0.0,0.0,-4.0803,-4.0877,-4.0747,0.0,0.0,-3.9952,-4.0079,-4.0283,-4.0644,-4.1315,0.0,0.0,0.0,-4.1301,-4.1274,-4.1847,-4.2964,-4.403,-4.4756,-4.4779,-4.4747,-4.4876,-4.5066,-4.5045,-4.466,-4.4701,-4.4837,-4.4895,-4.4876,-4.4876,-4.4893,-4.4874,-4.4855,-4.2046,-4.0781,-4.0269,-4.0195,-4.0481,-4.097,-4.1582,-4.2216,-4.2677,-4.247,-4.1751,-4.2097,-4.1447,-4.0077,-4.0133,0.0,0.0,0.0,-4.1798,-4.2912,-4.2864,-4.3054,-4.3461,-4.3479,-4.3479,-4.3479,-4.3479,-4.3479,-4.3479,-4.3479,-4.2665,-4.1014,0.0,0.0,-4.0517,-4.0767,-4.1379,-4.2353,-4.3128,-4.3479,-4.3479,-4.3479,-4.3479,-4.3479,-4.3479,-4.3479,-4.3479,-4.3479,-4.3277,-4.28,-4.247,-4.1846,0.0,0.0,0.0,0.0,0.0,0.0,0.0,0.0,0.0,0.0,0.0,-3.8381,0.0,0.0,0.0,0.0,-3.9712,-4.043,-4.1143,-4.0337,0.0,0.0,0.0,0.0,0.0,0.0,0.0,-3.9525,-4.0207,-4.0859,-4.1268,-4.1059,-4.0884,-4.0941,-4.0559,-4.0362,-4.0517,0.0,-4.1195,-4.1793,-4.1515,-4.1445,-4.1903,-4.1857,-4.1964,-4.2541,-4.3418,-4.4252,-4.489,-4.5242,-4.5438,-4.5568,-4.5586,-4.5586,-4.5586,-4.5586,-4.5586,-4.5586,-4.5586,-4.5586,-4.5586,-4.5586,-4.5586,-4.3479,-4.3385,-4.2046,-4.1907,-4.2572,-4.2511,-4.2886,-4.3479,-4.3479,-4.3109,-4.2551,-4.3201,-4.2769,-4.1588,-4.163,0.0,-4.2572,-4.259,-4.2912,-4.3479,-4.3479,-4.3479,-4.3479,-4.3479,-4.3479,-4.3479,-4.3479,-4.3479,-4.3479,-4.3479,-4.313,-4.2415,-4.2396,-4.1992,-4.1277,-4.1919,-4.2323,-4.2415,-4.313,-4.3479,-4.3479,-4.3479,-4.3479,-4.3479,-4.3479,-4.3479,-4.3479,-4.3479,-4.3479,-4.3461,-4.2782,-4.2378,-4.2268,0.0,0.0,0.0,0.0,0.0,0.0,0.0,0.0,0.0,0.0,0.0,0.0,0.0,0.0,0.0,-4.1028,0.0,-4.2253,-4.0413,0.0,0.0,0.0,-3.975,-4.0491,-4.1221,-4.1606,-4.1496,0.0,0.0,-4.1296,0.0,-4.1691,-4.2478,-4.2445,-4.2062,-4.1372,-4.187,-4.2061,-4.1515,-4.1353,-4.1353,-4.1622,-4.2072,-4.2702,-4.3373,-4.3836,-4.4243,-4.4631,-4.4962,-4.5282,-4.555,-4.5586,-4.5586,-4.5586,-4.5586,-4.5586,-4.5586,-4.5586,-4.5586,-4.5586,-4.5586,-4.5586,-4.3479,-4.3442,-4.3109,-4.3088,-4.3254,-4.3238,-4.3348,-4.3479,-4.3479,-4.3403,-4.3256,-4.344,-4.3293,-4.3011,-4.3011,-4.3122,-4.3272,-4.3254,-4.333,-4.3479,-4.3479,-4.3479,-4.3479,-4.3479,-4.3479,-4.3479,-4.3479,-4.3479,-4.3479,-4.3479,-4.3406,-4.3222,-4.3204,-4.28,-4.2047,-4.2213,-4.2598,-4.3204,-4.3387,-4.3479,-4.3479,-4.3479,-4.3479,-4.3479,-4.3479,-4.3479,-4.3479,-4.3479,-4.3479,-4.3479,-4.3314,-4.2928,-4.2323,-4.135,0.0,0.0,0.0,0.0,0.0,0.0,0.0,0.0,0.0,-3.9731,-3.9296,0.0,-3.997,0.0,-4.2216,-4.2827,-4.2419,-4.1866,0.0,0.0,-4.0982,-4.0977,-4.1178,-4.1843,-4.2026,-4.1351,-4.1742,-4.2059,-4.2044,-4.2044,-4.261,-4.3918,-4.2673,-4.1675,-4.2008,-4.2253,-4.2514,-4.2842,-4.2896,-4.2915,-4.2968,-4.3314,-4.3615,-4.3868,-4.4401,-4.4871,-4.4977,-4.5247,-4.5532,-4.5586,-4.5586,-4.5586,-4.5566,-4.5586,-4.5586,-4.5586,-4.5586,-4.5586,-4.5586,-4.5586,-4.5586,-4.3286,-4.3444,-4.2922,-4.2903,-4.3178,-4.341,-4.3479,-4.3479,-4.3479,-4.3479,-4.3479,-4.3479,-4.3479,-4.3479,-4.3479,-4.3479,-4.3479,-4.3479,-4.3479,-4.3479,-4.3479,-4.3479,-4.3479,-4.3479,-4.3479,-4.3479,-4.3479,-4.3479,-4.3479,-4.3479,-4.3479,-4.3479,-4.3479,-4.3277,-4.2855,-4.2837,-4.3057,-4.3479,-4.3479,-4.3479,-4.3479,-4.3479,-4.3444,-4.3393,-4.3428,-4.3228,-4.281,-4.2862,-4.2732,-4.2402,-4.2763,-4.2763,-4.2304,-4.1552,-4.091,0.0,0.0,0.0,0.0,0.0,0.0,0.0,0.0,0.0,0.0,0.0,-4.0863,0.0,-4.247,-4.2782,-4.2411,-4.2026,-4.1834,-4.1788,-4.1802,-4.1949,-4.229,-4.3039,-4.3283,-4.2821,-4.313,-4.3497,-4.3846,-4.3589,-4.3809,-4.5076,-4.4175,-4.3361,-4.3369,-4.3416,-4.3552,-4.397,-4.4026,-4.4094,-4.4262,-4.3999,-4.3977,-4.447,-4.459,-4.46,-4.4617,-4.4911,-4.5161,-4.5161,-4.517,-4.5163,-4.5164,-4.5132,-4.5181,-4.5323,-4.5381,-4.5438,-4.5568,-4.5586,-4.5586,-4.2864,-4.3196,-4.2226,-4.2121,-4.2616,-4.3087,-4.3321,-4.341,-4.341,-4.3444,-4.3479,-4.3444,-4.3463,-4.3479,-4.341,-4.3444,-4.3479,-4.3479,-4.3479,-4.3479,-4.3479,-4.3479,-4.3479,-4.3479,-4.3479,-4.3479,-4.3479,-4.3479,-4.3479,-4.3479,-4.3479,-4.3479,-4.3479,-4.3479,-4.3479,-4.3444,-4.3444,-4.3479,-4.3479,-4.3479,-4.3497,-4.3463,-4.3375,-4.3178,-4.3269,-4.2868,-4.1905,-4.2047,-4.1768,-4.1055,-4.1763,-4.2271,-4.2286,-4.1611,-4.1244,0.0,-3.9845,0.0,0.0,0.0,0.0,0.0,0.0,0.0,0.0,-4.1261,-4.1517,-4.2239,-4.2383,-4.2472,-4.2459,-4.1797,-4.1662,-4.239,-4.2533,-4.2901,-4.3587,-4.4344,-4.4839,-4.4858,-4.4839,-4.5131,-4.5681,-4.5278,-4.5149,-4.5883,-4.581,-4.5479,-4.5145,-4.4904,-4.4812,-4.4833,-4.4775,-4.4712,-4.492,-4.4188,-4.3855,-4.4712,-4.4457,-4.4028,-4.412,-4.4473,-4.4701,-4.4758,-4.477,-4.471,-4.4671,-4.4672,-4.4717,-4.4995,-4.5033,-4.517,-4.5495,-4.5586,-4.5586,-4.2021,-4.2085,-4.1895,-4.1895,-4.1979,-4.2103,-4.2404,-4.2864,-4.2864,-4.3087,-4.3444,-4.305,-4.3087,-4.3444,-4.305,-4.3105,-4.3479,-4.3479,-4.3479,-4.3479,-4.3479,-4.3479,-4.3479,-4.3479,-4.3479,-4.3479,-4.3479,-4.3479,-4.3479,-4.3479,-4.3479,-4.3479,-4.3479,-4.3479,-4.3479,0.0,0.0,0.0,-4.3479,-4.3463,-4.3411,-4.3322,-4.316,-4.2957,-4.2882,0.0,-4.1703,-4.176,-4.1487,-4.0848,-4.154,0.0,0.0,0.0,0.0,0.0,0.0,0.0,0.0,0.0,0.0,0.0,-4.1006,-4.1001,-4.1235,-4.176,-4.2139,-4.2313,-4.2894,-4.3277,-4.3277,-4.3149,-4.3094,-4.3293,-4.3858,-4.4315,-4.4499,-4.5185,-4.5682,-4.5641,-4.5663,-4.5718,-4.5902,-4.5755,-4.5993,-4.6709,-4.6324,-4.614,-4.658,-4.6065,-4.5696,-4.5645,-4.5223,-4.4794,-4.4812,-4.4158,-4.3676,-4.3819,-4.3981,-4.4103,-4.4378,-4.47,-4.5081,-4.5231,-4.5187,-4.4957,-4.4952,-4.4789,-4.4583,-4.4687,-4.4702,-4.4891,-4.5457,-4.5586,-4.5586,-4.1903,0.0,-4.1213,-4.1105,0.0,-4.1059,-4.1286,-4.1853,-4.2121,-4.2422,-4.2639,-4.2364,-4.2404,-4.2639,-4.2382,-4.2404,-4.2696,-4.2958,-4.3087,-4.3142,-4.3375,-4.3356,-4.3087,-4.3105,-4.3105,-4.3087,-4.3087,-4.3287,-4.3651,-4.3632,-4.3683,-4.3772,-4.4082,-4.4252,-4.4252,-4.3966,-4.3604,-4.3105,-4.3105,-4.3232,-4.3465,-4.3506,-4.3224,-4.267,0.0,0.0,0.0,0.0,0.0,0.0,0.0,0.0,0.0,0.0,0.0,-4.245,-4.2086,-4.212,-4.2797,-4.2907,-4.3057,-4.3461,-4.3463,-4.2949,-4.1846,-4.2433,-4.2892,-4.2896,-4.3609,-4.4085,-4.4121,-4.4452,-4.4672,-4.4709,-4.5052,-4.5289,-4.5349,-4.6012,-4.6487,-4.6503,-4.6487,-4.6636,-4.704,-4.6709,-4.6856,-4.7535,-4.737,-4.7204,-4.7534,-4.6985,-4.6507,-4.6504,-4.6194,-4.5992,-4.6033,-4.4929,-4.4354,-4.4777,-4.4328,-4.3897,-4.4007,-4.4166,-4.4364,-4.4527,-4.4429,-4.4312,-4.4293,-4.4147,-4.4081,-4.4241,-4.4302,-4.4467,-4.4997,-4.5105,-4.5099,-4.202,-4.1823,-4.0859,-4.0643,-4.0892,-4.0491,-4.0455,-4.0827,0.0,0.0,0.0,-4.1707,-4.1707,-4.1793,-4.1664,-4.1725,-4.1853,-4.2302,-4.2537,-4.2559,-4.2995,-4.3013,-4.2717,-4.2735,-4.2807,-4.2933,-4.2933,-4.3256,-4.3827,-4.3845,-4.39,-4.4058,-4.4568,-4.4755,-4.4671,-4.4671,-4.4026,-4.2844,-4.2893,-4.3147,-4.3561,-4.3722,-4.3394,-4.2602,-4.2758,-4.2076,-4.0411,-4.0931,-4.0699,-3.9546,-4.0673,-4.1274,-4.1001,-4.1682,-4.231,-4.2883,-4.2897,-4.3346,-4.4474,-4.4565,-4.4911,-4.5681,-4.5773,-4.4967,-4.3043,-4.3552,-4.3901,-4.3901,-4.4544,-4.4929,-4.4912,-4.5498,-4.5902,-4.5902,-4.6009,-4.61,-4.6158,-4.6818,-4.7329,-4.7311,-4.7276,-4.7553,-4.8122,-4.7719,-4.7553,-4.8141,-4.8196,-4.8324,-4.8233,-4.7739,-4.7334,-4.7313,-4.7073,-4.7132,-4.7215,-4.6091,-4.5413,-4.5982,-4.4838,-4.3805,-4.3752,-4.3692,-4.3624,-4.3867,-4.3668,-4.3643,-4.3601,-4.3612,-4.3605,-4.3844,-4.3915,-4.4011,-4.4336,-4.4395,-4.4448,-4.226,-4.221,-4.2087,-4.1662,-4.1121,-4.1086,-4.0714,-4.0303,-4.1331,-4.181,-4.1768,-4.1268,-4.1313,-4.1768,-4.1268,-4.1313,-4.1793,-4.1895,-4.1937,0.0,-4.2021,-4.2317,-4.2853,-4.2871,-4.3225,-4.3802,-4.3837,-4.3891,-4.3979,-4.3952,-4.3961,-4.4021,-4.4112,-4.3966,-4.3515,-4.3467,-4.3363,-4.3154,-4.3585,-4.3811,-4.3846,-4.3754,-4.357,-4.3301,-4.3262,-4.2493,-4.0972,-4.1063,-4.0787,-4.0088,-4.0823,-4.1657,-4.2378,-4.3026,-4.3544,-4.3769,-4.38,-4.3898,-4.4074,-4.4118,-4.44,-4.5043,-4.512,-4.5178,-4.5399,-4.5478,-4.5553,-4.5571,-4.5645,-4.5718,-4.5755,-4.5883,-4.6012,-4.5993,-4.6544,-4.6929,-4.693,-4.7609,-4.8084,-4.8066,-4.8121,-4.8141,-4.8233,-4.8177,-4.8122,-4.8288,-4.8324,-4.8324,-4.8288,-4.8214,-4.8141,-4.8029,-4.7512,-4.7184,-4.7187,-4.6433,-4.5902,-4.5937,-4.518,-4.4502,-4.4628,-4.4188,-4.3984,-4.4332,-4.4061,-4.3904,-4.3849,-4.3695,-4.3563,-4.3605,-4.3597,-4.3652,-4.3734,-4.3775,-4.3933,-4.2658,-4.2303,-4.2303,-4.21,-4.1762,-4.1373,-4.0764,-4.0138,-4.0642,-4.0844,-4.0861,-4.0594,-4.0625,-4.0861,-4.0594,-4.0625,-4.0891,-4.1178,-4.1541,-4.1978,-4.2273,-4.2617,-4.3045,-4.3069,-4.3243,-4.3593,-4.3593,-4.3785,-4.4122,-4.4174,-4.4205,-4.4353,-4.4655,-4.4817,-4.4914,-4.4605,-4.4421,-4.4454,-4.3885,-4.3687,-4.3966,-4.4012,-4.3805,-4.3343,-4.334,-4.286,-4.1732,-4.2043,-4.195,-4.13,-4.195,-4.2393,-4.2477,-4.315,-4.3748,-4.4205,-4.4589,-4.4977,-4.5279,-4.5316,-4.5414,-4.5749,-4.5749,-4.5852,-4.6159,-4.6012,-4.5902,-4.5919,-4.6268,-4.6562,-4.6581,-4.6948,-4.7205,-4.7205,-4.7554,-4.7757,-4.7756,-4.805,-4.8306,-4.8324,-4.8324,-4.8324,-4.8324,-4.8324,-4.8324,-4.8324,-4.8324,-4.8324,-4.8324,-4.8324,-4.8324,-4.8288,-4.7992,-4.7827,-4.7699,-4.7073,-4.6431,-4.5975,-4.5241,-4.4652,-4.4375,-4.39,-4.3882,-4.3931,-4.3841,-4.3757,-4.3713,-4.3597,-4.3529,-4.3479,-4.3479,-4.3479,-4.3516,-4.3811,-4.427,-4.3352,-4.2811,-4.2811,-4.2709,-4.2472,-4.1762,-4.1119,-4.0612,-4.0646,-4.0578,-4.0544,-4.024,-4.0087,-4.0138,-4.0257,-4.0341,-4.0442,-4.0957,-4.1564,-4.2147,-4.2561,-4.2914,-4.3251,-4.3269,-4.3355,-4.351,-4.3528,-4.3838,-4.432,-4.4354,-4.4416,-4.4631,-4.5089,-4.5563,-4.5947,-4.5563,-4.5267,-4.5181,-4.413,-4.3712,-4.4117,-4.4283,-4.4079,-4.358,-4.3622,-4.3318,-4.2644,-4.298,-4.3031,-4.2594,-4.298,-4.3083,-4.2848,-4.3352,-4.3902,-4.4412,-4.4953,-4.5488,-4.5935,-4.5996,-4.6028,-4.6187,-4.6174,-4.6265,-4.6364,-4.6187,-4.6095,-4.628,-4.6945,-4.737,-4.7443,-4.7902,-4.8324,-4.8324,-4.8324,-4.8269,-4.8306,-4.8324,-4.8324,-4.8324,-4.8324,-4.8324,-4.8324,-4.8324,-4.8324,-4.8324,-4.8324,-4.8324,-4.8324,-4.8324,-4.8324,-4.8324,-4.8324,-4.8288,-4.8288,-4.7789,-4.7184,-4.6507,-4.581,-4.5132,-4.4452,-4.3993,-4.3644,-4.366,-4.3516,-4.3545,-4.3495,-4.3479,-4.3479,-4.3497,-4.3679,-4.3881,-4.4176,-4.4784,-4.5224,-4.4401,-4.4367,-4.4316,-4.3961,-4.3234,-4.2506,-4.2117,-4.2049,-4.2083,-4.2083,-4.188,-4.0679,-4.0121,-4.0172,-4.0815,-4.1102,-4.1153,-4.1831,-4.2189,-4.2274,-4.2326,-4.2734,-4.3376,-4.341,-4.3783,-4.4342,-4.4432,-4.4415,-4.4533,-4.4567,-4.4614,-4.457,-4.4682,-4.4703,-4.4759,-4.472,-4.4682,-4.4665,-4.4546,-4.4517,-4.4517,-4.4529,-4.4546,-4.4478,-4.4456,-4.4113,-4.3352,-4.3356,-4.3373,-4.3318,-4.3373,-4.3677,-4.4248,-4.4434,-4.4524,-4.4558,-4.4648,-4.4732,-4.4744,-4.4771,-4.502,-4.554,-4.5561,-4.5787,-4.6259,-4.6334,-4.6613,-4.7066,-4.775,-4.8009,-4.8196,-4.8212,-4.8229,-4.8132,-4.8231,-4.8324,-4.8288,-4.8324,-4.8324,-4.8324,-4.8324,-4.8324,-4.8324,-4.8324,-4.8324,-4.8324,-4.8324,-4.8324,-4.8324,-4.8324,-4.8324,-4.8324,-4.8324,-4.8324,-4.8288,-4.8288,-4.7956,-4.7865,-4.7334,-4.6305,-4.5424,-4.4728,-4.4361,-4.3589,-4.3479,-4.3479,-4.3479,-4.3479,-4.3479,-4.3589,-4.4009,-4.4724,-4.548,-4.6176,-4.6615,-4.457,-4.457,-4.457,-4.413,-4.342,-4.3081,-4.2692,-4.2303,-4.2303,-4.2303,-4.2236,-4.1644,-4.139,-4.1407,-4.1728,-4.1847,-4.1863,-4.2168,-4.254,-4.2912,-4.2963,-4.3352,-4.4045,-4.4096,-4.4282,-4.4553,-4.457,-4.457,-4.457,-4.457,-4.457,-4.457,-4.457,-4.457,-4.457,-4.457,-4.457,-4.457,-4.457,-4.457,-4.457,-4.457,-4.457,-4.457,-4.457,-4.4451,-4.4147,-4.4113,-4.4113,-4.4096,-4.4096,-4.4248,-4.4553,-4.457,-4.457,-4.457,-4.457,-4.457,-4.457,-4.457,-4.4686,-4.4932,-4.4947,-4.5078,-4.5323,-4.5638,-4.5982,-4.6301,-4.6827,-4.7176,-4.7237,-4.7494,-4.7614,-4.7331,-4.7525,-4.7771,-4.7771,-4.7771,-4.7862,-4.8251,-4.8324,-4.8324,-4.8324,-4.8324,-4.8324,-4.8324,-4.8324,-4.8324,-4.8324,-4.8324,-4.8324,-4.8324,-4.8324,-4.8324,-4.8324,-4.8324,-4.8141,-4.7627,-4.693,-4.6122,-4.5388,-4.4508,-4.3846,-4.3534,-4.3497,-4.3479,-4.3479,-4.3479,-4.3497,-4.3736,-4.4217,-4.5059,-4.6322,-4.6872,-4.7219,-4.457,-4.457,-4.457,-4.4265,-4.3741,-4.3741,-4.342,-4.2946,-4.2912,-4.2912,-4.2912,-4.2929,-4.2912,-4.2895,-4.2692,-4.2591,-4.2625,-4.2811,-4.32,-4.3707,-4.3741,-4.4045,-4.4536,-4.457,-4.4688,-4.4874,-4.4908,-4.4891,-4.4908,-4.5128,-4.5094,-4.4942,-4.5077,-4.5094,-4.4908,-4.4891,-4.479,-4.4587,-4.457,-4.457,-4.457,-4.457,-4.457,-4.457,-4.457,-4.457,-4.457,-4.457,-4.457,-4.457,-4.457,-4.457,-4.457,-4.457,-4.457,-4.457,-4.457,-4.457,-4.457,-4.457,-4.457,-4.457,-4.457,-4.457,-4.4665,-4.4998,-4.5243,-4.5299,-4.565,-4.5965,-4.643,-4.6864,-4.6864,-4.6489,-4.6877,-4.7152,-4.7112,-4.7241,-4.7587,-4.7992,-4.8176,-4.8324,-4.8324,-4.8324,-4.8324,-4.8324,-4.8324,-4.8324,-4.8324,-4.8324,-4.8324,-4.8324,-4.8324,-4.8324,-4.8324,-4.8324,-4.7994,-4.7553,-4.6856,-4.6122,-4.5187,-4.438,-4.3626,-4.3699,-4.3571,-4.3516,-4.3571,-4.3552,-4.4138,-4.4487,-4.4986,-4.5787,-4.7146,-4.7403,-4.7679,-4.457,-4.4604,-4.4587,-4.4637,-4.4536,-4.4553,-4.4519,-4.4401,-4.4434,-4.4451,-4.4367,-4.4384,-4.4434,-4.435,-4.3656,-4.3369,-4.347,-4.4062,-4.4367,-4.4451,-4.4502,-4.4553,-4.457,-4.4587,-4.4976,-4.5602,-4.5652,-4.5669,-4.5686,-4.6312,-4.6346,-4.572,-4.6261,-4.6295,-4.5737,-4.5618,-4.5297,-4.4739,-4.4604,-4.457,-4.457,-4.457,-4.457,-4.457,-4.457,-4.457,-4.457,-4.457,-4.457,-4.457,-4.457,-4.457,-4.457,-4.457,-4.457,-4.457,-4.457,-4.457,-4.457,-4.457,-4.457,-4.457,-4.457,-4.457,-4.457,-4.4665,-4.4699,-4.466,-4.4754,-4.5232,-4.6094,-4.6353,-4.6401,-4.6288,-4.6395,-4.6465,-4.6424,-4.6902,-4.7362,-4.751,-4.7819,-4.8056,-4.821,-4.8324,-4.821,-4.821,-4.8267,-4.8288,-4.8324,-4.8324,-4.8324,-4.8324,-4.8324,-4.8324,-4.8324,-4.8324,-4.8288,-4.7939,-4.7316,-4.6654,-4.5957,-4.5223,-4.4416,-4.3756,-4.3589,-4.3534,-4.3644,-4.4248,-4.5237,-4.5844,-4.6287,-4.7128,-4.7752,-4.8121,-4.8324,-4.5991,-4.5991,-4.5991,-4.5991,-4.5991,-4.5991,-4.5737,-4.5331,-4.5297,-4.5026,-4.4621,-4.457,-4.457,-4.4553,-4.4282,-4.4147,-4.4181,-4.4468,-4.457,-4.4637,-4.5077,-4.5314,-4.5348,-4.5754,-4.6109,-4.6363,-4.6413,-4.6397,-4.643,-4.6684,-4.6667,-4.6481,-4.665,-4.665,-4.6363,-4.594,-4.5551,-4.528,-4.484,-4.457,-4.4587,-4.457,-4.457,-4.457,-4.457,-4.457,-4.457,-4.457,-4.457,-4.457,-4.457,-4.457,-4.457,-4.457,-4.457,-4.457,-4.457,-4.457,-4.457,-4.457,-4.457,-4.457,-4.457,-4.457,-4.457,-4.457,-4.457,-4.457,-4.457,-4.4852,-4.5125,-4.5597,-4.5699,-4.5373,-4.5621,-4.5821,-4.5892,-4.6046,-4.6297,-4.6704,-4.698,-4.707,-4.7158,-4.7088,-4.7281,-4.7638,-4.7722,-4.7881,-4.8176,-4.8306,-4.8251,-4.8306,-4.8324,-4.8324,-4.8324,-4.8324,-4.8269,-4.8047,-4.7609,-4.6783,-4.603,-4.5314,-4.4522,-4.3938,-4.3681,-4.4046,-4.434,-4.5004,-4.6048,-4.6691,-4.7205,-4.7551,-4.8121,-4.8434,-4.8526,-4.6786,-4.6786,-4.6786,-4.6786,-4.6786,-4.6786,-4.6515,-4.6075,-4.6058,-4.5635,-4.506,-4.5196,-4.5179,-4.5026,-4.5179,-4.5297,-4.5246,-4.5077,-4.506,-4.5314,-4.5805,-4.6058,-4.6143,-4.6566,-4.6938,-4.7175,-4.7411,-4.7411,-4.7208,-4.7394,-4.7394,-4.7175,-4.7361,-4.7378,-4.7107,-4.665,-4.6329,-4.6007,-4.5551,-4.5196,-4.4993,-4.4942,-4.4942,-4.4891,-4.4722,-4.457,-4.457,-4.457,-4.457,-4.457,-4.457,-4.457,-4.457,-4.457,-4.457,-4.457,-4.457,-4.457,-4.457,-4.457,-4.457,-4.457,-4.457,-4.457,-4.457,-4.457,-4.457,-4.457,-4.457,-4.457,-4.4665,-4.4998,-4.5052,-4.4686,-4.4992,-4.5217,-4.5244,-4.5371,-4.5821,-4.628,-4.6442,-4.6413,-4.6365,-4.6413,-4.6664,-4.7044,-4.7093,-4.7273,-4.7606,-4.7679,-4.7697,-4.7675,-4.759,-4.7555,-4.7589,-4.7669,-4.8075,-4.8009,-4.7699,-4.691,-4.6214,-4.5478,-4.4851,-4.4213,-4.4213,-4.4689,-4.5241,-4.5901,-4.6561,-4.7279,-4.7609,-4.7919,-4.8361,-4.8673,-4.882,-4.6853,-4.6921,-4.6819,-4.6955,-4.7005,-4.7005,-4.687,-4.6819,-4.6819,-4.6397,-4.5838,-4.638,-4.6227,-4.594,-4.6278,-4.6684,-4.6599,-4.6092,-4.6075,-4.6566,-4.6735,-4.6802,-4.6819,-4.6972,-4.7361,-4.7936,-4.8595,-4.8562,-4.7986,-4.846,-4.8477,-4.8139,-4.8511,-4.8443,-4.7919,-4.7767,-4.7445,-4.6904,-4.6633,-4.6329,-4.5821,-4.5703,-4.5703,-4.5635,-4.5094,-4.4773,-4.4688,-4.4621,-4.457,-4.457,-4.457,-4.4587,-4.4654,-4.4739,-4.4671,-4.4688,-4.4621,-4.4604,-4.457,-4.457,-4.457,-4.457,-4.457,-4.457,-4.457,-4.457,-4.457,-4.457,-4.457,-4.457,-4.457,-4.4665,-4.4665,-4.457,-4.4691,-4.4686,-4.4766,-4.5145,-4.5711,-4.6137,-4.6192,-4.6336,-4.6336,-4.6192,-4.6192,-4.6318,-4.6398,-4.6477,-4.668,-4.6731,-4.6488,-4.6494,-4.6695,-4.688,-4.6868,-4.6962,-4.756,-4.797,-4.7626,-4.7095,-4.6543,-4.5902,-4.5571,-4.504,-4.5314,-4.5773,-4.614,-4.6781,-4.7258,-4.7829,-4.8047,-4.8249,-4.8689,-4.9038,-4.9297,-4.8325,-4.8308,-4.8325,-4.8325,-4.8325,-4.8308,-4.8054,-4.7581,-4.7581,-4.7141,-4.6583,-4.6684,-4.6667,-4.6532,-4.6718,-4.7073,-4.753,-4.731,-4.7107,-4.6938,-4.7344,-4.7581,-4.7665,-4.8071,-4.8426,-4.8663,-4.8883,-4.89,-4.8731,-4.8883,-4.8866,-4.8765,-4.8883,-4.89,-4.8612,-4.8189,-4.7767,-4.7564,-4.7039,-4.665,-4.6464,-4.6464,-4.6464,-4.643,-4.6227,-4.6092,-4.6058,-4.5128,-4.4604,-4.4587,-4.457,-4.4807,-4.5297,-4.5838,-4.5872,-4.5432,-4.5365,-4.5077,-4.4654,-4.4587,-4.4587,-4.457,-4.457,-4.457,-4.457,-4.457,-4.457,-4.457,-4.457,-4.457,-4.457,-4.457,-4.457,-4.457,-4.457,-4.457,-4.4587,-4.4761,-4.4967,-4.5103,-4.5196,-4.5196,-4.5196,-4.5178,-4.5407,-4.5716,-4.5778,-4.5888,-4.6244,-4.6277,-4.639,-4.6377,-4.6405,-4.6242,-4.6306,-4.6372,-4.6784,-4.7281,-4.7234,-4.6923,-4.6522,-4.6377,-4.6048,-4.6122,-4.6416,-4.6728,-4.7112,-4.7424,-4.7809,-4.7991,-4.8025,-4.8446,-4.909,-4.9343,-4.949,-4.9018,-4.9018,-4.9018,-4.9018,-4.9018,-4.9018,-4.8748,-4.8359,-4.8325,-4.7902,-4.7344,-4.7513,-4.7445,-4.731,-4.7462,-4.7868,-4.8291,-4.8325,-4.8071,-4.7716,-4.8037,-4.8325,-4.8376,-4.8765,-4.9018,-4.9018,-4.9001,-4.9018,-4.9018,-4.9018,-4.9001,-4.9001,-4.9018,-4.9001,-4.8984,-4.8578,-4.8308,-4.8257,-4.7868,-4.7496,-4.7259,-4.7192,-4.7208,-4.7175,-4.6938,-4.6938,-4.709,-4.6024,-4.528,-4.506,-4.4993,-4.5246,-4.572,-4.6321,-4.6591,-4.6237,-4.6068,-4.5797,-4.5145,-4.5043,-4.484,-4.4654,-4.457,-4.457,-4.457,-4.457,-4.457,-4.457,-4.457,-4.457,-4.457,-4.457,-4.457,-4.457,-4.457,-4.457,-4.457,-4.457,-4.4626,-4.4665,-4.4665,-4.457,-4.457,-4.4626,-4.4703,-4.5103,-4.5162,-4.5205,-4.565,-4.5696,-4.573,-4.5772,-4.5597,-4.5563,-4.567,-4.5853,-4.6046,-4.6464,-4.6801,-4.647,-4.6109,-4.6411,-4.6359,-4.6781,-4.7112,-4.7158,-4.7503,-4.7549,-4.7752,-4.7879,-4.7842,-4.807,-4.8442,-4.9131,-4.9518,-4.9018,-4.9018,-4.9018,-4.9018,-4.9018,-4.9018,-4.8968,-4.8968,-4.8968,-4.8562,-4.8206,-4.8405,-4.8388,-4.8084,-4.831,-4.8596,-4.8906,-4.8917,-4.8866,-4.8754,-4.8759,-4.8742,-4.89,-4.8968,-4.9001,-4.9018,-4.9018,-4.9018,-4.9018,-4.9018,-4.9018,-4.9018,-4.9018,-4.9018,-4.8984,-4.8923,-4.8793,-4.8866,-4.8821,-4.8388,-4.7926,-4.797,-4.797,-4.7953,-4.7428,-4.7361,-4.7767,-4.7175,-4.6464,-4.5872,-4.5855,-4.5974,-4.5983,-4.6499,-4.7038,-4.6802,-4.6836,-4.6397,-4.5933,-4.5754,-4.5517,-4.5049,-4.488,-4.4688,-4.4908,-4.4891,-4.4857,-4.4925,-4.4807,-4.4705,-4.4705,-4.4587,-4.4587,-4.457,-4.457,-4.457,-4.457,-4.457,-4.457,-4.457,-4.457,-4.457,-4.457,-4.457,-4.4626,-4.4626,-4.4677,-4.4754,-4.4754,-4.4912,-4.466,-4.4744,-4.4953,-4.4987,-4.5201,-4.5299,-4.5475,-4.5598,-4.6035,-4.5975,-4.5964,-4.6338,-4.6545,-4.703,-4.7362,-4.7492,-4.7536,-4.7386,-4.7355,-4.7373,-4.7363,-4.7401,-4.8084,-4.9028,-4.9757,-4.9018,-4.9018,-4.9018,-4.9018,-4.9018,-4.9018,-4.9001,-4.9001,-4.9001,-4.8742,-4.8624,-4.8206,-4.7834,-4.7701,-4.7834,-4.7933,-4.808,-4.8639,-4.9018,-4.8877,-4.8225,-4.8433,-4.8861,-4.9018,-4.9001,-4.894,-4.894,-4.9018,-4.9018,-4.894,-4.9001,-4.9018,-4.8973,-4.8956,-4.894,-4.8322,-4.837,-4.8781,-4.8225,-4.8222,-4.8608,-4.8602,-4.8714,-4.868,-4.8416,-4.8399,-4.8629,-4.8003,-4.7276,-4.6616,-4.7073,-4.7344,-4.731,-4.7858,-4.7808,-4.7064,-4.7233,-4.7014,-4.6085,-4.621,-4.6353,-4.6208,-4.5676,-4.5686,-4.6161,-4.5679,-4.5737,-4.5923,-4.5771,-4.5415,-4.5331,-4.4925,-4.4654,-4.457,-4.4587,-4.457,-4.457,-4.457,-4.457,-4.457,-4.457,-4.457,-4.457,-4.457,-4.457,-4.457,-4.457,-4.457,-4.457,-4.457,-4.457,-4.457,-4.471,-4.4677,-4.466,-4.4771,-4.4848,-4.4848,-4.5159,-4.5511,-4.5758,-4.627,-4.6436,-4.6642,-4.6801,-4.6939,-4.6799,-4.668,-4.6724,-4.6867,-4.7189,-4.7492,-4.8729,-4.9745,-5.0066,-4.9018,-4.9018,-4.9018,-4.9018,-4.894,-4.8593,-4.8639,-4.8798,-4.8144,-4.808,-4.8144,-4.744,-4.7036,-4.702,-4.702,-4.702,-4.7088,-4.7589,-4.7803,-4.7737,-4.7239,-4.7523,-4.8225,-4.845,-4.8433,-4.8433,-4.8433,-4.8386,-4.837,-4.8433,-4.8593,-4.8945,-4.8879,-4.8687,-4.8322,-4.7852,-4.7517,-4.7655,-4.7306,-4.7323,-4.7803,-4.7786,-4.7786,-4.7786,-4.7803,-4.7933,-4.8222,-4.7968,-4.7603,-4.7393,-4.7682,-4.7936,-4.797,-4.8308,-4.8122,-4.7293,-4.7411,-4.7005,-4.6481,-4.6583,-4.6794,-4.6709,-4.637,-4.643,-4.6591,-4.6363,-4.6404,-4.6583,-4.6321,-4.6203,-4.6041,-4.5483,-4.5117,-4.5055,-4.4778,-4.4587,-4.457,-4.457,-4.457,-4.457,-4.457,-4.457,-4.457,-4.457,-4.457,-4.457,-4.457,-4.457,-4.457,-4.457,-4.457,-4.457,-4.457,-4.457,-4.457,-4.4682,-4.4682,-4.4682,-4.472,-4.5035,-4.5365,-4.5922,-4.5995,-4.6058,-4.6211,-4.6352,-4.6244,-4.6221,-4.6426,-4.668,-4.7063,-4.7783,-4.8882,-4.9614,-5.0046,-4.8781,-4.8861,-4.8736,-4.8798,-4.8639,-4.7885,-4.7868,-4.8225,-4.702,-4.673,-4.7088,-4.647,-4.6048,-4.6032,-4.6048,-4.6048,-4.6032,-4.64,-4.626,-4.6244,-4.6119,-4.6518,-4.7248,-4.7439,-4.7456,-4.7473,-4.7505,-4.762,-4.7686,-4.7637,-4.8017,-4.8412,-4.8447,-4.8146,-4.7664,-4.721,-4.6789,-4.6619,-4.6397,-4.6484,-4.6711,-4.6765,-4.6797,-4.6765,-4.6571,-4.6968,-4.7523,-4.7638,-4.773,-4.7994,-4.8037,-4.8122,-4.8088,-4.8071,-4.797,-4.7868,-4.7513,-4.7225,-4.6972,-4.7073,-4.7124,-4.7158,-4.7056,-4.6989,-4.7107,-4.7048,-4.7022,-4.7259,-4.6971,-4.6853,-4.6591,-4.6109,-4.5642,-4.545,-4.5004,-4.466,-4.457,-4.457,-4.457,-4.457,-4.457,-4.457,-4.457,-4.457,-4.457,-4.457,-4.457,-4.457,-4.457,-4.457,-4.457,-4.457,-4.457,-4.457,-4.457,-4.4626,-4.4626,-4.4626,-4.4626,-4.4776,-4.481,-4.5192,-4.5324,-4.5434,-4.5571,-4.5681,-4.5802,-4.5866,-4.6181,-4.6683,-4.7233,-4.7877,-4.8615,-4.9034,-4.9469,-4.7239,-4.7868,-4.7088,-4.7239,-4.7671,-4.6884,-4.6609,-4.6815,-4.6384,-4.6173,-4.626,-4.5488,-4.5153,-4.5079,-4.5079,-4.5079,-4.5211,-4.569,-4.5834,-4.5153,-4.5079,-4.5481,-4.6113,-4.6399,-4.6518,-4.6663,-4.7097,-4.7307,-4.7252,-4.7307,-4.7394,-4.7583,-4.7761,-4.7412,-4.7205,-4.6587,-4.6406,-4.6675,-4.6202,-4.6186,-4.6668,-4.6725,-4.6725,-4.6645,-4.6303,-4.6625,-4.7389,-4.7605,-4.8013,-4.8517,-4.8652,-4.8557,-4.868,-4.868,-4.8409,-4.8071,-4.8257,-4.8173,-4.7885,-4.8037,-4.8494,-4.8325,-4.7953,-4.7919,-4.8426,-4.7928,-4.7979,-4.824,-4.8051,-4.7484,-4.6988,-4.6186,-4.5828,-4.5637,-4.5072,-4.457,-4.457,-4.457,-4.457,-4.457,-4.457,-4.457,-4.457,-4.457,-4.457,-4.457,-4.457,-4.457,-4.457,-4.457,-4.457,-4.457,-4.457,-4.457,-4.457,-4.457,-4.457,-4.457,-4.457,-4.4778,-4.4812,-4.4846,-4.5083,-4.5038,-4.4848,-4.508,-4.5557,-4.5994,-4.6333,-4.6921,-4.7467,-4.8141,-4.8626,-4.8873,-4.8984,-4.6523,-4.6884,-4.6384,-4.6454,-4.6747,-4.5977,-4.5762,-4.5961,-4.518,-4.5106,-4.5269,-4.451,-4.4066,-4.4066,-4.4082,-4.4066,-4.4205,-4.4571,-4.474,-4.454,-4.4569,-4.4904,-4.544,-4.5711,-4.5924,-4.6347,-4.6796,-4.6985,-4.6925,-4.7,-4.7209,-4.7569,-4.7494,-4.7316,-4.7007,-4.6297,-4.5938,-4.5742,-4.5662,-4.5692,-4.5866,-4.5865,-4.5647,-4.543,-4.5101,-4.5253,-4.6134,-4.626,-4.6747,-4.7523,-4.808,-4.8576,-4.8838,-4.8697,-4.8308,-4.8071,-4.7817,-4.8088,-4.8003,-4.8274,-4.8578,-4.8984,-4.8629,-4.8697,-4.8849,-4.8623,-4.864,-4.8832,-4.8652,-4.8219,-4.7781,-4.676,-4.6302,-4.6004,-4.5258,-4.4621,-4.457,-4.457,-4.457,-4.457,-4.457,-4.457,-4.457,-4.457,-4.457,-4.457,-4.457,-4.457,-4.457,-4.457,-4.457,-4.457,-4.457,-4.457,-4.457,-4.457,-4.457,-4.457,-4.457,-4.4936,-4.5213,-4.5117,-4.5094,-4.5032,-4.5038,-4.5252,-4.5674,-4.6078,-4.6709,-4.7342,-4.7973,-4.8456,-4.8815,-4.8965,-4.8982,-4.5834,-4.5961,-4.5834,-4.5818,-4.5834,-4.5005,-4.5005,-4.5327,-4.4036,-4.3912,-4.4297,-4.363,-4.3488,-4.3344,-4.3409,-4.3344,-4.3359,-4.3618,-4.4048,-4.4298,-4.4554,-4.4989,-4.544,-4.5695,-4.6067,-4.6662,-4.668,-4.6665,-4.665,-4.665,-4.695,-4.7635,-4.751,-4.705,-4.664,-4.6358,-4.592,-4.5236,-4.5462,-4.5425,-4.5101,-4.498,-4.4665,-4.3972,-4.3705,-4.4066,-4.4871,-4.5079,-4.5374,-4.6189,-4.6952,-4.7737,-4.8219,-4.8433,-4.8088,-4.8088,-4.7767,-4.7817,-4.8156,-4.824,-4.846,-4.8984,-4.8984,-4.8984,-4.8984,-4.8951,-4.8934,-4.8951,-4.8917,-4.8917,-4.8883,-4.7784,-4.7005,-4.6607,-4.554,-4.4829,-4.4587,-4.457,-4.457,-4.457,-4.457,-4.457,-4.457,-4.457,-4.457,-4.457,-4.457,-4.457,-4.457,-4.457,-4.457,-4.457,-4.457,-4.457,-4.457,-4.4654,-4.4637,-4.4891,-4.4823,-4.5258,-4.5711,-4.5777,-4.5713,-4.5506,-4.5552,-4.5796,-4.6231,-4.6929,-4.746,-4.8023,-4.8343,-4.8771,-4.8951,-4.9001,-4.9018,-4.4266,-4.493,-4.4128,-4.4282,-4.4781,-4.3989,-4.3693,-4.3678,-4.3472,-4.3409,-4.3566,-4.3409,-4.3344,-4.3344,-4.3344,-4.3344,-4.3434,-4.3778,-4.4182,-4.4481,-4.487,-4.5499,-4.6037,-4.6157,-4.6566,-4.6851,-4.6765,-4.6531,-4.6463,-4.6379,-4.6667,-4.663,-4.6667,-4.6523,-4.6523,-4.6277,-4.6277,-4.5828,-4.5992,-4.6007,-4.5843,-4.5723,-4.5185,-4.4182,-4.3673,-4.3862,-4.445,-4.4812,-4.5211,-4.6103,-4.6298,-4.6539,-4.6936,-4.7913,-4.8483,-4.8416,-4.8265,-4.8135,-4.8461,-4.8686,-4.8787,-4.8984,-4.9018,-4.9018,-4.9018,-4.9018,-4.9018,-4.9018,-4.9018,-4.9001,-4.8984,-4.8139,-4.7479,-4.6844,-4.6038,-4.5247,-4.4795,-4.4587,-4.457,-4.457,-4.457,-4.457,-4.457,-4.457,-4.457,-4.457,-4.457,-4.457,-4.457,-4.457,-4.457,-4.457,-4.457,-4.457,-4.457,-4.4688,-4.4823,-4.5348,-4.55,-4.596,-4.6316,-4.6515,-4.6549,-4.654,-4.652,-4.6726,-4.7257,-4.7689,-4.8084,-4.8473,-4.8771,-4.9001,-4.9018,-4.9018,-4.9018,-4.3551,-4.3927,-4.3472,-4.3551,-4.3927,-4.3551,-4.3344,-4.3344,-4.3344,-4.3344,-4.3344,-4.3344,-4.3344,-4.3344,-4.3344,-4.3344,-4.3509,-4.4003,-4.4481,-4.4855,-4.5514,-4.6187,-4.6756,-4.6815,-4.6995,-4.7145,-4.6965,-4.6815,-4.6845,-4.683,-4.68,-4.683,-4.683,-4.683,-4.683,-4.6845,-4.6621,-4.6501,-4.6621,-4.6651,-4.6367,-4.6337,-4.5603,-4.4601,-4.4032,-4.3912,-4.3879,-4.4004,-4.4205,-4.469,-4.5196,-4.5431,-4.5905,-4.6592,-4.7523,-4.7506,-4.7589,-4.7868,-4.8144,-4.8289,-4.8433,-4.894,-4.8984,-4.9018,-4.9018,-4.9018,-4.9018,-4.9018,-4.9018,-4.9018,-4.8984,-4.8359,-4.7791,-4.7301,-4.6445,-4.5677,-4.5213,-4.4829,-4.4778,-4.4705,-4.4688,-4.4688,-4.457,-4.457,-4.457,-4.457,-4.457,-4.457,-4.457,-4.457,-4.457,-4.466,-4.4677,-4.4778,-4.484,-4.5128,-4.5348,-4.5821,-4.621,-4.6615,-4.6988,-4.7293,-4.7656,-4.7919,-4.7912,-4.7612,-4.7809,-4.8132,-4.8528,-4.8838,-4.8968,-4.9018,-4.9018,-4.9018,-4.9035,-4.3344,-4.3344,-4.3344,-4.3344,-4.3344,-4.3344,-4.3344,-4.3344,-4.3344,-4.3344,-4.3344,-4.3344,-4.3344,-4.3344,-4.3344,-4.3344,-4.3419,-4.4122,-4.4811,-4.5319,-4.6142,-4.683,-4.7145,-4.7309,-4.7294,-4.7264,-4.7264,-4.7309,-4.7234,-4.7219,-4.7279,-4.7234,-4.7279,-4.7309,-4.7264,-4.7189,-4.692,-4.6875,-4.6965,-4.698,-4.6651,-4.6337,-4.5873,-4.4811,-4.4586,-4.4212,-4.3753,-4.3773,-4.3558,-4.3754,-4.4066,-4.451,-4.4646,-4.5196,-4.5618,-4.5674,-4.5961,-4.6592,-4.702,-4.7306,-4.7589,-4.808,-4.8354,-4.845,-4.8798,-4.8798,-4.9018,-4.9018,-4.9018,-4.9018,-4.8951,-4.8511,-4.8084,-4.7669,-4.6904,-4.6078,-4.5875,-4.5614,-4.5405,-4.5303,-4.5066,-4.4857,-4.4773,-4.457,-4.457,-4.457,-4.457,-4.457,-4.457,-4.457,-4.4587,-4.4677,-4.4761,-4.4914,-4.5179,-4.5696,-4.6034,-4.6583,-4.6955,-4.7319,-4.7725,-4.8105,-4.8443,-4.8646,-4.8487,-4.8218,-4.8421,-4.8463,-4.8775,-4.8968,-4.9001,-4.9018,-4.9018,-4.9086,-4.9137,-4.3344,-4.3344,-4.3344,-4.3344,-4.3344,-4.3344,-4.3344,-4.3344,-4.3344,-4.3344,-4.3344,-4.3344,-4.3344,-4.3344,-4.3344,-4.3344,-4.3688,-4.4511,-4.514,-4.5454,-4.6486,-4.713,-4.7279,-4.7309,-4.7309,-4.7309,-4.7309,-4.7309,-4.7309,-4.7309,-4.7309,-4.7309,-4.7309,-4.7309,-4.7309,-4.7309,-4.7264,-4.7204,-4.7264,-4.7264,-4.7085,-4.6636,-4.6277,-4.5903,-4.5454,-4.4811,-4.4212,-4.4047,-4.3883,-4.3374,-4.3409,-4.3472,-4.3472,-4.3551,-4.3615,-4.4098,-4.5032,-4.6244,-4.6292,-4.6346,-4.6539,-4.6841,-4.6798,-4.7038,-4.7611,-4.8366,-4.8702,-4.9018,-4.894,-4.9001,-4.9001,-4.8917,-4.8506,-4.8141,-4.7619,-4.7081,-4.6786,-4.6237,-4.6068,-4.6092,-4.5916,-4.5399,-4.506,-4.479,-4.457,-4.457,-4.4587,-4.4727,-4.4795,-4.4987,-4.5026,-4.5235,-4.5382,-4.5518,-4.5771,-4.6254,-4.671,-4.7293,-4.7648,-4.7953,-4.8274,-4.8578,-4.8748,-4.8849,-4.8758,-4.8707,-4.8741,-4.8843,-4.8968,-4.9018,-4.9018,-4.9018,-4.9018,-4.912,-4.9373,-4.3344,-4.3344,-4.3344,-4.3344,-4.3344,-4.3344,-4.3344,-4.3344,-4.3344,-4.3344,-4.3344,-4.3344,-4.3344,-4.3344,-4.3344,-4.3344,-4.3629,-4.4691,-4.5274,-4.5589,-4.6591,-4.7294,-4.7309,-4.7309,-4.7309,-4.7309,-4.7309,-4.7309,-4.7309,-4.7309,-4.7309,-4.7309,-4.7309,-4.7309,-4.7309,-4.7309,-4.7309,-4.7294,-4.7309,-4.7309,-4.7234,-4.701,-4.6696,-4.6352,-4.6022,-4.5349,-4.4631,-4.4317,-4.3988,-4.3479,-4.3344,-4.3344,-4.3344,-4.3329,-4.3329,-4.3394,-4.4051,-4.48,-4.529,-4.5383,-4.5608,-4.6071,-4.6164,-4.647,-4.6815,-4.7177,-4.7734,-4.8164,-4.8186,-4.8416,-4.8861,-4.9001,-4.8821,-4.854,-4.8209,-4.7922,-4.745,-4.6959,-4.6673,-4.6716,-4.6768,-4.6338,-4.6007,-4.5957,-4.5788,-4.5618,-4.5693,-4.5767,-4.5898,-4.6084,-4.6068,-4.6007,-4.6163,-4.6317,-4.6556,-4.6903,-4.7241,-4.7774,-4.8257,-4.8545,-4.8731,-4.8968,-4.9018,-4.9018,-4.89,-4.8917,-4.9018,-4.9018,-4.9018,-4.9018,-4.9018,-4.9215,-4.9385,-4.9695,-5.0084,-4.3344,-4.3344,-4.3344,-4.3344,-4.3344,-4.3344,-4.3344,-4.3344,-4.3344,-4.3344,-4.3344,-4.3344,-4.3344,-4.3344,-4.3359,-4.3449,-4.3688,-4.4781,-4.5334,-4.5918,-4.6606,-4.7234,-4.7309,-4.7309,-4.7309,-4.7309,-4.7309,-4.7309,-4.7309,-4.7309,-4.7309,-4.7309,-4.7309,-4.7309,-4.7309,-4.7309,-4.7309,-4.7309,-4.7309,-4.7309,-4.7294,-4.7294,-4.701,-4.6741,-4.6456,-4.6007,-4.5005,-4.4631,-4.4272,-4.3763,-4.3404,-4.3344,-4.3344,-4.3344,-4.3344,-4.3329,-4.363,-4.3765,-4.423,-4.4511,-4.4827,-4.5269,-4.5834,-4.5751,-4.5862,-4.6025,-4.6571,-4.7603,-4.7718,-4.8161,-4.8719,-4.9001,-4.8968,-4.8771,-4.854,-4.831,-4.8063,-4.7743,-4.7591,-4.7737,-4.7791,-4.7665,-4.7378,-4.7361,-4.7158,-4.6802,-4.676,-4.6826,-4.6833,-4.6897,-4.6775,-4.6634,-4.6938,-4.7063,-4.7276,-4.7588,-4.796,-4.823,-4.8714,-4.8934,-4.8984,-4.9018,-4.9018,-4.9018,-4.9052,-4.9018,-4.9018,-4.9018,-4.9018,-4.9086,-4.9204,-4.9537,-4.987,-5.0265,-5.076,-4.3344,-4.3344,-4.3344,-4.3344,-4.3344,-4.3344,-4.3344,-4.3344,-4.3344,-4.3344,-4.3344,-4.3344,-4.3344,-4.3344,-4.3389,-4.3629,-4.4212,-4.496,-4.5514,-4.6172,-4.692,-4.7249,-4.7309,-4.7309,-4.7309,-4.7309,-4.7309,-4.7309,-4.7309,-4.7309,-4.7309,-4.7309,-4.7309,-4.7309,-4.7309,-4.7309,-4.7309,-4.7309,-4.7309,-4.7309,-4.7309,-4.7309,-4.7249,-4.7234,-4.716,-4.689,-4.6187,-4.5544,-4.484,-4.4182,-4.3718,-4.3359,-4.3359,-4.3344,-4.3344,-4.3344,-4.3344,-4.3434,-4.3593,-4.3687,-4.3518,-4.3771,-4.4282,-4.4874,-4.4858,-4.5658,-4.6538,-4.7061,-4.7042,-4.7655,-4.837,-4.894,-4.8513,-4.8413,-4.8245,-4.836,-4.8343,-4.8669,-4.8585,-4.8754,-4.8635,-4.8314,-4.8169,-4.8051,-4.7936,-4.7581,-4.7419,-4.7505,-4.7325,-4.7335,-4.7181,-4.7133,-4.7591,-4.7781,-4.7885,-4.8162,-4.8467,-4.8568,-4.8866,-4.8968,-4.9001,-4.9018,-4.9018,-4.9154,-4.9221,-4.9103,-4.9103,-4.9323,-4.9362,-4.9306,-4.9441,-4.991,-5.0655,-5.1302,-5.1725,-4.3344,-4.3344,-4.3344,-4.3344,-4.3344,-4.3344,-4.3344,-4.3344,-4.3344,-4.3344,-4.3344,-4.3344,-4.3344,-4.3344,-4.3344,-4.3449,-4.3868,-4.4855,-4.5394,-4.5978,-4.6651,-4.7204,-4.7309,-4.7309,-4.7309,-4.7309,-4.7309,-4.7309,-4.7309,-4.7309,-4.7309,-4.7309,-4.7309,-4.7309,-4.7309,-4.7309,-4.7309,-4.7309,-4.7309,-4.7309,-4.7309,-4.7309,-4.7309,-4.7309,-4.7309,-4.6965,-4.6381,-4.6097,-4.5319,-4.4571,-4.4107,-4.3748,-4.3419,-4.3374,-4.3344,-4.3344,-4.3344,-4.3344,-4.3344,-4.3344,-4.3344,-4.3329,-4.3723,-4.3892,-4.3972,-4.4297,-4.4894,-4.5457,-4.5997,-4.6571,-4.7088,-4.7239,-4.7155,-4.7424,-4.7718,-4.8031,-4.8248,-4.8416,-4.8389,-4.8131,-4.8467,-4.8568,-4.8505,-4.8539,-4.8411,-4.8342,-4.8213,-4.8101,-4.7928,-4.7866,-4.7799,-4.7782,-4.8192,-4.8326,-4.8494,-4.8731,-4.9018,-4.9018,-4.9018,-4.9069,-4.9086,-4.9018,-4.9052,-4.9238,-4.9509,-4.9622,-4.974,-4.9767,-4.9734,-4.9622,-4.9881,-5.0405,-5.1285,-5.2217,-5.2587,-4.3344,-4.3344,-4.3344,-4.3344,-4.3344,-4.3344,-4.3344,-4.3344,-4.3344,-4.3344,-4.3344,-4.3344,-4.3344,-4.3344,-4.3344,-4.3703,-4.4152,-4.49,-4.5499,-4.6172,-4.689,-4.7264,-4.7309,-4.7309,-4.7309,-4.7309,-4.7309,-4.7309,-4.7309,-4.7309,-4.7309,-4.7309,-4.7309,-4.7309,-4.7309,-4.7309,-4.7309,-4.7309,-4.7309,-4.7309,-4.7309,-4.7309,-4.7309,-4.7309,-4.7309,-4.7145,-4.6711,-4.6381,-4.5888,-4.514,-4.4556,-4.4092,-4.3733,-4.3464,-4.3359,-4.3344,-4.3344,-4.3344,-4.3344,-4.3344,-4.3344,-4.3329,-4.3344,-4.3423,-4.3344,-4.3359,-4.4043,-4.4828,-4.4971,-4.5153,-4.6032,-4.6384,-4.6523,-4.675,-4.6908,-4.7227,-4.7253,-4.7414,-4.739,-4.7293,-4.757,-4.7737,-4.7737,-4.7655,-4.8189,-4.8274,-4.8646,-4.8568,-4.8602,-4.8557,-4.8686,-4.8686,-4.8771,-4.8917,-4.8984,-4.9018,-4.9018,-4.9018,-4.9052,-4.9249,-4.9266,-4.9204,-4.9576,-5.0071,-5.0321,-5.0374,-5.0396,-5.0536,-5.0232,-4.987,-5.0486,-5.1189,-5.2046,-5.2959,-5.3145,-4.3329,-4.3344,-4.3329,-4.3344,-4.3344,-4.3344,-4.3344,-4.3344,-4.3344,-4.3344,-4.3344,-4.3344,-4.3344,-4.3344,-4.3344,-4.3853,-4.4706,-4.5155,-4.5798,-4.6726,-4.707,-4.7279,-4.7309,-4.7309,-4.7309,-4.7309,-4.7309,-4.7309,-4.7309,-4.7309,-4.7309,-4.7309,-4.7309,-4.7309,-4.7309,-4.7309,-4.7309,-4.7309,-4.7309,-4.7309,-4.7309,-4.7309,-4.7309,-4.7309,-4.7309,-4.7189,-4.7055,-4.6711,-4.6292,-4.5873,-4.5065,-4.4556,-4.4167,-4.3688,-4.3464,-4.3344,-4.3344,-4.3344,-4.3344,-4.3344,-4.3344,-4.3344,-4.3344,-4.3344,-4.3344,-4.3389,-4.3588,-4.4376,-4.4541,-4.5036,-4.569,-4.6032,-4.5889,-4.5889,-4.5991,-4.625,-4.6322,-4.6673,-4.6685,-4.6518,-4.6326,-4.6314,-4.6314,-4.6523,-4.7456,-4.8046,-4.8702,-4.8968,-4.8821,-4.9001,-4.9001,-4.9018,-4.9018,-4.9018,-4.9018,-4.9018,-4.9018,-4.9018,-4.9171,-4.9424,-4.9757,-4.9944,-5.0355,-5.0967,-5.1048,-5.0862,-5.1091,-5.1244,-5.1193,-5.1278,-5.1526,-5.2219,-5.3028,-5.3433,-5.3484,-4.3075,-4.2746,-4.315,-4.3344,-4.3344,-4.3344,-4.3344,-4.3344,-4.3344,-4.3344,-4.3344,-4.3344,-4.3344,-4.3344,-4.3434,-4.3868,-4.4616,-4.5229,-4.5918,-4.6636,-4.71,-4.7264,-4.7309,-4.7309,-4.7309,-4.7309,-4.7309,-4.7309,-4.7309,-4.7309,-4.7309,-4.7309,-4.7309,-4.7309,-4.7309,-4.7309,-4.7309,-4.7309,-4.7309,-4.7309,-4.7309,-4.7309,-4.7309,-4.7309,-4.7309,-4.7309,-4.7309,-4.6965,-4.677,-4.6441,-4.5633,-4.5229,-4.4616,-4.4032,-4.3763,-4.3479,-4.3344,-4.3344,-4.3344,-4.3344,-4.3344,-4.3344,-4.3344,-4.3344,-4.3344,-4.3344,-4.3558,-4.3743,-4.3953,-4.4205,-4.419,-4.4266,-4.422,-4.4312,-4.4573,-4.5109,-4.5459,-4.6031,-4.6268,-4.5859,-4.5603,-4.5873,-4.5961,-4.5602,-4.6244,-4.69,-4.7456,-4.8048,-4.8085,-4.8737,-4.9001,-4.9001,-4.9018,-4.9018,-4.9018,-4.9215,-4.9306,-4.939,-4.9565,-4.9869,-5.0185,-5.0604,-5.1183,-5.1763,-5.1594,-5.1425,-5.1911,-5.2315,-5.2619,-5.2841,-5.2707,-5.2708,-5.3213,-5.3467,-5.3501,-4.2761,-4.2447,-4.306,-4.3344,-4.3344,-4.3344,-4.3344,-4.3344,-4.3344,-4.3344,-4.3344,-4.3344,-4.3344,-4.3389,-4.3614,-4.4018,-4.4676,-4.5349,-4.6022,-4.6651,-4.7085,-4.7264,-4.7309,-4.7309,-4.7309,-4.7309,-4.7309,-4.7309,-4.7309,-4.7309,-4.7309,-4.7309,-4.7309,-4.7309,-4.7309,-4.7309,-4.7309,-4.7309,-4.7309,-4.7309,-4.7309,-4.7309,-4.7309,-4.7309,-4.7309,-4.7309,-4.7309,-4.7234,-4.713,-4.6711,-4.6337,-4.5948,-4.5185,-4.4526,-4.4197,-4.3778,-4.3419,-4.3389,-4.3344,-4.3344,-4.3344,-4.3344,-4.3344,-4.3344,-4.3344,-4.3344,-4.3344,-4.3374,-4.3344,-4.3329,-4.3329,-4.3344,-4.3374,-4.3543,-4.3777,-4.4285,-4.447,-4.5026,-4.5227,-4.4816,-4.4849,-4.5223,-4.5421,-4.5106,-4.4958,-4.5545,-4.6189,-4.6796,-4.7491,-4.8265,-4.8855,-4.8951,-4.9086,-4.9187,-4.9351,-4.9486,-4.9639,-4.9746,-5.0071,-5.0447,-5.0963,-5.1515,-5.1997,-5.2522,-5.2421,-5.2538,-5.3011,-5.3399,-5.3264,-5.3196,-5.3095,-5.3213,-5.3484,-5.3518,-5.3518,-4.2404,-4.2432,-4.303,-4.3299,-4.3344,-4.3344,-4.3344,-4.3344,-4.3344,-4.3344,-4.3344,-4.3344,-4.3344,-4.3464,-4.3973,-4.4586,-4.5214,-4.5903,-4.6561,-4.704,-4.7264,-4.7309,-4.7309,-4.7309,-4.7309,-4.7309,-4.7309,-4.7309,-4.7309,-4.7309,-4.7309,-4.7309,-4.7309,-4.7309,-4.7309,-4.7309,-4.7309,-4.7309,-4.7309,-4.7309,-4.7309,-4.7309,-4.7309,-4.7309,-4.7309,-4.7309,-4.7309,-4.7279,-4.7279,-4.704,-4.6711,-4.6441,-4.5888,-4.5065,-4.4616,-4.4197,-4.3778,-4.3584,-4.3629,-4.3688,-4.3449,-4.3479,-4.3374,-4.3359,-4.3344,-4.3344,-4.3344,-4.3344,-4.3344,-4.3344,-4.3344,-4.3344,-4.3344,-4.3359,-4.3359,-4.3528,-4.3528,-4.3678,-4.3798,-4.3818,-4.4003,-4.4228,-4.4352,-4.4198,-4.4557,-4.4926,-4.5675,-4.637,-4.7144,-4.8073,-4.8579,-4.8787,-4.9035,-4.939,-4.9622,-4.9796,-5.0236,-5.0396,-5.0916,-5.1355,-5.1874,-5.2244,-5.2638,-5.2994,-5.3264,-5.3518,-5.3518,-5.3518,-5.3484,-5.3366,-5.3281,-5.3315,-5.3518,-5.3518,-5.3518,-4.1669,-4.1728,-4.2372,-4.2895,-4.3299,-4.3344,-4.3344,-4.3344,-4.3344,-4.3344,-4.3344,-4.3344,-4.3359,-4.3404,-4.4018,-4.4676,-4.5364,-4.6007,-4.6651,-4.707,-4.7309,-4.7309,-4.7309,-4.7309,-4.7309,-4.7309,-4.7309,-4.7309,-4.7309,-4.7309,-4.7309,-4.7309,-4.7309,-4.7309,-4.7309,-4.7309,-4.7309,-4.7309,-4.7309,-4.7309,-4.7309,-4.7309,-4.7309,-4.7309,-4.7309,-4.7309,-4.7309,-4.7309,-4.7309,-4.7204,-4.7115,-4.689,-4.6247,-4.5918,-4.5633,-4.499,-4.4526,-4.4212,-4.4541,-4.4287,-4.4008,-4.3848,-4.3603,-4.3359,-4.3344,-4.3344,-4.3344,-4.3344,-4.3449,-4.3509,-4.3584,-4.3599,-4.3643,-4.3688,-4.3643,-4.3633,-4.3723,-4.3862,-4.3982,-4.4035,-4.4191,-4.4362,-4.4377,-4.4278,-4.4599,-4.4836,-4.5228,-4.6051,-4.6799,-4.77,-4.8299,-4.8514,-4.8877,-4.9194,-4.9816,-5.0113,-5.0652,-5.114,-5.1494,-5.193,-5.2281,-5.2685,-5.3161,-5.3382,-5.3484,-5.3518,-5.3518,-5.3518,-5.3518,-5.3518,-5.345,-5.3484,-5.3518,-5.3518,-5.3518,-4.1145,-4.1459,-4.2087,-4.2731,-4.3284,-4.3344,-4.3344,-4.3344,-4.3344,-4.3344,-4.3344,-4.3344,-4.3479,-4.3778,-4.4197,-4.4825,-4.5768,-4.6127,-4.6666,-4.7174,-4.7309,-4.7309,-4.7309,-4.7309,-4.7309,-4.7309,-4.7309,-4.7309,-4.7309,-4.7309,-4.7309,-4.7309,-4.7309,-4.7309,-4.7309,-4.7309,-4.7309,-4.7309,-4.7309,-4.7309,-4.7309,-4.7309,-4.7309,-4.7309,-4.7309,-4.7309,-4.7309,-4.7309,-4.7309,-4.7309,-4.7309,-4.716,-4.6561,-4.6262,-4.5334,-4.4646,-4.4451,-4.4348,-4.4608,-4.4788,-4.4518,-4.4303,-4.3968,-4.3614,-4.3419,-4.3344,-4.3344,-4.3359,-4.3584,-4.3763,-4.3853,-4.3943,-4.4062,-4.4152,-4.4163,-4.4157,-4.4328,-4.4541,-4.4669,-4.4735,-4.4937,-4.5125,-4.5065,-4.484,-4.4751,-4.5057,-4.5447,-4.5976,-4.6659,-4.7341,-4.7912,-4.8254,-4.8599,-4.899,-4.9592,-5.0226,-5.0676,-5.1144,-5.1665,-5.2084,-5.2603,-5.2924,-5.3264,-5.3416,-5.3501,-5.3518,-5.3518,-5.3518,-5.3518,-5.3518,-5.3518,-5.3518,-5.3518,-5.3518,-5.3518,-4.0741,-4.1459,-4.2147,-4.2806,-4.3299,-4.3344,-4.3344,-4.3344,-4.3344,-4.3344,-4.3344,-4.3344,-4.3614,-4.3943,-4.4377,-4.508,-4.5843,-4.6322,-4.68,-4.7309,-4.7309,-4.7309,-4.7309,-4.7309,-4.7309,-4.7309,-4.7309,-4.7309,-4.7309,-4.7309,-4.7309,-4.7309,-4.7309,-4.7309,-4.7309,-4.7309,-4.7309,-4.7309,-4.7309,-4.7309,-4.7309,-4.7309,-4.7309,-4.7309,-4.7309,-4.7309,-4.7309,-4.7309,-4.7309,-4.7309,-4.7309,-4.7279,-4.689,-4.6037,-4.4825,-4.428,-4.4325,-4.4549,-4.4837,-4.5093,-4.4975,-4.4764,-4.4383,-4.4083,-4.3828,-4.3404,-4.3344,-4.3464,-4.3673,-4.3973,-4.4122,-4.4496,-4.4721,-4.4721,-4.4764,-4.474,-4.4779,-4.511,-4.5451,-4.5585,-4.5789,-4.5963,-4.5873,-4.5678,-4.5589,-4.5717,-4.5808,-4.6184,-4.6705,-4.7304,-4.7539,-4.8002,-4.8503,-4.8827,-4.9208,-4.9791,-5.0402,-5.102,-5.1483,-5.1765,-5.19,-5.2539,-5.3298,-5.3264,-5.3125,-5.345,-5.3518,-5.3518,-5.3518,-5.3518,-5.3518,-5.3518,-5.3518,-5.3518,-5.3518,-4.0337,-4.1489,-4.2626,-4.321,-4.3314,-4.3344,-4.3344,-4.3344,-4.3344,-4.3344,-4.3344,-4.3359,-4.3449,-4.3763,-4.4526,-4.52,-4.5663,-4.6381,-4.7055,-4.7264,-4.7309,-4.7309,-4.7309,-4.7309,-4.7309,-4.7309,-4.7309,-4.7309,-4.7309,-4.7309,-4.7309,-4.7309,-4.7309,-4.7309,-4.7309,-4.7309,-4.7309,-4.7309,-4.7309,-4.7309,-4.7309,-4.7309,-4.7309,-4.7309,-4.7309,-4.7309,-4.7309,-4.7309,-4.7309,-4.7309,-4.7309,-4.7309,-4.7249,-4.5992,-4.555,-4.5382,-4.4684,-4.4772,-4.5218,-4.5367,-4.5385,-4.552,-4.5281,-4.4683,-4.4208,-4.3599,-4.3449,-4.3614,-4.3883,-4.4227,-4.4571,-4.5035,-4.5409,-4.5417,-4.544,-4.5395,-4.5417,-4.5852,-4.6241,-4.6491,-4.6696,-4.6666,-4.6591,-4.6546,-4.6501,-4.6361,-4.6199,-4.6373,-4.6821,-4.7297,-4.7337,-4.7734,-4.8389,-4.8743,-4.895,-4.9158,-4.9676,-5.0147,-5.0602,-5.0953,-5.1223,-5.1798,-5.2346,-5.2582,-5.2724,-5.2956,-5.3247,-5.3518,-5.3518,-5.3518,-5.3518,-5.3518,-5.3518,-5.3518,-5.3518,-4.0008,-4.1085,-4.2357,-4.3075,-4.3314,-4.3344,-4.3344,-4.3344,-4.3344,-4.3344,-4.3344,-4.3359,-4.3479,-4.3599,-4.4302,-4.5185,-4.5559,-4.6112,-4.6726,-4.71,-4.7309,-4.7309,-4.7309,-4.7309,-4.7309,-4.7309,-4.7309,-4.7309,-4.7309,-4.7309,-4.7309,-4.7309,-4.7309,-4.7309,-4.7309,-4.7309,-4.7309,-4.7309,-4.7309,-4.7309,-4.7309,-4.7309,-4.7309,-4.7309,-4.7309,-4.7309,-4.7309,-4.7309,-4.7309,-4.7309,-4.7309,-4.704,-4.6726,-4.5843,-4.5364,-4.5125,-4.4781,-4.4639,-4.5257,-4.5689,-4.5734,-4.5773,-4.6032,-4.5417,-4.4891,-4.4406,-4.4109,-4.4273,-4.505,-4.5424,-4.5633,-4.6022,-4.6322,-4.6396,-4.6466,-4.6436,-4.6436,-4.6606,-4.6849,-4.6909,-4.707,-4.7055,-4.6995,-4.6965,-4.6935,-4.692,-4.6746,-4.6725,-4.7126,-4.7309,-4.7309,-4.7369,-4.8004,-4.8166,-4.8103,-4.8332,-4.8837,-4.9251,-4.9631,-5.0073,-5.0478,-5.0896,-5.1266,-5.1528,-5.1948,-5.2463,-5.2756,-5.2993,-5.3399,-5.3518,-5.3518,-5.3518,-5.3518,-5.3518,-5.3518,-3.9873,-4.0666,-4.1863,-4.2731,-4.3284,-4.3344,-4.3344,-4.3344,-4.3344,-4.3344,-4.3344,-4.3344,-4.3703,-4.3793,-4.3868,-4.4915,-4.5663,-4.5933,-4.6426,-4.704,-4.7294,-4.7309,-4.7309,-4.7309,-4.7309,-4.7309,-4.7309,-4.7309,-4.7309,-4.7309,-4.7309,-4.7309,-4.7309,-4.7309,-4.7309,-4.7309,-4.7309,-4.7309,-4.7309,-4.7309,-4.7309,-4.7309,-4.7309,-4.7309,-4.7309,-4.7309,-4.7309,-4.7309,-4.7309,-4.7309,-4.7294,-4.7085,-4.6546,-4.5858,-4.5244,-4.4869,-4.4608,-4.4474,-4.4825,-4.5729,-4.5713,-4.5765,-4.6167,-4.6107,-4.5528,-4.5346,-4.504,-4.5242,-4.5938,-4.6262,-4.6456,-4.6726,-4.701,-4.7189,-4.7189,-4.7189,-4.7219,-4.7234,-4.7279,-4.7309,-4.7309,-4.7309,-4.7294,-4.7279,-4.7294,-4.7309,-4.7309,-4.7309,-4.7309,-4.7309,-4.7309,-4.7309,-4.7546,-4.7531,-4.7369,-4.7707,-4.8166,-4.8238,-4.866,-4.9211,-4.9672,-4.9934,-5.0149,-5.0358,-5.0843,-5.1596,-5.2038,-5.2315,-5.2739,-5.3247,-5.3045,-5.2994,-5.3518,-5.3518,-5.3518,-4.0113,-4.1265,-4.2043,-4.2716,-4.3269,-4.3329,-4.3344,-4.3344,-4.3344,-4.3344,-4.3344,-4.3344,-4.3449,-4.3554,-4.4032,-4.4796,-4.5469,-4.5723,-4.6471,-4.7204,-4.7294,-4.7309,-4.7309,-4.7309,-4.7309,-4.7309,-4.7309,-4.7309,-4.7309,-4.7309,-4.7309,-4.7309,-4.7309,-4.7309,-4.7309,-4.7309,-4.7309,-4.7309,-4.7309,-4.7309,-4.7309,-4.7309,-4.7309,-4.7309,-4.7309,-4.7309,-4.7309,-4.7309,-4.7309,-4.7309,-4.7309,-4.7189,-4.677,-4.6082,-4.5432,-4.5064,-4.4758,-4.4736,-4.5161,-4.5804,-4.5992,-4.6114,-4.6375,-4.6394,-4.6189,-4.6334,-4.6107,-4.5947,-4.6375,-4.6326,-4.6591,-4.6965,-4.7249,-4.7264,-4.7264,-4.7264,-4.7279,-4.7279,-4.7294,-4.7309,-4.7309,-4.7309,-4.7309,-4.7294,-4.7294,-4.7309,-4.7309,-4.7309,-4.7309,-4.7309,-4.7309,-4.7309,-4.7309,-4.7309,-4.7324,-4.7324,-4.7677,-4.7677,-4.7692,-4.8222,-4.8545,-4.8748,-4.8952,-4.9217,-4.9963,-5.0811,-5.1255,-5.1437,-5.206,-5.2418,-5.2269,-5.2388,-5.3011,-5.3348,-5.3264]}]]